<?xml version="1.0" encoding="UTF-8" standalone="no" ?>
<gpx xmlns="http://www.topografix.com/GPX/1/1" xmlns:xsi="http://www.w3.org/2001/XMLSchema-instance" xsi:schemaLocation="http://www.topografix.com/GPX/1/1 http://www.topografix.com/GPX/1/1/gpx.xsd" version="1.1" creator="VisuGPX - https://www.visugpx.com">
  <metadata>
    <name>2018-01-28 Puechabon Forêt Domaniale 21Km D 450m </name>
    <desc><![CDATA[Boucle en variante des circuits balisés depuis le centre de Puechabon : montée au Puech de la Galine, puis cheminement sur les bordures externes (nombreux points de vue) pour atteindre le point de vue panoramique sur St Guilhem le Désert. Retour par le hameau de Montcalmès pour atteindre l'Eglise St Sylvestre . Puis retour à Puechabon en passant au dessus de la combe de Poussaury]]></desc>
  </metadata>
  <trk>
    <name><![CDATA[2018-01-28 16:19:27]]></name>
    <trkseg>
      <trkpt lat="43.71547" lon="3.61594">
        <ele>177.5</ele>
        <time>2018-01-28T08:38:53Z</time>
      </trkpt>
      <trkpt lat="43.71547" lon="3.61593">
        <ele>174.62</ele>
        <time>2018-01-28T08:39:23Z</time>
      </trkpt>
      <trkpt lat="43.71547" lon="3.61593">
        <ele>171.25</ele>
        <time>2018-01-28T08:39:56Z</time>
      </trkpt>
      <trkpt lat="43.71547" lon="3.61594">
        <ele>175.1</ele>
        <time>2018-01-28T08:40:28Z</time>
      </trkpt>
      <trkpt lat="43.7155" lon="3.61593">
        <ele>172.21</ele>
        <time>2018-01-28T08:40:52Z</time>
      </trkpt>
      <trkpt lat="43.71541" lon="3.61605">
        <ele>171.73</ele>
        <time>2018-01-28T08:41:09Z</time>
      </trkpt>
      <trkpt lat="43.71531" lon="3.61615">
        <ele>169.81</ele>
        <time>2018-01-28T08:41:24Z</time>
      </trkpt>
      <trkpt lat="43.7152" lon="3.61626">
        <ele>169.33</ele>
        <time>2018-01-28T08:41:39Z</time>
      </trkpt>
      <trkpt lat="43.71505" lon="3.61638">
        <ele>169.33</ele>
        <time>2018-01-28T08:41:55Z</time>
      </trkpt>
      <trkpt lat="43.7149" lon="3.61651">
        <ele>167.41</ele>
        <time>2018-01-28T08:42:11Z</time>
      </trkpt>
      <trkpt lat="43.71485" lon="3.61659">
        <ele>167.41</ele>
        <time>2018-01-28T08:42:17Z</time>
      </trkpt>
      <trkpt lat="43.71485" lon="3.61667">
        <ele>166.93</ele>
        <time>2018-01-28T08:42:31Z</time>
      </trkpt>
      <trkpt lat="43.71485" lon="3.61667">
        <ele>168.37</ele>
        <time>2018-01-28T08:42:56Z</time>
      </trkpt>
      <trkpt lat="43.71483" lon="3.61675">
        <ele>169.33</ele>
        <time>2018-01-28T08:43:12Z</time>
      </trkpt>
      <trkpt lat="43.71487" lon="3.61687">
        <ele>168.37</ele>
        <time>2018-01-28T08:43:30Z</time>
      </trkpt>
      <trkpt lat="43.71492" lon="3.61702">
        <ele>165.96</ele>
        <time>2018-01-28T08:43:42Z</time>
      </trkpt>
      <trkpt lat="43.71495" lon="3.61718">
        <ele>162.6</ele>
        <time>2018-01-28T08:43:55Z</time>
      </trkpt>
      <trkpt lat="43.71496" lon="3.61721">
        <ele>162.12</ele>
        <time>2018-01-28T08:43:57Z</time>
      </trkpt>
      <trkpt lat="43.71507" lon="3.61723">
        <ele>161.64</ele>
        <time>2018-01-28T08:44:11Z</time>
      </trkpt>
      <trkpt lat="43.71522" lon="3.61716">
        <ele>162.12</ele>
        <time>2018-01-28T08:44:26Z</time>
      </trkpt>
      <trkpt lat="43.71536" lon="3.61707">
        <ele>162.12</ele>
        <time>2018-01-28T08:44:41Z</time>
      </trkpt>
      <trkpt lat="43.71555" lon="3.61693">
        <ele>164.52</ele>
        <time>2018-01-28T08:44:58Z</time>
      </trkpt>
      <trkpt lat="43.71576" lon="3.61682">
        <ele>166.45</ele>
        <time>2018-01-28T08:45:15Z</time>
      </trkpt>
      <trkpt lat="43.71594" lon="3.6167">
        <ele>167.41</ele>
        <time>2018-01-28T08:45:31Z</time>
      </trkpt>
      <trkpt lat="43.71613" lon="3.61657">
        <ele>167.41</ele>
        <time>2018-01-28T08:45:47Z</time>
      </trkpt>
      <trkpt lat="43.71627" lon="3.61641">
        <ele>165.48</ele>
        <time>2018-01-28T08:46:01Z</time>
      </trkpt>
      <trkpt lat="43.71641" lon="3.6162">
        <ele>165.48</ele>
        <time>2018-01-28T08:46:16Z</time>
      </trkpt>
      <trkpt lat="43.71657" lon="3.61603">
        <ele>165.96</ele>
        <time>2018-01-28T08:46:31Z</time>
      </trkpt>
      <trkpt lat="43.71676" lon="3.6159">
        <ele>165</ele>
        <time>2018-01-28T08:46:48Z</time>
      </trkpt>
      <trkpt lat="43.7168" lon="3.61592">
        <ele>165</ele>
        <time>2018-01-28T08:46:51Z</time>
      </trkpt>
      <trkpt lat="43.71683" lon="3.61593">
        <ele>164.04</ele>
        <time>2018-01-28T08:47:00Z</time>
      </trkpt>
      <trkpt lat="43.71698" lon="3.61612">
        <ele>163.56</ele>
        <time>2018-01-28T08:47:16Z</time>
      </trkpt>
      <trkpt lat="43.71708" lon="3.61637">
        <ele>164.04</ele>
        <time>2018-01-28T08:47:32Z</time>
      </trkpt>
      <trkpt lat="43.71717" lon="3.61666">
        <ele>163.56</ele>
        <time>2018-01-28T08:47:49Z</time>
      </trkpt>
      <trkpt lat="43.71722" lon="3.61692">
        <ele>164.04</ele>
        <time>2018-01-28T08:48:04Z</time>
      </trkpt>
      <trkpt lat="43.71724" lon="3.61699">
        <ele>164.04</ele>
        <time>2018-01-28T08:48:08Z</time>
      </trkpt>
      <trkpt lat="43.71725" lon="3.61705">
        <ele>162.6</ele>
        <time>2018-01-28T08:48:12Z</time>
      </trkpt>
      <trkpt lat="43.71729" lon="3.61735">
        <ele>162.12</ele>
        <time>2018-01-28T08:48:28Z</time>
      </trkpt>
      <trkpt lat="43.71732" lon="3.6177">
        <ele>161.64</ele>
        <time>2018-01-28T08:48:46Z</time>
      </trkpt>
      <trkpt lat="43.71738" lon="3.61797">
        <ele>162.6</ele>
        <time>2018-01-28T08:49:02Z</time>
      </trkpt>
      <trkpt lat="43.71739" lon="3.61808">
        <ele>162.6</ele>
        <time>2018-01-28T08:49:08Z</time>
      </trkpt>
      <trkpt lat="43.71743" lon="3.61831">
        <ele>164.04</ele>
        <time>2018-01-28T08:49:20Z</time>
      </trkpt>
      <trkpt lat="43.7174" lon="3.61867">
        <ele>165</ele>
        <time>2018-01-28T08:49:39Z</time>
      </trkpt>
      <trkpt lat="43.71728" lon="3.61899">
        <ele>166.93</ele>
        <time>2018-01-28T08:49:58Z</time>
      </trkpt>
      <trkpt lat="43.71729" lon="3.61928">
        <ele>167.41</ele>
        <time>2018-01-28T08:50:16Z</time>
      </trkpt>
      <trkpt lat="43.71736" lon="3.61946">
        <ele>166.93</ele>
        <time>2018-01-28T08:50:28Z</time>
      </trkpt>
      <trkpt lat="43.71753" lon="3.61962">
        <ele>167.89</ele>
        <time>2018-01-28T08:50:44Z</time>
      </trkpt>
      <trkpt lat="43.71768" lon="3.61972">
        <ele>168.37</ele>
        <time>2018-01-28T08:50:56Z</time>
      </trkpt>
      <trkpt lat="43.71785" lon="3.61986">
        <ele>170.29</ele>
        <time>2018-01-28T08:51:11Z</time>
      </trkpt>
      <trkpt lat="43.71798" lon="3.61999">
        <ele>171.73</ele>
        <time>2018-01-28T08:51:24Z</time>
      </trkpt>
      <trkpt lat="43.71806" lon="3.62006">
        <ele>174.14</ele>
        <time>2018-01-28T08:51:32Z</time>
      </trkpt>
      <trkpt lat="43.71809" lon="3.62007">
        <ele>174.62</ele>
        <time>2018-01-28T08:51:35Z</time>
      </trkpt>
      <trkpt lat="43.71831" lon="3.62005">
        <ele>177.02</ele>
        <time>2018-01-28T08:51:52Z</time>
      </trkpt>
      <trkpt lat="43.71847" lon="3.62004">
        <ele>177.5</ele>
        <time>2018-01-28T08:52:05Z</time>
      </trkpt>
      <trkpt lat="43.71857" lon="3.62">
        <ele>176.54</ele>
        <time>2018-01-28T08:52:13Z</time>
      </trkpt>
      <trkpt lat="43.71876" lon="3.61995">
        <ele>175.58</ele>
        <time>2018-01-28T08:52:29Z</time>
      </trkpt>
      <trkpt lat="43.7188" lon="3.6199">
        <ele>174.14</ele>
        <time>2018-01-28T08:52:43Z</time>
      </trkpt>
      <trkpt lat="43.7188" lon="3.61989">
        <ele>178.46</ele>
        <time>2018-01-28T08:53:18Z</time>
      </trkpt>
      <trkpt lat="43.71882" lon="3.61991">
        <ele>178.94</ele>
        <time>2018-01-28T08:53:25Z</time>
      </trkpt>
      <trkpt lat="43.71888" lon="3.61993">
        <ele>179.42</ele>
        <time>2018-01-28T08:53:31Z</time>
      </trkpt>
      <trkpt lat="43.71911" lon="3.6199">
        <ele>178.46</ele>
        <time>2018-01-28T08:53:49Z</time>
      </trkpt>
      <trkpt lat="43.71928" lon="3.61987">
        <ele>181.35</ele>
        <time>2018-01-28T08:54:02Z</time>
      </trkpt>
      <trkpt lat="43.71949" lon="3.61982">
        <ele>183.27</ele>
        <time>2018-01-28T08:54:17Z</time>
      </trkpt>
      <trkpt lat="43.7197" lon="3.61978">
        <ele>183.27</ele>
        <time>2018-01-28T08:54:32Z</time>
      </trkpt>
      <trkpt lat="43.7199" lon="3.61971">
        <ele>183.27</ele>
        <time>2018-01-28T08:54:46Z</time>
      </trkpt>
      <trkpt lat="43.72011" lon="3.61966">
        <ele>181.83</ele>
        <time>2018-01-28T08:55:02Z</time>
      </trkpt>
      <trkpt lat="43.72028" lon="3.61978">
        <ele>181.35</ele>
        <time>2018-01-28T08:55:16Z</time>
      </trkpt>
      <trkpt lat="43.72031" lon="3.6198">
        <ele>181.83</ele>
        <time>2018-01-28T08:55:18Z</time>
      </trkpt>
      <trkpt lat="43.72037" lon="3.61984">
        <ele>182.79</ele>
        <time>2018-01-28T08:55:23Z</time>
      </trkpt>
      <trkpt lat="43.72039" lon="3.61985">
        <ele>183.27</ele>
        <time>2018-01-28T08:55:25Z</time>
      </trkpt>
      <trkpt lat="43.72055" lon="3.61993">
        <ele>185.67</ele>
        <time>2018-01-28T08:55:38Z</time>
      </trkpt>
      <trkpt lat="43.72073" lon="3.62006">
        <ele>186.15</ele>
        <time>2018-01-28T08:55:53Z</time>
      </trkpt>
      <trkpt lat="43.72085" lon="3.62012">
        <ele>186.15</ele>
        <time>2018-01-28T08:56:03Z</time>
      </trkpt>
      <trkpt lat="43.72102" lon="3.62026">
        <ele>187.11</ele>
        <time>2018-01-28T08:56:19Z</time>
      </trkpt>
      <trkpt lat="43.72104" lon="3.62027">
        <ele>187.11</ele>
        <time>2018-01-28T08:56:20Z</time>
      </trkpt>
      <trkpt lat="43.72125" lon="3.62041">
        <ele>187.59</ele>
        <time>2018-01-28T08:56:37Z</time>
      </trkpt>
      <trkpt lat="43.72143" lon="3.62052">
        <ele>187.59</ele>
        <time>2018-01-28T08:56:52Z</time>
      </trkpt>
      <trkpt lat="43.72161" lon="3.62062">
        <ele>188.56</ele>
        <time>2018-01-28T08:57:07Z</time>
      </trkpt>
      <trkpt lat="43.72181" lon="3.62073">
        <ele>189.04</ele>
        <time>2018-01-28T08:57:23Z</time>
      </trkpt>
      <trkpt lat="43.72201" lon="3.62084">
        <ele>190.96</ele>
        <time>2018-01-28T08:57:40Z</time>
      </trkpt>
      <trkpt lat="43.72218" lon="3.62093">
        <ele>192.4</ele>
        <time>2018-01-28T08:57:55Z</time>
      </trkpt>
      <trkpt lat="43.72239" lon="3.62104">
        <ele>193.84</ele>
        <time>2018-01-28T08:58:12Z</time>
      </trkpt>
      <trkpt lat="43.72246" lon="3.62105">
        <ele>197.69</ele>
        <time>2018-01-28T08:58:20Z</time>
      </trkpt>
      <trkpt lat="43.72258" lon="3.62113">
        <ele>199.13</ele>
        <time>2018-01-28T08:58:32Z</time>
      </trkpt>
      <trkpt lat="43.7226" lon="3.62113">
        <ele>199.61</ele>
        <time>2018-01-28T08:58:34Z</time>
      </trkpt>
      <trkpt lat="43.72265" lon="3.62117">
        <ele>201.05</ele>
        <time>2018-01-28T08:58:49Z</time>
      </trkpt>
      <trkpt lat="43.72277" lon="3.62124">
        <ele>202.01</ele>
        <time>2018-01-28T08:59:04Z</time>
      </trkpt>
      <trkpt lat="43.72289" lon="3.62133">
        <ele>202.01</ele>
        <time>2018-01-28T08:59:16Z</time>
      </trkpt>
      <trkpt lat="43.72305" lon="3.62139">
        <ele>202.98</ele>
        <time>2018-01-28T08:59:30Z</time>
      </trkpt>
      <trkpt lat="43.7231" lon="3.62142">
        <ele>205.86</ele>
        <time>2018-01-28T08:59:46Z</time>
      </trkpt>
      <trkpt lat="43.72314" lon="3.62146">
        <ele>205.86</ele>
        <time>2018-01-28T09:00:02Z</time>
      </trkpt>
      <trkpt lat="43.72314" lon="3.62145">
        <ele>206.34</ele>
        <time>2018-01-28T09:00:12Z</time>
      </trkpt>
      <trkpt lat="43.72324" lon="3.62172">
        <ele>207.3</ele>
        <time>2018-01-28T09:00:30Z</time>
      </trkpt>
      <trkpt lat="43.7234" lon="3.62196">
        <ele>207.78</ele>
        <time>2018-01-28T09:00:48Z</time>
      </trkpt>
      <trkpt lat="43.72341" lon="3.622">
        <ele>209.22</ele>
        <time>2018-01-28T09:01:01Z</time>
      </trkpt>
      <trkpt lat="43.72341" lon="3.62201">
        <ele>208.74</ele>
        <time>2018-01-28T09:01:12Z</time>
      </trkpt>
      <trkpt lat="43.72331" lon="3.6222">
        <ele>208.26</ele>
        <time>2018-01-28T09:01:28Z</time>
      </trkpt>
      <trkpt lat="43.72324" lon="3.62248">
        <ele>209.22</ele>
        <time>2018-01-28T09:01:44Z</time>
      </trkpt>
      <trkpt lat="43.7233" lon="3.62282">
        <ele>209.22</ele>
        <time>2018-01-28T09:02:02Z</time>
      </trkpt>
      <trkpt lat="43.72339" lon="3.62315">
        <ele>211.15</ele>
        <time>2018-01-28T09:02:20Z</time>
      </trkpt>
      <trkpt lat="43.72349" lon="3.62346">
        <ele>211.63</ele>
        <time>2018-01-28T09:02:37Z</time>
      </trkpt>
      <trkpt lat="43.72368" lon="3.62367">
        <ele>211.15</ele>
        <time>2018-01-28T09:02:54Z</time>
      </trkpt>
      <trkpt lat="43.72385" lon="3.62388">
        <ele>208.74</ele>
        <time>2018-01-28T09:03:09Z</time>
      </trkpt>
      <trkpt lat="43.72392" lon="3.62416">
        <ele>207.78</ele>
        <time>2018-01-28T09:03:24Z</time>
      </trkpt>
      <trkpt lat="43.72395" lon="3.6243">
        <ele>208.74</ele>
        <time>2018-01-28T09:03:32Z</time>
      </trkpt>
      <trkpt lat="43.72402" lon="3.62445">
        <ele>210.67</ele>
        <time>2018-01-28T09:03:42Z</time>
      </trkpt>
      <trkpt lat="43.72412" lon="3.62472">
        <ele>214.99</ele>
        <time>2018-01-28T09:03:59Z</time>
      </trkpt>
      <trkpt lat="43.7242" lon="3.62491">
        <ele>216.43</ele>
        <time>2018-01-28T09:04:11Z</time>
      </trkpt>
      <trkpt lat="43.7243" lon="3.62508">
        <ele>219.8</ele>
        <time>2018-01-28T09:04:24Z</time>
      </trkpt>
      <trkpt lat="43.72435" lon="3.62515">
        <ele>221.24</ele>
        <time>2018-01-28T09:04:30Z</time>
      </trkpt>
      <trkpt lat="43.72443" lon="3.62524">
        <ele>223.64</ele>
        <time>2018-01-28T09:04:38Z</time>
      </trkpt>
      <trkpt lat="43.72457" lon="3.6254">
        <ele>224.61</ele>
        <time>2018-01-28T09:04:52Z</time>
      </trkpt>
      <trkpt lat="43.72464" lon="3.62554">
        <ele>225.57</ele>
        <time>2018-01-28T09:05:02Z</time>
      </trkpt>
      <trkpt lat="43.7247" lon="3.62564">
        <ele>227.01</ele>
        <time>2018-01-28T09:05:09Z</time>
      </trkpt>
      <trkpt lat="43.7248" lon="3.6258">
        <ele>230.85</ele>
        <time>2018-01-28T09:05:22Z</time>
      </trkpt>
      <trkpt lat="43.72489" lon="3.62594">
        <ele>233.74</ele>
        <time>2018-01-28T09:05:33Z</time>
      </trkpt>
      <trkpt lat="43.725" lon="3.62609">
        <ele>236.62</ele>
        <time>2018-01-28T09:05:46Z</time>
      </trkpt>
      <trkpt lat="43.72511" lon="3.62621">
        <ele>238.06</ele>
        <time>2018-01-28T09:05:58Z</time>
      </trkpt>
      <trkpt lat="43.72524" lon="3.62638">
        <ele>236.62</ele>
        <time>2018-01-28T09:06:11Z</time>
      </trkpt>
      <trkpt lat="43.72536" lon="3.62653">
        <ele>236.62</ele>
        <time>2018-01-28T09:06:24Z</time>
      </trkpt>
      <trkpt lat="43.72542" lon="3.62679">
        <ele>235.66</ele>
        <time>2018-01-28T09:06:41Z</time>
      </trkpt>
      <trkpt lat="43.72546" lon="3.62699">
        <ele>236.14</ele>
        <time>2018-01-28T09:06:54Z</time>
      </trkpt>
      <trkpt lat="43.7255" lon="3.62714">
        <ele>236.14</ele>
        <time>2018-01-28T09:07:03Z</time>
      </trkpt>
      <trkpt lat="43.72547" lon="3.6274">
        <ele>234.7</ele>
        <time>2018-01-28T09:07:18Z</time>
      </trkpt>
      <trkpt lat="43.72548" lon="3.6275">
        <ele>235.18</ele>
        <time>2018-01-28T09:07:25Z</time>
      </trkpt>
      <trkpt lat="43.72556" lon="3.6277">
        <ele>236.62</ele>
        <time>2018-01-28T09:07:40Z</time>
      </trkpt>
      <trkpt lat="43.72561" lon="3.62779">
        <ele>237.58</ele>
        <time>2018-01-28T09:07:47Z</time>
      </trkpt>
      <trkpt lat="43.72569" lon="3.62797">
        <ele>238.54</ele>
        <time>2018-01-28T09:08:00Z</time>
      </trkpt>
      <trkpt lat="43.72579" lon="3.62822">
        <ele>239.99</ele>
        <time>2018-01-28T09:08:16Z</time>
      </trkpt>
      <trkpt lat="43.72587" lon="3.62848">
        <ele>241.43</ele>
        <time>2018-01-28T09:08:33Z</time>
      </trkpt>
      <trkpt lat="43.72589" lon="3.62856">
        <ele>241.91</ele>
        <time>2018-01-28T09:08:38Z</time>
      </trkpt>
      <trkpt lat="43.72591" lon="3.62881">
        <ele>242.39</ele>
        <time>2018-01-28T09:08:52Z</time>
      </trkpt>
      <trkpt lat="43.72603" lon="3.62901">
        <ele>243.83</ele>
        <time>2018-01-28T09:09:08Z</time>
      </trkpt>
      <trkpt lat="43.72622" lon="3.62914">
        <ele>244.79</ele>
        <time>2018-01-28T09:09:25Z</time>
      </trkpt>
      <trkpt lat="43.72623" lon="3.62915">
        <ele>244.79</ele>
        <time>2018-01-28T09:09:26Z</time>
      </trkpt>
      <trkpt lat="43.72628" lon="3.62916">
        <ele>244.79</ele>
        <time>2018-01-28T09:09:30Z</time>
      </trkpt>
      <trkpt lat="43.72645" lon="3.62923">
        <ele>244.31</ele>
        <time>2018-01-28T09:09:46Z</time>
      </trkpt>
      <trkpt lat="43.72658" lon="3.62931">
        <ele>248.64</ele>
        <time>2018-01-28T09:10:03Z</time>
      </trkpt>
      <trkpt lat="43.72668" lon="3.62938">
        <ele>253.44</ele>
        <time>2018-01-28T09:10:19Z</time>
      </trkpt>
      <trkpt lat="43.72678" lon="3.62949">
        <ele>257.77</ele>
        <time>2018-01-28T09:10:36Z</time>
      </trkpt>
      <trkpt lat="43.72684" lon="3.62954">
        <ele>260.17</ele>
        <time>2018-01-28T09:10:46Z</time>
      </trkpt>
      <trkpt lat="43.72694" lon="3.62964">
        <ele>264.02</ele>
        <time>2018-01-28T09:11:04Z</time>
      </trkpt>
      <trkpt lat="43.72704" lon="3.62973">
        <ele>268.35</ele>
        <time>2018-01-28T09:11:19Z</time>
      </trkpt>
      <trkpt lat="43.72713" lon="3.62984">
        <ele>272.67</ele>
        <time>2018-01-28T09:11:34Z</time>
      </trkpt>
      <trkpt lat="43.72721" lon="3.62996">
        <ele>277.48</ele>
        <time>2018-01-28T09:11:48Z</time>
      </trkpt>
      <trkpt lat="43.72728" lon="3.6301">
        <ele>280.84</ele>
        <time>2018-01-28T09:12:03Z</time>
      </trkpt>
      <trkpt lat="43.72735" lon="3.6302">
        <ele>281.8</ele>
        <time>2018-01-28T09:12:14Z</time>
      </trkpt>
      <trkpt lat="43.72749" lon="3.63031">
        <ele>279.4</ele>
        <time>2018-01-28T09:12:30Z</time>
      </trkpt>
      <trkpt lat="43.72751" lon="3.63032">
        <ele>279.4</ele>
        <time>2018-01-28T09:12:32Z</time>
      </trkpt>
      <trkpt lat="43.72763" lon="3.63045">
        <ele>281.8</ele>
        <time>2018-01-28T09:12:49Z</time>
      </trkpt>
      <trkpt lat="43.72766" lon="3.6305">
        <ele>283.73</ele>
        <time>2018-01-28T09:12:55Z</time>
      </trkpt>
      <trkpt lat="43.72769" lon="3.63056">
        <ele>285.17</ele>
        <time>2018-01-28T09:13:01Z</time>
      </trkpt>
      <trkpt lat="43.72774" lon="3.6306">
        <ele>286.13</ele>
        <time>2018-01-28T09:13:07Z</time>
      </trkpt>
      <trkpt lat="43.72788" lon="3.63066">
        <ele>289.49</ele>
        <time>2018-01-28T09:13:20Z</time>
      </trkpt>
      <trkpt lat="43.72797" lon="3.63078">
        <ele>292.86</ele>
        <time>2018-01-28T09:13:33Z</time>
      </trkpt>
      <trkpt lat="43.72798" lon="3.6308">
        <ele>293.82</ele>
        <time>2018-01-28T09:13:35Z</time>
      </trkpt>
      <trkpt lat="43.728" lon="3.63087">
        <ele>296.22</ele>
        <time>2018-01-28T09:13:41Z</time>
      </trkpt>
      <trkpt lat="43.7281" lon="3.63116">
        <ele>301.51</ele>
        <time>2018-01-28T09:14:00Z</time>
      </trkpt>
      <trkpt lat="43.72818" lon="3.63129">
        <ele>300.55</ele>
        <time>2018-01-28T09:14:11Z</time>
      </trkpt>
      <trkpt lat="43.72831" lon="3.63148">
        <ele>300.07</ele>
        <time>2018-01-28T09:14:27Z</time>
      </trkpt>
      <trkpt lat="43.72831" lon="3.63151">
        <ele>299.59</ele>
        <time>2018-01-28T09:14:29Z</time>
      </trkpt>
      <trkpt lat="43.72833" lon="3.63162">
        <ele>299.11</ele>
        <time>2018-01-28T09:14:37Z</time>
      </trkpt>
      <trkpt lat="43.72837" lon="3.63163">
        <ele>298.63</ele>
        <time>2018-01-28T09:14:42Z</time>
      </trkpt>
      <trkpt lat="43.72842" lon="3.63162">
        <ele>298.15</ele>
        <time>2018-01-28T09:14:47Z</time>
      </trkpt>
      <trkpt lat="43.72858" lon="3.63168">
        <ele>296.22</ele>
        <time>2018-01-28T09:15:02Z</time>
      </trkpt>
      <trkpt lat="43.72865" lon="3.63172">
        <ele>296.22</ele>
        <time>2018-01-28T09:15:10Z</time>
      </trkpt>
      <trkpt lat="43.72873" lon="3.63168">
        <ele>296.22</ele>
        <time>2018-01-28T09:15:19Z</time>
      </trkpt>
      <trkpt lat="43.72891" lon="3.63162">
        <ele>295.74</ele>
        <time>2018-01-28T09:15:37Z</time>
      </trkpt>
      <trkpt lat="43.72909" lon="3.63162">
        <ele>296.7</ele>
        <time>2018-01-28T09:15:54Z</time>
      </trkpt>
      <trkpt lat="43.72921" lon="3.63167">
        <ele>297.18</ele>
        <time>2018-01-28T09:16:06Z</time>
      </trkpt>
      <trkpt lat="43.72925" lon="3.63168">
        <ele>297.18</ele>
        <time>2018-01-28T09:16:10Z</time>
      </trkpt>
      <trkpt lat="43.72944" lon="3.63169">
        <ele>297.18</ele>
        <time>2018-01-28T09:16:26Z</time>
      </trkpt>
      <trkpt lat="43.72958" lon="3.63185">
        <ele>298.63</ele>
        <time>2018-01-28T09:16:41Z</time>
      </trkpt>
      <trkpt lat="43.72968" lon="3.63204">
        <ele>299.11</ele>
        <time>2018-01-28T09:16:56Z</time>
      </trkpt>
      <trkpt lat="43.72977" lon="3.63235">
        <ele>300.07</ele>
        <time>2018-01-28T09:17:14Z</time>
      </trkpt>
      <trkpt lat="43.72977" lon="3.63262">
        <ele>300.07</ele>
        <time>2018-01-28T09:17:28Z</time>
      </trkpt>
      <trkpt lat="43.72983" lon="3.63285">
        <ele>300.07</ele>
        <time>2018-01-28T09:17:42Z</time>
      </trkpt>
      <trkpt lat="43.72997" lon="3.63303">
        <ele>301.03</ele>
        <time>2018-01-28T09:17:56Z</time>
      </trkpt>
      <trkpt lat="43.73013" lon="3.63317">
        <ele>301.51</ele>
        <time>2018-01-28T09:18:11Z</time>
      </trkpt>
      <trkpt lat="43.73014" lon="3.63324">
        <ele>301.51</ele>
        <time>2018-01-28T09:18:15Z</time>
      </trkpt>
      <trkpt lat="43.73023" lon="3.63332">
        <ele>301.51</ele>
        <time>2018-01-28T09:18:24Z</time>
      </trkpt>
      <trkpt lat="43.73037" lon="3.633">
        <ele>301.03</ele>
        <time>2018-01-28T09:18:44Z</time>
      </trkpt>
      <trkpt lat="43.73042" lon="3.63293">
        <ele>301.99</ele>
        <time>2018-01-28T09:18:58Z</time>
      </trkpt>
      <trkpt lat="43.73041" lon="3.63292">
        <ele>303.43</ele>
        <time>2018-01-28T09:19:12Z</time>
      </trkpt>
      <trkpt lat="43.73042" lon="3.63294">
        <ele>303.91</ele>
        <time>2018-01-28T09:19:26Z</time>
      </trkpt>
      <trkpt lat="43.73042" lon="3.63294">
        <ele>301.51</ele>
        <time>2018-01-28T09:19:48Z</time>
      </trkpt>
      <trkpt lat="43.73042" lon="3.63294">
        <ele>302.47</ele>
        <time>2018-01-28T09:20:06Z</time>
      </trkpt>
      <trkpt lat="43.73042" lon="3.63296">
        <ele>301.99</ele>
        <time>2018-01-28T09:20:35Z</time>
      </trkpt>
      <trkpt lat="43.73041" lon="3.63295">
        <ele>302.47</ele>
        <time>2018-01-28T09:20:53Z</time>
      </trkpt>
      <trkpt lat="43.73042" lon="3.63294">
        <ele>302.47</ele>
        <time>2018-01-28T09:21:22Z</time>
      </trkpt>
      <trkpt lat="43.73043" lon="3.63296">
        <ele>306.8</ele>
        <time>2018-01-28T09:21:54Z</time>
      </trkpt>
      <trkpt lat="43.73044" lon="3.63298">
        <ele>308.72</ele>
        <time>2018-01-28T09:22:31Z</time>
      </trkpt>
      <trkpt lat="43.73041" lon="3.63291">
        <ele>306.32</ele>
        <time>2018-01-28T09:23:02Z</time>
      </trkpt>
      <trkpt lat="43.7304" lon="3.63289">
        <ele>305.36</ele>
        <time>2018-01-28T09:23:25Z</time>
      </trkpt>
      <trkpt lat="43.73044" lon="3.63293">
        <ele>304.88</ele>
        <time>2018-01-28T09:23:41Z</time>
      </trkpt>
      <trkpt lat="43.73044" lon="3.63285">
        <ele>303.91</ele>
        <time>2018-01-28T09:23:50Z</time>
      </trkpt>
      <trkpt lat="43.73047" lon="3.63255">
        <ele>303.43</ele>
        <time>2018-01-28T09:24:08Z</time>
      </trkpt>
      <trkpt lat="43.73041" lon="3.63225">
        <ele>301.51</ele>
        <time>2018-01-28T09:24:24Z</time>
      </trkpt>
      <trkpt lat="43.73036" lon="3.63196">
        <ele>302.95</ele>
        <time>2018-01-28T09:24:40Z</time>
      </trkpt>
      <trkpt lat="43.73047" lon="3.63163">
        <ele>302.95</ele>
        <time>2018-01-28T09:24:59Z</time>
      </trkpt>
      <trkpt lat="43.73063" lon="3.63135">
        <ele>301.99</ele>
        <time>2018-01-28T09:25:18Z</time>
      </trkpt>
      <trkpt lat="43.73072" lon="3.63102">
        <ele>302.47</ele>
        <time>2018-01-28T09:25:36Z</time>
      </trkpt>
      <trkpt lat="43.73081" lon="3.63072">
        <ele>301.03</ele>
        <time>2018-01-28T09:25:52Z</time>
      </trkpt>
      <trkpt lat="43.73095" lon="3.63043">
        <ele>302.47</ele>
        <time>2018-01-28T09:26:10Z</time>
      </trkpt>
      <trkpt lat="43.73099" lon="3.6303">
        <ele>302.47</ele>
        <time>2018-01-28T09:26:18Z</time>
      </trkpt>
      <trkpt lat="43.73102" lon="3.63021">
        <ele>301.99</ele>
        <time>2018-01-28T09:26:23Z</time>
      </trkpt>
      <trkpt lat="43.73103" lon="3.62987">
        <ele>301.51</ele>
        <time>2018-01-28T09:26:40Z</time>
      </trkpt>
      <trkpt lat="43.73102" lon="3.62958">
        <ele>302.47</ele>
        <time>2018-01-28T09:26:56Z</time>
      </trkpt>
      <trkpt lat="43.73094" lon="3.62926">
        <ele>303.91</ele>
        <time>2018-01-28T09:27:13Z</time>
      </trkpt>
      <trkpt lat="43.73085" lon="3.62895">
        <ele>305.84</ele>
        <time>2018-01-28T09:27:31Z</time>
      </trkpt>
      <trkpt lat="43.73079" lon="3.62866">
        <ele>306.8</ele>
        <time>2018-01-28T09:27:47Z</time>
      </trkpt>
      <trkpt lat="43.73077" lon="3.62847">
        <ele>307.76</ele>
        <time>2018-01-28T09:27:58Z</time>
      </trkpt>
      <trkpt lat="43.73078" lon="3.62842">
        <ele>307.76</ele>
        <time>2018-01-28T09:28:02Z</time>
      </trkpt>
      <trkpt lat="43.73074" lon="3.62811">
        <ele>307.76</ele>
        <time>2018-01-28T09:28:18Z</time>
      </trkpt>
      <trkpt lat="43.73067" lon="3.62778">
        <ele>310.64</ele>
        <time>2018-01-28T09:28:35Z</time>
      </trkpt>
      <trkpt lat="43.73061" lon="3.62754">
        <ele>310.64</ele>
        <time>2018-01-28T09:28:48Z</time>
      </trkpt>
      <trkpt lat="43.73045" lon="3.62732">
        <ele>312.57</ele>
        <time>2018-01-28T09:29:04Z</time>
      </trkpt>
      <trkpt lat="43.73029" lon="3.62709">
        <ele>313.05</ele>
        <time>2018-01-28T09:29:21Z</time>
      </trkpt>
      <trkpt lat="43.73029" lon="3.62673">
        <ele>312.09</ele>
        <time>2018-01-28T09:29:40Z</time>
      </trkpt>
      <trkpt lat="43.7303" lon="3.62642">
        <ele>311.12</ele>
        <time>2018-01-28T09:29:56Z</time>
      </trkpt>
      <trkpt lat="43.73048" lon="3.62634">
        <ele>311.12</ele>
        <time>2018-01-28T09:30:12Z</time>
      </trkpt>
      <trkpt lat="43.73062" lon="3.62639">
        <ele>313.05</ele>
        <time>2018-01-28T09:30:26Z</time>
      </trkpt>
      <trkpt lat="43.73064" lon="3.62641">
        <ele>314.01</ele>
        <time>2018-01-28T09:30:45Z</time>
      </trkpt>
      <trkpt lat="43.7308" lon="3.62638">
        <ele>313.53</ele>
        <time>2018-01-28T09:31:01Z</time>
      </trkpt>
      <trkpt lat="43.73084" lon="3.62638">
        <ele>313.05</ele>
        <time>2018-01-28T09:31:05Z</time>
      </trkpt>
      <trkpt lat="43.73085" lon="3.62636">
        <ele>313.05</ele>
        <time>2018-01-28T09:31:07Z</time>
      </trkpt>
      <trkpt lat="43.731" lon="3.6263">
        <ele>312.57</ele>
        <time>2018-01-28T09:31:21Z</time>
      </trkpt>
      <trkpt lat="43.73109" lon="3.6262">
        <ele>313.05</ele>
        <time>2018-01-28T09:31:37Z</time>
      </trkpt>
      <trkpt lat="43.73108" lon="3.62618">
        <ele>314.49</ele>
        <time>2018-01-28T09:32:10Z</time>
      </trkpt>
      <trkpt lat="43.73109" lon="3.62618">
        <ele>311.6</ele>
        <time>2018-01-28T09:32:35Z</time>
      </trkpt>
      <trkpt lat="43.73109" lon="3.62621">
        <ele>313.05</ele>
        <time>2018-01-28T09:32:54Z</time>
      </trkpt>
      <trkpt lat="43.73111" lon="3.6262">
        <ele>312.57</ele>
        <time>2018-01-28T09:33:09Z</time>
      </trkpt>
      <trkpt lat="43.73116" lon="3.62617">
        <ele>312.57</ele>
        <time>2018-01-28T09:33:13Z</time>
      </trkpt>
      <trkpt lat="43.73119" lon="3.62614">
        <ele>312.57</ele>
        <time>2018-01-28T09:33:16Z</time>
      </trkpt>
      <trkpt lat="43.73127" lon="3.62613">
        <ele>314.01</ele>
        <time>2018-01-28T09:33:22Z</time>
      </trkpt>
      <trkpt lat="43.73133" lon="3.6261">
        <ele>314.01</ele>
        <time>2018-01-28T09:33:27Z</time>
      </trkpt>
      <trkpt lat="43.73139" lon="3.62612">
        <ele>314.97</ele>
        <time>2018-01-28T09:33:32Z</time>
      </trkpt>
      <trkpt lat="43.73143" lon="3.62615">
        <ele>315.45</ele>
        <time>2018-01-28T09:33:36Z</time>
      </trkpt>
      <trkpt lat="43.73165" lon="3.62616">
        <ele>317.37</ele>
        <time>2018-01-28T09:33:53Z</time>
      </trkpt>
      <trkpt lat="43.73173" lon="3.62615">
        <ele>316.89</ele>
        <time>2018-01-28T09:33:59Z</time>
      </trkpt>
      <trkpt lat="43.7318" lon="3.62615">
        <ele>317.37</ele>
        <time>2018-01-28T09:34:04Z</time>
      </trkpt>
      <trkpt lat="43.73193" lon="3.62615">
        <ele>316.41</ele>
        <time>2018-01-28T09:34:12Z</time>
      </trkpt>
      <trkpt lat="43.73214" lon="3.62618">
        <ele>318.81</ele>
        <time>2018-01-28T09:34:28Z</time>
      </trkpt>
      <trkpt lat="43.73231" lon="3.62626">
        <ele>319.78</ele>
        <time>2018-01-28T09:34:43Z</time>
      </trkpt>
      <trkpt lat="43.7323" lon="3.62631">
        <ele>321.22</ele>
        <time>2018-01-28T09:34:54Z</time>
      </trkpt>
      <trkpt lat="43.73232" lon="3.62631">
        <ele>320.26</ele>
        <time>2018-01-28T09:35:11Z</time>
      </trkpt>
      <trkpt lat="43.73229" lon="3.6263">
        <ele>318.81</ele>
        <time>2018-01-28T09:35:41Z</time>
      </trkpt>
      <trkpt lat="43.7323" lon="3.62629">
        <ele>319.3</ele>
        <time>2018-01-28T09:36:09Z</time>
      </trkpt>
      <trkpt lat="43.73232" lon="3.62624">
        <ele>318.81</ele>
        <time>2018-01-28T09:36:31Z</time>
      </trkpt>
      <trkpt lat="43.73233" lon="3.62623">
        <ele>318.81</ele>
        <time>2018-01-28T09:36:33Z</time>
      </trkpt>
      <trkpt lat="43.73239" lon="3.62623">
        <ele>318.33</ele>
        <time>2018-01-28T09:36:38Z</time>
      </trkpt>
      <trkpt lat="43.7326" lon="3.6263">
        <ele>317.37</ele>
        <time>2018-01-28T09:36:54Z</time>
      </trkpt>
      <trkpt lat="43.73261" lon="3.62631">
        <ele>316.89</ele>
        <time>2018-01-28T09:36:55Z</time>
      </trkpt>
      <trkpt lat="43.73264" lon="3.62632">
        <ele>316.89</ele>
        <time>2018-01-28T09:36:57Z</time>
      </trkpt>
      <trkpt lat="43.7327" lon="3.62635">
        <ele>317.37</ele>
        <time>2018-01-28T09:37:02Z</time>
      </trkpt>
      <trkpt lat="43.73279" lon="3.62639">
        <ele>318.33</ele>
        <time>2018-01-28T09:37:09Z</time>
      </trkpt>
      <trkpt lat="43.73304" lon="3.62636">
        <ele>319.3</ele>
        <time>2018-01-28T09:37:26Z</time>
      </trkpt>
      <trkpt lat="43.73313" lon="3.62629">
        <ele>319.78</ele>
        <time>2018-01-28T09:37:33Z</time>
      </trkpt>
      <trkpt lat="43.73321" lon="3.62603">
        <ele>317.85</ele>
        <time>2018-01-28T09:37:47Z</time>
      </trkpt>
      <trkpt lat="43.73319" lon="3.62573">
        <ele>316.89</ele>
        <time>2018-01-28T09:38:02Z</time>
      </trkpt>
      <trkpt lat="43.73321" lon="3.62558">
        <ele>315.93</ele>
        <time>2018-01-28T09:38:10Z</time>
      </trkpt>
      <trkpt lat="43.73325" lon="3.62553">
        <ele>314.97</ele>
        <time>2018-01-28T09:38:14Z</time>
      </trkpt>
      <trkpt lat="43.7333" lon="3.62548">
        <ele>315.45</ele>
        <time>2018-01-28T09:38:18Z</time>
      </trkpt>
      <trkpt lat="43.73333" lon="3.6254">
        <ele>315.45</ele>
        <time>2018-01-28T09:38:22Z</time>
      </trkpt>
      <trkpt lat="43.73353" lon="3.6252">
        <ele>317.37</ele>
        <time>2018-01-28T09:38:39Z</time>
      </trkpt>
      <trkpt lat="43.73373" lon="3.62511">
        <ele>315.45</ele>
        <time>2018-01-28T09:38:55Z</time>
      </trkpt>
      <trkpt lat="43.73395" lon="3.62512">
        <ele>318.33</ele>
        <time>2018-01-28T09:39:11Z</time>
      </trkpt>
      <trkpt lat="43.73399" lon="3.62513">
        <ele>318.33</ele>
        <time>2018-01-28T09:39:14Z</time>
      </trkpt>
      <trkpt lat="43.73405" lon="3.62518">
        <ele>317.85</ele>
        <time>2018-01-28T09:39:20Z</time>
      </trkpt>
      <trkpt lat="43.7341" lon="3.62522">
        <ele>317.85</ele>
        <time>2018-01-28T09:39:24Z</time>
      </trkpt>
      <trkpt lat="43.73421" lon="3.62535">
        <ele>317.85</ele>
        <time>2018-01-28T09:39:35Z</time>
      </trkpt>
      <trkpt lat="43.73439" lon="3.62549">
        <ele>320.26</ele>
        <time>2018-01-28T09:39:52Z</time>
      </trkpt>
      <trkpt lat="43.73455" lon="3.62558">
        <ele>321.7</ele>
        <time>2018-01-28T09:40:05Z</time>
      </trkpt>
      <trkpt lat="43.73458" lon="3.62559">
        <ele>322.18</ele>
        <time>2018-01-28T09:40:07Z</time>
      </trkpt>
      <trkpt lat="43.73463" lon="3.62561">
        <ele>322.66</ele>
        <time>2018-01-28T09:40:11Z</time>
      </trkpt>
      <trkpt lat="43.73467" lon="3.62562">
        <ele>323.14</ele>
        <time>2018-01-28T09:40:14Z</time>
      </trkpt>
      <trkpt lat="43.73476" lon="3.62565">
        <ele>323.14</ele>
        <time>2018-01-28T09:40:21Z</time>
      </trkpt>
      <trkpt lat="43.73482" lon="3.62566">
        <ele>323.62</ele>
        <time>2018-01-28T09:40:25Z</time>
      </trkpt>
      <trkpt lat="43.7349" lon="3.62571">
        <ele>325.06</ele>
        <time>2018-01-28T09:40:31Z</time>
      </trkpt>
      <trkpt lat="43.73503" lon="3.62581">
        <ele>327.95</ele>
        <time>2018-01-28T09:40:41Z</time>
      </trkpt>
      <trkpt lat="43.73517" lon="3.62589">
        <ele>328.43</ele>
        <time>2018-01-28T09:40:52Z</time>
      </trkpt>
      <trkpt lat="43.73539" lon="3.62591">
        <ele>330.83</ele>
        <time>2018-01-28T09:41:08Z</time>
      </trkpt>
      <trkpt lat="43.73561" lon="3.62593">
        <ele>328.43</ele>
        <time>2018-01-28T09:41:23Z</time>
      </trkpt>
      <trkpt lat="43.73578" lon="3.62594">
        <ele>327.95</ele>
        <time>2018-01-28T09:41:35Z</time>
      </trkpt>
      <trkpt lat="43.73596" lon="3.62575">
        <ele>326.99</ele>
        <time>2018-01-28T09:41:52Z</time>
      </trkpt>
      <trkpt lat="43.73613" lon="3.62572">
        <ele>329.39</ele>
        <time>2018-01-28T09:42:05Z</time>
      </trkpt>
      <trkpt lat="43.73618" lon="3.62571">
        <ele>329.87</ele>
        <time>2018-01-28T09:42:09Z</time>
      </trkpt>
      <trkpt lat="43.73638" lon="3.62565">
        <ele>331.31</ele>
        <time>2018-01-28T09:42:25Z</time>
      </trkpt>
      <trkpt lat="43.73655" lon="3.62562">
        <ele>332.75</ele>
        <time>2018-01-28T09:42:40Z</time>
      </trkpt>
      <trkpt lat="43.73662" lon="3.62574">
        <ele>333.71</ele>
        <time>2018-01-28T09:42:55Z</time>
      </trkpt>
      <trkpt lat="43.73661" lon="3.62573">
        <ele>336.12</ele>
        <time>2018-01-28T09:43:21Z</time>
      </trkpt>
      <trkpt lat="43.73664" lon="3.62567">
        <ele>336.12</ele>
        <time>2018-01-28T09:43:29Z</time>
      </trkpt>
      <trkpt lat="43.73674" lon="3.62555">
        <ele>338.04</ele>
        <time>2018-01-28T09:43:44Z</time>
      </trkpt>
      <trkpt lat="43.73673" lon="3.62554">
        <ele>339</ele>
        <time>2018-01-28T09:44:05Z</time>
      </trkpt>
      <trkpt lat="43.73671" lon="3.62554">
        <ele>338.52</ele>
        <time>2018-01-28T09:44:36Z</time>
      </trkpt>
      <trkpt lat="43.73672" lon="3.62553">
        <ele>339.96</ele>
        <time>2018-01-28T09:45:04Z</time>
      </trkpt>
      <trkpt lat="43.73673" lon="3.62551">
        <ele>339.48</ele>
        <time>2018-01-28T09:45:07Z</time>
      </trkpt>
      <trkpt lat="43.73678" lon="3.62545">
        <ele>338.04</ele>
        <time>2018-01-28T09:45:13Z</time>
      </trkpt>
      <trkpt lat="43.73688" lon="3.62539">
        <ele>336.6</ele>
        <time>2018-01-28T09:45:21Z</time>
      </trkpt>
      <trkpt lat="43.73704" lon="3.62518">
        <ele>332.75</ele>
        <time>2018-01-28T09:45:38Z</time>
      </trkpt>
      <trkpt lat="43.73715" lon="3.62487">
        <ele>331.79</ele>
        <time>2018-01-28T09:45:56Z</time>
      </trkpt>
      <trkpt lat="43.73728" lon="3.62466">
        <ele>334.2</ele>
        <time>2018-01-28T09:46:13Z</time>
      </trkpt>
      <trkpt lat="43.73732" lon="3.62454">
        <ele>334.2</ele>
        <time>2018-01-28T09:46:28Z</time>
      </trkpt>
      <trkpt lat="43.73738" lon="3.62438">
        <ele>334.68</ele>
        <time>2018-01-28T09:46:44Z</time>
      </trkpt>
      <trkpt lat="43.73747" lon="3.62405">
        <ele>335.16</ele>
        <time>2018-01-28T09:47:03Z</time>
      </trkpt>
      <trkpt lat="43.73763" lon="3.62383">
        <ele>337.08</ele>
        <time>2018-01-28T09:47:20Z</time>
      </trkpt>
      <trkpt lat="43.7378" lon="3.62365">
        <ele>337.56</ele>
        <time>2018-01-28T09:47:36Z</time>
      </trkpt>
      <trkpt lat="43.73792" lon="3.62336">
        <ele>337.08</ele>
        <time>2018-01-28T09:47:54Z</time>
      </trkpt>
      <trkpt lat="43.73794" lon="3.62297">
        <ele>337.08</ele>
        <time>2018-01-28T09:48:14Z</time>
      </trkpt>
      <trkpt lat="43.73789" lon="3.62259">
        <ele>334.68</ele>
        <time>2018-01-28T09:48:33Z</time>
      </trkpt>
      <trkpt lat="43.73771" lon="3.62231">
        <ele>331.31</ele>
        <time>2018-01-28T09:48:52Z</time>
      </trkpt>
      <trkpt lat="43.7375" lon="3.62215">
        <ele>328.43</ele>
        <time>2018-01-28T09:49:09Z</time>
      </trkpt>
      <trkpt lat="43.73729" lon="3.62198">
        <ele>326.5</ele>
        <time>2018-01-28T09:49:27Z</time>
      </trkpt>
      <trkpt lat="43.73708" lon="3.62171">
        <ele>326.02</ele>
        <time>2018-01-28T09:49:47Z</time>
      </trkpt>
      <trkpt lat="43.73688" lon="3.62147">
        <ele>324.58</ele>
        <time>2018-01-28T09:50:06Z</time>
      </trkpt>
      <trkpt lat="43.73661" lon="3.62128">
        <ele>322.18</ele>
        <time>2018-01-28T09:50:28Z</time>
      </trkpt>
      <trkpt lat="43.73638" lon="3.62117">
        <ele>320.74</ele>
        <time>2018-01-28T09:50:45Z</time>
      </trkpt>
      <trkpt lat="43.73618" lon="3.62104">
        <ele>320.74</ele>
        <time>2018-01-28T09:51:03Z</time>
      </trkpt>
      <trkpt lat="43.73601" lon="3.62091">
        <ele>320.26</ele>
        <time>2018-01-28T09:51:20Z</time>
      </trkpt>
      <trkpt lat="43.73582" lon="3.62075">
        <ele>320.74</ele>
        <time>2018-01-28T09:51:38Z</time>
      </trkpt>
      <trkpt lat="43.73566" lon="3.62066">
        <ele>319.3</ele>
        <time>2018-01-28T09:51:52Z</time>
      </trkpt>
      <trkpt lat="43.73545" lon="3.62048">
        <ele>320.74</ele>
        <time>2018-01-28T09:52:09Z</time>
      </trkpt>
      <trkpt lat="43.73525" lon="3.62034">
        <ele>318.81</ele>
        <time>2018-01-28T09:52:23Z</time>
      </trkpt>
      <trkpt lat="43.73513" lon="3.62018">
        <ele>316.89</ele>
        <time>2018-01-28T09:52:36Z</time>
      </trkpt>
      <trkpt lat="43.73502" lon="3.61988">
        <ele>311.6</ele>
        <time>2018-01-28T09:52:53Z</time>
      </trkpt>
      <trkpt lat="43.73489" lon="3.61962">
        <ele>309.68</ele>
        <time>2018-01-28T09:53:09Z</time>
      </trkpt>
      <trkpt lat="43.73493" lon="3.61931">
        <ele>305.84</ele>
        <time>2018-01-28T09:53:26Z</time>
      </trkpt>
      <trkpt lat="43.73499" lon="3.619">
        <ele>305.84</ele>
        <time>2018-01-28T09:53:43Z</time>
      </trkpt>
      <trkpt lat="43.73491" lon="3.61866">
        <ele>303.43</ele>
        <time>2018-01-28T09:54:01Z</time>
      </trkpt>
      <trkpt lat="43.73488" lon="3.61859">
        <ele>303.91</ele>
        <time>2018-01-28T09:54:05Z</time>
      </trkpt>
      <trkpt lat="43.73487" lon="3.61833">
        <ele>301.99</ele>
        <time>2018-01-28T09:54:19Z</time>
      </trkpt>
      <trkpt lat="43.73489" lon="3.61818">
        <ele>301.03</ele>
        <time>2018-01-28T09:54:27Z</time>
      </trkpt>
      <trkpt lat="43.73496" lon="3.618">
        <ele>298.15</ele>
        <time>2018-01-28T09:54:37Z</time>
      </trkpt>
      <trkpt lat="43.735" lon="3.61787">
        <ele>297.67</ele>
        <time>2018-01-28T09:54:45Z</time>
      </trkpt>
      <trkpt lat="43.73503" lon="3.61752">
        <ele>296.7</ele>
        <time>2018-01-28T09:55:03Z</time>
      </trkpt>
      <trkpt lat="43.73506" lon="3.61719">
        <ele>292.86</ele>
        <time>2018-01-28T09:55:20Z</time>
      </trkpt>
      <trkpt lat="43.73506" lon="3.61715">
        <ele>292.38</ele>
        <time>2018-01-28T09:55:22Z</time>
      </trkpt>
      <trkpt lat="43.73522" lon="3.61688">
        <ele>292.38</ele>
        <time>2018-01-28T09:55:40Z</time>
      </trkpt>
      <trkpt lat="43.73545" lon="3.61668">
        <ele>289.97</ele>
        <time>2018-01-28T09:55:58Z</time>
      </trkpt>
      <trkpt lat="43.73563" lon="3.61645">
        <ele>288.05</ele>
        <time>2018-01-28T09:56:15Z</time>
      </trkpt>
      <trkpt lat="43.73582" lon="3.61626">
        <ele>285.65</ele>
        <time>2018-01-28T09:56:32Z</time>
      </trkpt>
      <trkpt lat="43.73601" lon="3.61599">
        <ele>284.21</ele>
        <time>2018-01-28T09:56:50Z</time>
      </trkpt>
      <trkpt lat="43.73621" lon="3.61575">
        <ele>284.21</ele>
        <time>2018-01-28T09:57:08Z</time>
      </trkpt>
      <trkpt lat="43.73642" lon="3.61567">
        <ele>283.73</ele>
        <time>2018-01-28T09:57:23Z</time>
      </trkpt>
      <trkpt lat="43.73661" lon="3.61546">
        <ele>283.73</ele>
        <time>2018-01-28T09:57:40Z</time>
      </trkpt>
      <trkpt lat="43.73666" lon="3.61543">
        <ele>285.17</ele>
        <time>2018-01-28T09:57:54Z</time>
      </trkpt>
      <trkpt lat="43.73663" lon="3.61541">
        <ele>286.13</ele>
        <time>2018-01-28T09:58:13Z</time>
      </trkpt>
      <trkpt lat="43.73666" lon="3.61543">
        <ele>285.65</ele>
        <time>2018-01-28T09:58:31Z</time>
      </trkpt>
      <trkpt lat="43.73671" lon="3.61539">
        <ele>286.61</ele>
        <time>2018-01-28T09:58:46Z</time>
      </trkpt>
      <trkpt lat="43.7367" lon="3.61535">
        <ele>285.17</ele>
        <time>2018-01-28T09:59:05Z</time>
      </trkpt>
      <trkpt lat="43.73671" lon="3.61535">
        <ele>287.57</ele>
        <time>2018-01-28T09:59:34Z</time>
      </trkpt>
      <trkpt lat="43.73672" lon="3.61539">
        <ele>289.97</ele>
        <time>2018-01-28T09:59:53Z</time>
      </trkpt>
      <trkpt lat="43.73671" lon="3.6154">
        <ele>290.46</ele>
        <time>2018-01-28T09:59:54Z</time>
      </trkpt>
      <trkpt lat="43.73667" lon="3.61539">
        <ele>292.38</ele>
        <time>2018-01-28T10:00:09Z</time>
      </trkpt>
      <trkpt lat="43.73658" lon="3.61536">
        <ele>291.9</ele>
        <time>2018-01-28T10:00:17Z</time>
      </trkpt>
      <trkpt lat="43.73644" lon="3.61529">
        <ele>289.49</ele>
        <time>2018-01-28T10:00:35Z</time>
      </trkpt>
      <trkpt lat="43.73646" lon="3.6153">
        <ele>288.05</ele>
        <time>2018-01-28T10:00:44Z</time>
      </trkpt>
      <trkpt lat="43.73661" lon="3.61544">
        <ele>285.65</ele>
        <time>2018-01-28T10:00:59Z</time>
      </trkpt>
      <trkpt lat="43.73662" lon="3.61545">
        <ele>285.65</ele>
        <time>2018-01-28T10:01:00Z</time>
      </trkpt>
      <trkpt lat="43.73671" lon="3.6154">
        <ele>285.65</ele>
        <time>2018-01-28T10:01:07Z</time>
      </trkpt>
      <trkpt lat="43.73683" lon="3.61516">
        <ele>287.09</ele>
        <time>2018-01-28T10:01:22Z</time>
      </trkpt>
      <trkpt lat="43.73681" lon="3.61491">
        <ele>286.13</ele>
        <time>2018-01-28T10:01:36Z</time>
      </trkpt>
      <trkpt lat="43.73666" lon="3.61467">
        <ele>282.28</ele>
        <time>2018-01-28T10:01:52Z</time>
      </trkpt>
      <trkpt lat="43.73647" lon="3.61448">
        <ele>283.73</ele>
        <time>2018-01-28T10:02:08Z</time>
      </trkpt>
      <trkpt lat="43.73628" lon="3.61421">
        <ele>283.73</ele>
        <time>2018-01-28T10:02:26Z</time>
      </trkpt>
      <trkpt lat="43.73612" lon="3.61402">
        <ele>285.17</ele>
        <time>2018-01-28T10:02:41Z</time>
      </trkpt>
      <trkpt lat="43.73595" lon="3.61379">
        <ele>286.13</ele>
        <time>2018-01-28T10:02:58Z</time>
      </trkpt>
      <trkpt lat="43.73575" lon="3.61358">
        <ele>286.13</ele>
        <time>2018-01-28T10:03:16Z</time>
      </trkpt>
      <trkpt lat="43.73555" lon="3.61345">
        <ele>282.77</ele>
        <time>2018-01-28T10:03:32Z</time>
      </trkpt>
      <trkpt lat="43.73533" lon="3.61328">
        <ele>281.8</ele>
        <time>2018-01-28T10:03:49Z</time>
      </trkpt>
      <trkpt lat="43.73519" lon="3.61314">
        <ele>282.28</ele>
        <time>2018-01-28T10:04:04Z</time>
      </trkpt>
      <trkpt lat="43.73519" lon="3.61314">
        <ele>282.77</ele>
        <time>2018-01-28T10:04:30Z</time>
      </trkpt>
      <trkpt lat="43.73518" lon="3.61313">
        <ele>282.77</ele>
        <time>2018-01-28T10:04:57Z</time>
      </trkpt>
      <trkpt lat="43.73517" lon="3.61315">
        <ele>282.77</ele>
        <time>2018-01-28T10:05:27Z</time>
      </trkpt>
      <trkpt lat="43.73522" lon="3.61306">
        <ele>281.8</ele>
        <time>2018-01-28T10:05:43Z</time>
      </trkpt>
      <trkpt lat="43.73527" lon="3.61284">
        <ele>282.77</ele>
        <time>2018-01-28T10:05:58Z</time>
      </trkpt>
      <trkpt lat="43.73534" lon="3.61257">
        <ele>283.25</ele>
        <time>2018-01-28T10:06:15Z</time>
      </trkpt>
      <trkpt lat="43.73535" lon="3.61246">
        <ele>283.25</ele>
        <time>2018-01-28T10:06:21Z</time>
      </trkpt>
      <trkpt lat="43.73537" lon="3.61237">
        <ele>285.17</ele>
        <time>2018-01-28T10:06:26Z</time>
      </trkpt>
      <trkpt lat="43.73546" lon="3.61211">
        <ele>285.17</ele>
        <time>2018-01-28T10:06:42Z</time>
      </trkpt>
      <trkpt lat="43.73548" lon="3.61206">
        <ele>285.17</ele>
        <time>2018-01-28T10:06:45Z</time>
      </trkpt>
      <trkpt lat="43.73553" lon="3.61184">
        <ele>286.13</ele>
        <time>2018-01-28T10:06:57Z</time>
      </trkpt>
      <trkpt lat="43.73561" lon="3.61159">
        <ele>285.17</ele>
        <time>2018-01-28T10:07:12Z</time>
      </trkpt>
      <trkpt lat="43.73567" lon="3.61136">
        <ele>285.65</ele>
        <time>2018-01-28T10:07:26Z</time>
      </trkpt>
      <trkpt lat="43.73569" lon="3.61125">
        <ele>284.69</ele>
        <time>2018-01-28T10:07:33Z</time>
      </trkpt>
      <trkpt lat="43.73572" lon="3.61117">
        <ele>284.21</ele>
        <time>2018-01-28T10:07:38Z</time>
      </trkpt>
      <trkpt lat="43.73577" lon="3.61104">
        <ele>284.69</ele>
        <time>2018-01-28T10:07:46Z</time>
      </trkpt>
      <trkpt lat="43.7358" lon="3.61091">
        <ele>281.8</ele>
        <time>2018-01-28T10:07:54Z</time>
      </trkpt>
      <trkpt lat="43.73581" lon="3.61082">
        <ele>281.32</ele>
        <time>2018-01-28T10:08:00Z</time>
      </trkpt>
      <trkpt lat="43.73584" lon="3.61073">
        <ele>281.32</ele>
        <time>2018-01-28T10:08:05Z</time>
      </trkpt>
      <trkpt lat="43.73587" lon="3.61062">
        <ele>280.84</ele>
        <time>2018-01-28T10:08:11Z</time>
      </trkpt>
      <trkpt lat="43.7359" lon="3.61052">
        <ele>279.4</ele>
        <time>2018-01-28T10:08:17Z</time>
      </trkpt>
      <trkpt lat="43.73595" lon="3.61024">
        <ele>276.04</ele>
        <time>2018-01-28T10:08:32Z</time>
      </trkpt>
      <trkpt lat="43.736" lon="3.61011">
        <ele>274.59</ele>
        <time>2018-01-28T10:08:39Z</time>
      </trkpt>
      <trkpt lat="43.73608" lon="3.60981">
        <ele>272.67</ele>
        <time>2018-01-28T10:08:56Z</time>
      </trkpt>
      <trkpt lat="43.73615" lon="3.60957">
        <ele>270.75</ele>
        <time>2018-01-28T10:09:10Z</time>
      </trkpt>
      <trkpt lat="43.73616" lon="3.60952">
        <ele>269.31</ele>
        <time>2018-01-28T10:09:13Z</time>
      </trkpt>
      <trkpt lat="43.73619" lon="3.60939">
        <ele>266.42</ele>
        <time>2018-01-28T10:09:21Z</time>
      </trkpt>
      <trkpt lat="43.73628" lon="3.60909">
        <ele>264.98</ele>
        <time>2018-01-28T10:09:37Z</time>
      </trkpt>
      <trkpt lat="43.73629" lon="3.60905">
        <ele>264.98</ele>
        <time>2018-01-28T10:09:39Z</time>
      </trkpt>
      <trkpt lat="43.73635" lon="3.60882">
        <ele>265.46</ele>
        <time>2018-01-28T10:09:52Z</time>
      </trkpt>
      <trkpt lat="43.73639" lon="3.60867">
        <ele>267.38</ele>
        <time>2018-01-28T10:10:00Z</time>
      </trkpt>
      <trkpt lat="43.73647" lon="3.60845">
        <ele>270.27</ele>
        <time>2018-01-28T10:10:14Z</time>
      </trkpt>
      <trkpt lat="43.73655" lon="3.60819">
        <ele>271.23</ele>
        <time>2018-01-28T10:10:29Z</time>
      </trkpt>
      <trkpt lat="43.7366" lon="3.60801">
        <ele>270.27</ele>
        <time>2018-01-28T10:10:39Z</time>
      </trkpt>
      <trkpt lat="43.73662" lon="3.60791">
        <ele>268.83</ele>
        <time>2018-01-28T10:10:45Z</time>
      </trkpt>
      <trkpt lat="43.73669" lon="3.60766">
        <ele>267.38</ele>
        <time>2018-01-28T10:10:59Z</time>
      </trkpt>
      <trkpt lat="43.73674" lon="3.60746">
        <ele>266.9</ele>
        <time>2018-01-28T10:11:11Z</time>
      </trkpt>
      <trkpt lat="43.7368" lon="3.60721">
        <ele>266.9</ele>
        <time>2018-01-28T10:11:25Z</time>
      </trkpt>
      <trkpt lat="43.73681" lon="3.60719">
        <ele>266.9</ele>
        <time>2018-01-28T10:11:26Z</time>
      </trkpt>
      <trkpt lat="43.73683" lon="3.60714">
        <ele>266.9</ele>
        <time>2018-01-28T10:11:29Z</time>
      </trkpt>
      <trkpt lat="43.73689" lon="3.60689">
        <ele>267.38</ele>
        <time>2018-01-28T10:11:43Z</time>
      </trkpt>
      <trkpt lat="43.7369" lon="3.60686">
        <ele>267.38</ele>
        <time>2018-01-28T10:11:45Z</time>
      </trkpt>
      <trkpt lat="43.73693" lon="3.60675">
        <ele>266.42</ele>
        <time>2018-01-28T10:11:52Z</time>
      </trkpt>
      <trkpt lat="43.73701" lon="3.60648">
        <ele>263.06</ele>
        <time>2018-01-28T10:12:08Z</time>
      </trkpt>
      <trkpt lat="43.73703" lon="3.60642">
        <ele>262.1</ele>
        <time>2018-01-28T10:12:12Z</time>
      </trkpt>
      <trkpt lat="43.73705" lon="3.60632">
        <ele>260.65</ele>
        <time>2018-01-28T10:12:18Z</time>
      </trkpt>
      <trkpt lat="43.73713" lon="3.60608">
        <ele>259.21</ele>
        <time>2018-01-28T10:12:33Z</time>
      </trkpt>
      <trkpt lat="43.73714" lon="3.606">
        <ele>258.25</ele>
        <time>2018-01-28T10:12:38Z</time>
      </trkpt>
      <trkpt lat="43.73721" lon="3.60577">
        <ele>255.85</ele>
        <time>2018-01-28T10:12:53Z</time>
      </trkpt>
      <trkpt lat="43.73726" lon="3.60557">
        <ele>252.96</ele>
        <time>2018-01-28T10:13:08Z</time>
      </trkpt>
      <trkpt lat="43.73729" lon="3.60549">
        <ele>252.96</ele>
        <time>2018-01-28T10:13:14Z</time>
      </trkpt>
      <trkpt lat="43.73732" lon="3.60542">
        <ele>253.93</ele>
        <time>2018-01-28T10:13:18Z</time>
      </trkpt>
      <trkpt lat="43.73736" lon="3.60526">
        <ele>252</ele>
        <time>2018-01-28T10:13:27Z</time>
      </trkpt>
      <trkpt lat="43.73742" lon="3.60499">
        <ele>245.75</ele>
        <time>2018-01-28T10:13:43Z</time>
      </trkpt>
      <trkpt lat="43.73747" lon="3.60478">
        <ele>243.35</ele>
        <time>2018-01-28T10:13:56Z</time>
      </trkpt>
      <trkpt lat="43.73754" lon="3.60454">
        <ele>243.83</ele>
        <time>2018-01-28T10:14:09Z</time>
      </trkpt>
      <trkpt lat="43.73758" lon="3.6044">
        <ele>243.35</ele>
        <time>2018-01-28T10:14:18Z</time>
      </trkpt>
      <trkpt lat="43.73764" lon="3.60418">
        <ele>241.91</ele>
        <time>2018-01-28T10:14:30Z</time>
      </trkpt>
      <trkpt lat="43.73765" lon="3.60412">
        <ele>241.43</ele>
        <time>2018-01-28T10:14:34Z</time>
      </trkpt>
      <trkpt lat="43.73768" lon="3.60403">
        <ele>241.43</ele>
        <time>2018-01-28T10:14:39Z</time>
      </trkpt>
      <trkpt lat="43.73774" lon="3.60374">
        <ele>241.43</ele>
        <time>2018-01-28T10:14:56Z</time>
      </trkpt>
      <trkpt lat="43.73784" lon="3.60345">
        <ele>240.95</ele>
        <time>2018-01-28T10:15:13Z</time>
      </trkpt>
      <trkpt lat="43.73788" lon="3.60328">
        <ele>240.95</ele>
        <time>2018-01-28T10:15:23Z</time>
      </trkpt>
      <trkpt lat="43.73789" lon="3.6032">
        <ele>239.51</ele>
        <time>2018-01-28T10:15:28Z</time>
      </trkpt>
      <trkpt lat="43.73798" lon="3.60296">
        <ele>236.62</ele>
        <time>2018-01-28T10:15:45Z</time>
      </trkpt>
      <trkpt lat="43.73798" lon="3.60294">
        <ele>239.51</ele>
        <time>2018-01-28T10:16:02Z</time>
      </trkpt>
      <trkpt lat="43.73798" lon="3.60294">
        <ele>240.95</ele>
        <time>2018-01-28T10:16:25Z</time>
      </trkpt>
      <trkpt lat="43.73797" lon="3.60294">
        <ele>239.99</ele>
        <time>2018-01-28T10:16:52Z</time>
      </trkpt>
      <trkpt lat="43.73797" lon="3.60295">
        <ele>239.99</ele>
        <time>2018-01-28T10:17:22Z</time>
      </trkpt>
      <trkpt lat="43.73798" lon="3.60294">
        <ele>242.39</ele>
        <time>2018-01-28T10:17:45Z</time>
      </trkpt>
      <trkpt lat="43.73798" lon="3.60294">
        <ele>241.91</ele>
        <time>2018-01-28T10:18:10Z</time>
      </trkpt>
      <trkpt lat="43.73798" lon="3.60295">
        <ele>239.51</ele>
        <time>2018-01-28T10:18:31Z</time>
      </trkpt>
      <trkpt lat="43.73796" lon="3.60296">
        <ele>239.02</ele>
        <time>2018-01-28T10:19:03Z</time>
      </trkpt>
      <trkpt lat="43.73797" lon="3.60293">
        <ele>240.47</ele>
        <time>2018-01-28T10:19:33Z</time>
      </trkpt>
      <trkpt lat="43.73797" lon="3.60294">
        <ele>241.43</ele>
        <time>2018-01-28T10:20:00Z</time>
      </trkpt>
      <trkpt lat="43.73798" lon="3.60295">
        <ele>238.54</ele>
        <time>2018-01-28T10:20:25Z</time>
      </trkpt>
      <trkpt lat="43.73798" lon="3.60295">
        <ele>240.95</ele>
        <time>2018-01-28T10:20:49Z</time>
      </trkpt>
      <trkpt lat="43.73798" lon="3.60296">
        <ele>241.43</ele>
        <time>2018-01-28T10:21:13Z</time>
      </trkpt>
      <trkpt lat="43.73798" lon="3.60293">
        <ele>241.91</ele>
        <time>2018-01-28T10:21:37Z</time>
      </trkpt>
      <trkpt lat="43.73797" lon="3.60294">
        <ele>240.47</ele>
        <time>2018-01-28T10:21:58Z</time>
      </trkpt>
      <trkpt lat="43.73801" lon="3.6028">
        <ele>241.43</ele>
        <time>2018-01-28T10:22:12Z</time>
      </trkpt>
      <trkpt lat="43.73805" lon="3.60261">
        <ele>240.95</ele>
        <time>2018-01-28T10:22:28Z</time>
      </trkpt>
      <trkpt lat="43.73812" lon="3.60242">
        <ele>239.51</ele>
        <time>2018-01-28T10:22:42Z</time>
      </trkpt>
      <trkpt lat="43.73817" lon="3.60219">
        <ele>240.47</ele>
        <time>2018-01-28T10:22:58Z</time>
      </trkpt>
      <trkpt lat="43.73823" lon="3.602">
        <ele>242.39</ele>
        <time>2018-01-28T10:23:11Z</time>
      </trkpt>
      <trkpt lat="43.73826" lon="3.6019">
        <ele>244.79</ele>
        <time>2018-01-28T10:23:17Z</time>
      </trkpt>
      <trkpt lat="43.73832" lon="3.6017">
        <ele>247.2</ele>
        <time>2018-01-28T10:23:30Z</time>
      </trkpt>
      <trkpt lat="43.73834" lon="3.60161">
        <ele>248.16</ele>
        <time>2018-01-28T10:23:36Z</time>
      </trkpt>
      <trkpt lat="43.73833" lon="3.6015">
        <ele>247.2</ele>
        <time>2018-01-28T10:23:48Z</time>
      </trkpt>
      <trkpt lat="43.73831" lon="3.60138">
        <ele>249.12</ele>
        <time>2018-01-28T10:24:03Z</time>
      </trkpt>
      <trkpt lat="43.73831" lon="3.60136">
        <ele>250.08</ele>
        <time>2018-01-28T10:24:06Z</time>
      </trkpt>
      <trkpt lat="43.73843" lon="3.60125">
        <ele>251.52</ele>
        <time>2018-01-28T10:24:21Z</time>
      </trkpt>
      <trkpt lat="43.73849" lon="3.601">
        <ele>252</ele>
        <time>2018-01-28T10:24:37Z</time>
      </trkpt>
      <trkpt lat="43.73858" lon="3.60075">
        <ele>251.52</ele>
        <time>2018-01-28T10:24:53Z</time>
      </trkpt>
      <trkpt lat="43.73862" lon="3.60054">
        <ele>252.48</ele>
        <time>2018-01-28T10:25:08Z</time>
      </trkpt>
      <trkpt lat="43.73863" lon="3.6005">
        <ele>253.44</ele>
        <time>2018-01-28T10:25:25Z</time>
      </trkpt>
      <trkpt lat="43.7387" lon="3.60031">
        <ele>253.44</ele>
        <time>2018-01-28T10:25:40Z</time>
      </trkpt>
      <trkpt lat="43.73877" lon="3.60006">
        <ele>256.33</ele>
        <time>2018-01-28T10:25:55Z</time>
      </trkpt>
      <trkpt lat="43.73883" lon="3.59985">
        <ele>259.21</ele>
        <time>2018-01-28T10:26:09Z</time>
      </trkpt>
      <trkpt lat="43.73889" lon="3.59962">
        <ele>260.65</ele>
        <time>2018-01-28T10:26:24Z</time>
      </trkpt>
      <trkpt lat="43.7389" lon="3.59955">
        <ele>260.65</ele>
        <time>2018-01-28T10:26:28Z</time>
      </trkpt>
      <trkpt lat="43.73893" lon="3.59947">
        <ele>261.62</ele>
        <time>2018-01-28T10:26:34Z</time>
      </trkpt>
      <trkpt lat="43.73896" lon="3.59936">
        <ele>262.58</ele>
        <time>2018-01-28T10:26:41Z</time>
      </trkpt>
      <trkpt lat="43.73898" lon="3.5993">
        <ele>263.06</ele>
        <time>2018-01-28T10:26:45Z</time>
      </trkpt>
      <trkpt lat="43.73904" lon="3.59909">
        <ele>264.02</ele>
        <time>2018-01-28T10:27:00Z</time>
      </trkpt>
      <trkpt lat="43.73911" lon="3.59885">
        <ele>266.42</ele>
        <time>2018-01-28T10:27:15Z</time>
      </trkpt>
      <trkpt lat="43.73912" lon="3.59877">
        <ele>267.38</ele>
        <time>2018-01-28T10:27:20Z</time>
      </trkpt>
      <trkpt lat="43.73921" lon="3.59851">
        <ele>267.86</ele>
        <time>2018-01-28T10:27:36Z</time>
      </trkpt>
      <trkpt lat="43.73927" lon="3.59824">
        <ele>266.42</ele>
        <time>2018-01-28T10:27:52Z</time>
      </trkpt>
      <trkpt lat="43.7393" lon="3.5981">
        <ele>263.54</ele>
        <time>2018-01-28T10:28:05Z</time>
      </trkpt>
      <trkpt lat="43.7393" lon="3.59809">
        <ele>263.54</ele>
        <time>2018-01-28T10:28:06Z</time>
      </trkpt>
      <trkpt lat="43.73932" lon="3.59797">
        <ele>262.1</ele>
        <time>2018-01-28T10:28:12Z</time>
      </trkpt>
      <trkpt lat="43.7394" lon="3.59769">
        <ele>260.65</ele>
        <time>2018-01-28T10:28:28Z</time>
      </trkpt>
      <trkpt lat="43.73941" lon="3.59765">
        <ele>260.65</ele>
        <time>2018-01-28T10:28:30Z</time>
      </trkpt>
      <trkpt lat="43.73951" lon="3.59737">
        <ele>260.65</ele>
        <time>2018-01-28T10:28:46Z</time>
      </trkpt>
      <trkpt lat="43.73954" lon="3.59737">
        <ele>259.69</ele>
        <time>2018-01-28T10:28:57Z</time>
      </trkpt>
      <trkpt lat="43.73955" lon="3.59736">
        <ele>259.21</ele>
        <time>2018-01-28T10:29:08Z</time>
      </trkpt>
      <trkpt lat="43.73956" lon="3.59725">
        <ele>257.77</ele>
        <time>2018-01-28T10:29:22Z</time>
      </trkpt>
      <trkpt lat="43.73954" lon="3.59728">
        <ele>258.25</ele>
        <time>2018-01-28T10:29:36Z</time>
      </trkpt>
      <trkpt lat="43.73955" lon="3.59727">
        <ele>259.69</ele>
        <time>2018-01-28T10:30:02Z</time>
      </trkpt>
      <trkpt lat="43.73956" lon="3.59727">
        <ele>260.65</ele>
        <time>2018-01-28T10:30:29Z</time>
      </trkpt>
      <trkpt lat="43.73956" lon="3.59726">
        <ele>260.65</ele>
        <time>2018-01-28T10:30:31Z</time>
      </trkpt>
      <trkpt lat="43.73963" lon="3.59698">
        <ele>261.14</ele>
        <time>2018-01-28T10:30:48Z</time>
      </trkpt>
      <trkpt lat="43.73963" lon="3.59696">
        <ele>261.14</ele>
        <time>2018-01-28T10:30:49Z</time>
      </trkpt>
      <trkpt lat="43.73964" lon="3.59688">
        <ele>261.62</ele>
        <time>2018-01-28T10:30:54Z</time>
      </trkpt>
      <trkpt lat="43.7397" lon="3.59669">
        <ele>264.02</ele>
        <time>2018-01-28T10:31:05Z</time>
      </trkpt>
      <trkpt lat="43.73972" lon="3.5966">
        <ele>264.02</ele>
        <time>2018-01-28T10:31:10Z</time>
      </trkpt>
      <trkpt lat="43.7398" lon="3.59634">
        <ele>261.14</ele>
        <time>2018-01-28T10:31:26Z</time>
      </trkpt>
      <trkpt lat="43.73987" lon="3.59604">
        <ele>260.65</ele>
        <time>2018-01-28T10:31:45Z</time>
      </trkpt>
      <trkpt lat="43.73991" lon="3.59585">
        <ele>260.17</ele>
        <time>2018-01-28T10:31:57Z</time>
      </trkpt>
      <trkpt lat="43.73996" lon="3.59573">
        <ele>261.14</ele>
        <time>2018-01-28T10:32:04Z</time>
      </trkpt>
      <trkpt lat="43.73997" lon="3.59563">
        <ele>262.58</ele>
        <time>2018-01-28T10:32:09Z</time>
      </trkpt>
      <trkpt lat="43.74" lon="3.59556">
        <ele>265.46</ele>
        <time>2018-01-28T10:32:25Z</time>
      </trkpt>
      <trkpt lat="43.74002" lon="3.59558">
        <ele>263.06</ele>
        <time>2018-01-28T10:32:45Z</time>
      </trkpt>
      <trkpt lat="43.74002" lon="3.59545">
        <ele>263.06</ele>
        <time>2018-01-28T10:32:58Z</time>
      </trkpt>
      <trkpt lat="43.74008" lon="3.59524">
        <ele>264.5</ele>
        <time>2018-01-28T10:33:12Z</time>
      </trkpt>
      <trkpt lat="43.74016" lon="3.59499">
        <ele>266.9</ele>
        <time>2018-01-28T10:33:26Z</time>
      </trkpt>
      <trkpt lat="43.74024" lon="3.59468">
        <ele>269.79</ele>
        <time>2018-01-28T10:33:44Z</time>
      </trkpt>
      <trkpt lat="43.74028" lon="3.59452">
        <ele>270.27</ele>
        <time>2018-01-28T10:33:57Z</time>
      </trkpt>
      <trkpt lat="43.74028" lon="3.59453">
        <ele>269.79</ele>
        <time>2018-01-28T10:33:58Z</time>
      </trkpt>
      <trkpt lat="43.74031" lon="3.59456">
        <ele>269.31</ele>
        <time>2018-01-28T10:34:11Z</time>
      </trkpt>
      <trkpt lat="43.74035" lon="3.59453">
        <ele>268.83</ele>
        <time>2018-01-28T10:34:19Z</time>
      </trkpt>
      <trkpt lat="43.74033" lon="3.59438">
        <ele>269.31</ele>
        <time>2018-01-28T10:34:33Z</time>
      </trkpt>
      <trkpt lat="43.74038" lon="3.5942">
        <ele>269.79</ele>
        <time>2018-01-28T10:34:44Z</time>
      </trkpt>
      <trkpt lat="43.74045" lon="3.59394">
        <ele>267.38</ele>
        <time>2018-01-28T10:35:00Z</time>
      </trkpt>
      <trkpt lat="43.74053" lon="3.59367">
        <ele>265.94</ele>
        <time>2018-01-28T10:35:16Z</time>
      </trkpt>
      <trkpt lat="43.74056" lon="3.59353">
        <ele>265.46</ele>
        <time>2018-01-28T10:35:24Z</time>
      </trkpt>
      <trkpt lat="43.74064" lon="3.59322">
        <ele>264.5</ele>
        <time>2018-01-28T10:35:42Z</time>
      </trkpt>
      <trkpt lat="43.74071" lon="3.59296">
        <ele>265.46</ele>
        <time>2018-01-28T10:35:57Z</time>
      </trkpt>
      <trkpt lat="43.74074" lon="3.5928">
        <ele>265.94</ele>
        <time>2018-01-28T10:36:06Z</time>
      </trkpt>
      <trkpt lat="43.7408" lon="3.59257">
        <ele>264.98</ele>
        <time>2018-01-28T10:36:20Z</time>
      </trkpt>
      <trkpt lat="43.74088" lon="3.59257">
        <ele>264.98</ele>
        <time>2018-01-28T10:36:33Z</time>
      </trkpt>
      <trkpt lat="43.74087" lon="3.59254">
        <ele>265.94</ele>
        <time>2018-01-28T10:37:04Z</time>
      </trkpt>
      <trkpt lat="43.74078" lon="3.59252">
        <ele>266.9</ele>
        <time>2018-01-28T10:37:20Z</time>
      </trkpt>
      <trkpt lat="43.74077" lon="3.59252">
        <ele>266.9</ele>
        <time>2018-01-28T10:37:46Z</time>
      </trkpt>
      <trkpt lat="43.74061" lon="3.59243">
        <ele>263.54</ele>
        <time>2018-01-28T10:38:01Z</time>
      </trkpt>
      <trkpt lat="43.74042" lon="3.59231">
        <ele>262.58</ele>
        <time>2018-01-28T10:38:17Z</time>
      </trkpt>
      <trkpt lat="43.74023" lon="3.59221">
        <ele>261.62</ele>
        <time>2018-01-28T10:38:33Z</time>
      </trkpt>
      <trkpt lat="43.74012" lon="3.59215">
        <ele>262.1</ele>
        <time>2018-01-28T10:38:41Z</time>
      </trkpt>
      <trkpt lat="43.74007" lon="3.59214">
        <ele>261.62</ele>
        <time>2018-01-28T10:38:46Z</time>
      </trkpt>
      <trkpt lat="43.73986" lon="3.59202">
        <ele>262.1</ele>
        <time>2018-01-28T10:39:04Z</time>
      </trkpt>
      <trkpt lat="43.73987" lon="3.592">
        <ele>262.58</ele>
        <time>2018-01-28T10:39:05Z</time>
      </trkpt>
      <trkpt lat="43.73987" lon="3.59195">
        <ele>264.98</ele>
        <time>2018-01-28T10:39:17Z</time>
      </trkpt>
      <trkpt lat="43.73978" lon="3.59199">
        <ele>264.5</ele>
        <time>2018-01-28T10:39:26Z</time>
      </trkpt>
      <trkpt lat="43.7396" lon="3.59189">
        <ele>264.02</ele>
        <time>2018-01-28T10:39:41Z</time>
      </trkpt>
      <trkpt lat="43.73939" lon="3.59177">
        <ele>264.98</ele>
        <time>2018-01-28T10:39:58Z</time>
      </trkpt>
      <trkpt lat="43.7392" lon="3.59168">
        <ele>265.46</ele>
        <time>2018-01-28T10:40:13Z</time>
      </trkpt>
      <trkpt lat="43.73894" lon="3.59155">
        <ele>263.54</ele>
        <time>2018-01-28T10:40:33Z</time>
      </trkpt>
      <trkpt lat="43.73873" lon="3.59144">
        <ele>264.5</ele>
        <time>2018-01-28T10:40:50Z</time>
      </trkpt>
      <trkpt lat="43.7387" lon="3.59141">
        <ele>268.35</ele>
        <time>2018-01-28T10:41:05Z</time>
      </trkpt>
      <trkpt lat="43.73854" lon="3.59135">
        <ele>266.9</ele>
        <time>2018-01-28T10:41:19Z</time>
      </trkpt>
      <trkpt lat="43.73835" lon="3.59127">
        <ele>264.98</ele>
        <time>2018-01-28T10:41:34Z</time>
      </trkpt>
      <trkpt lat="43.73816" lon="3.59118">
        <ele>266.42</ele>
        <time>2018-01-28T10:41:51Z</time>
      </trkpt>
      <trkpt lat="43.73814" lon="3.5912">
        <ele>266.9</ele>
        <time>2018-01-28T10:42:11Z</time>
      </trkpt>
      <trkpt lat="43.73804" lon="3.59113">
        <ele>265.94</ele>
        <time>2018-01-28T10:42:26Z</time>
      </trkpt>
      <trkpt lat="43.73787" lon="3.59104">
        <ele>265.94</ele>
        <time>2018-01-28T10:42:41Z</time>
      </trkpt>
      <trkpt lat="43.73775" lon="3.59094">
        <ele>268.83</ele>
        <time>2018-01-28T10:42:57Z</time>
      </trkpt>
      <trkpt lat="43.73774" lon="3.59094">
        <ele>270.27</ele>
        <time>2018-01-28T10:43:18Z</time>
      </trkpt>
      <trkpt lat="43.73769" lon="3.59094">
        <ele>270.75</ele>
        <time>2018-01-28T10:43:36Z</time>
      </trkpt>
      <trkpt lat="43.73767" lon="3.59093">
        <ele>272.19</ele>
        <time>2018-01-28T10:43:51Z</time>
      </trkpt>
      <trkpt lat="43.73748" lon="3.59082">
        <ele>271.23</ele>
        <time>2018-01-28T10:44:08Z</time>
      </trkpt>
      <trkpt lat="43.73728" lon="3.59075">
        <ele>272.67</ele>
        <time>2018-01-28T10:44:24Z</time>
      </trkpt>
      <trkpt lat="43.7372" lon="3.59071">
        <ele>272.67</ele>
        <time>2018-01-28T10:44:30Z</time>
      </trkpt>
      <trkpt lat="43.73703" lon="3.59062">
        <ele>273.15</ele>
        <time>2018-01-28T10:44:45Z</time>
      </trkpt>
      <trkpt lat="43.7369" lon="3.59055">
        <ele>274.11</ele>
        <time>2018-01-28T10:44:57Z</time>
      </trkpt>
      <trkpt lat="43.73683" lon="3.59052">
        <ele>275.07</ele>
        <time>2018-01-28T10:45:02Z</time>
      </trkpt>
      <trkpt lat="43.73678" lon="3.59046">
        <ele>276.04</ele>
        <time>2018-01-28T10:45:08Z</time>
      </trkpt>
      <trkpt lat="43.73662" lon="3.59042">
        <ele>277.48</ele>
        <time>2018-01-28T10:45:22Z</time>
      </trkpt>
      <trkpt lat="43.73662" lon="3.59042">
        <ele>278.44</ele>
        <time>2018-01-28T10:45:30Z</time>
      </trkpt>
      <trkpt lat="43.7366" lon="3.5904">
        <ele>278.44</ele>
        <time>2018-01-28T10:45:32Z</time>
      </trkpt>
      <trkpt lat="43.73642" lon="3.5903">
        <ele>280.36</ele>
        <time>2018-01-28T10:45:48Z</time>
      </trkpt>
      <trkpt lat="43.73624" lon="3.59023">
        <ele>280.36</ele>
        <time>2018-01-28T10:46:02Z</time>
      </trkpt>
      <trkpt lat="43.73616" lon="3.59016">
        <ele>279.88</ele>
        <time>2018-01-28T10:46:10Z</time>
      </trkpt>
      <trkpt lat="43.73609" lon="3.59">
        <ele>282.28</ele>
        <time>2018-01-28T10:46:25Z</time>
      </trkpt>
      <trkpt lat="43.73609" lon="3.59001">
        <ele>283.73</ele>
        <time>2018-01-28T10:46:53Z</time>
      </trkpt>
      <trkpt lat="43.73607" lon="3.58997">
        <ele>283.73</ele>
        <time>2018-01-28T10:47:06Z</time>
      </trkpt>
      <trkpt lat="43.73604" lon="3.58987">
        <ele>284.21</ele>
        <time>2018-01-28T10:47:12Z</time>
      </trkpt>
      <trkpt lat="43.736" lon="3.5896">
        <ele>285.65</ele>
        <time>2018-01-28T10:47:28Z</time>
      </trkpt>
      <trkpt lat="43.73601" lon="3.58953">
        <ele>286.61</ele>
        <time>2018-01-28T10:47:32Z</time>
      </trkpt>
      <trkpt lat="43.73605" lon="3.58925">
        <ele>289.01</ele>
        <time>2018-01-28T10:47:48Z</time>
      </trkpt>
      <trkpt lat="43.73602" lon="3.58901">
        <ele>290.46</ele>
        <time>2018-01-28T10:48:03Z</time>
      </trkpt>
      <trkpt lat="43.73596" lon="3.58875">
        <ele>291.9</ele>
        <time>2018-01-28T10:48:20Z</time>
      </trkpt>
      <trkpt lat="43.73611" lon="3.58855">
        <ele>292.86</ele>
        <time>2018-01-28T10:48:36Z</time>
      </trkpt>
      <trkpt lat="43.73627" lon="3.58834">
        <ele>293.82</ele>
        <time>2018-01-28T10:48:53Z</time>
      </trkpt>
      <trkpt lat="43.73632" lon="3.58824">
        <ele>295.26</ele>
        <time>2018-01-28T10:49:08Z</time>
      </trkpt>
      <trkpt lat="43.73636" lon="3.58823">
        <ele>296.22</ele>
        <time>2018-01-28T10:49:37Z</time>
      </trkpt>
      <trkpt lat="43.73648" lon="3.58813">
        <ele>297.18</ele>
        <time>2018-01-28T10:49:49Z</time>
      </trkpt>
      <trkpt lat="43.73656" lon="3.58807">
        <ele>297.67</ele>
        <time>2018-01-28T10:49:57Z</time>
      </trkpt>
      <trkpt lat="43.7367" lon="3.58796">
        <ele>297.18</ele>
        <time>2018-01-28T10:50:10Z</time>
      </trkpt>
      <trkpt lat="43.73692" lon="3.58786">
        <ele>298.15</ele>
        <time>2018-01-28T10:50:27Z</time>
      </trkpt>
      <trkpt lat="43.73711" lon="3.58777">
        <ele>298.63</ele>
        <time>2018-01-28T10:50:43Z</time>
      </trkpt>
      <trkpt lat="43.73721" lon="3.58761">
        <ele>301.03</ele>
        <time>2018-01-28T10:50:56Z</time>
      </trkpt>
      <trkpt lat="43.7374" lon="3.58741">
        <ele>303.43</ele>
        <time>2018-01-28T10:51:15Z</time>
      </trkpt>
      <trkpt lat="43.73749" lon="3.58736">
        <ele>303.91</ele>
        <time>2018-01-28T10:51:23Z</time>
      </trkpt>
      <trkpt lat="43.73767" lon="3.58721">
        <ele>305.84</ele>
        <time>2018-01-28T10:51:40Z</time>
      </trkpt>
      <trkpt lat="43.73782" lon="3.58713">
        <ele>306.32</ele>
        <time>2018-01-28T10:51:53Z</time>
      </trkpt>
      <trkpt lat="43.73796" lon="3.587">
        <ele>306.8</ele>
        <time>2018-01-28T10:52:07Z</time>
      </trkpt>
      <trkpt lat="43.73813" lon="3.58685">
        <ele>309.68</ele>
        <time>2018-01-28T10:52:24Z</time>
      </trkpt>
      <trkpt lat="43.73831" lon="3.5867">
        <ele>311.12</ele>
        <time>2018-01-28T10:52:41Z</time>
      </trkpt>
      <trkpt lat="43.73846" lon="3.58651">
        <ele>312.09</ele>
        <time>2018-01-28T10:52:58Z</time>
      </trkpt>
      <trkpt lat="43.73865" lon="3.58641">
        <ele>314.01</ele>
        <time>2018-01-28T10:53:14Z</time>
      </trkpt>
      <trkpt lat="43.7388" lon="3.58626">
        <ele>314.49</ele>
        <time>2018-01-28T10:53:29Z</time>
      </trkpt>
      <trkpt lat="43.73893" lon="3.58613">
        <ele>316.41</ele>
        <time>2018-01-28T10:53:44Z</time>
      </trkpt>
      <trkpt lat="43.73892" lon="3.58614">
        <ele>317.85</ele>
        <time>2018-01-28T10:54:05Z</time>
      </trkpt>
      <trkpt lat="43.73891" lon="3.58616">
        <ele>318.81</ele>
        <time>2018-01-28T10:54:37Z</time>
      </trkpt>
      <trkpt lat="43.7389" lon="3.58618">
        <ele>319.3</ele>
        <time>2018-01-28T10:55:07Z</time>
      </trkpt>
      <trkpt lat="43.73895" lon="3.58606">
        <ele>319.3</ele>
        <time>2018-01-28T10:55:20Z</time>
      </trkpt>
      <trkpt lat="43.73896" lon="3.58601">
        <ele>319.78</ele>
        <time>2018-01-28T10:55:35Z</time>
      </trkpt>
      <trkpt lat="43.73897" lon="3.58598">
        <ele>320.26</ele>
        <time>2018-01-28T10:55:50Z</time>
      </trkpt>
      <trkpt lat="43.73896" lon="3.586">
        <ele>320.26</ele>
        <time>2018-01-28T10:56:03Z</time>
      </trkpt>
      <trkpt lat="43.73897" lon="3.58601">
        <ele>319.78</ele>
        <time>2018-01-28T10:56:14Z</time>
      </trkpt>
      <trkpt lat="43.73901" lon="3.58597">
        <ele>321.22</ele>
        <time>2018-01-28T10:56:29Z</time>
      </trkpt>
      <trkpt lat="43.73904" lon="3.58599">
        <ele>320.26</ele>
        <time>2018-01-28T10:56:52Z</time>
      </trkpt>
      <trkpt lat="43.73905" lon="3.58602">
        <ele>319.3</ele>
        <time>2018-01-28T10:57:04Z</time>
      </trkpt>
      <trkpt lat="43.73906" lon="3.58603">
        <ele>318.81</ele>
        <time>2018-01-28T10:57:31Z</time>
      </trkpt>
      <trkpt lat="43.73913" lon="3.58595">
        <ele>316.89</ele>
        <time>2018-01-28T10:57:47Z</time>
      </trkpt>
      <trkpt lat="43.73917" lon="3.58591">
        <ele>316.89</ele>
        <time>2018-01-28T10:57:59Z</time>
      </trkpt>
      <trkpt lat="43.73917" lon="3.58591">
        <ele>316.41</ele>
        <time>2018-01-28T10:58:22Z</time>
      </trkpt>
      <trkpt lat="43.73924" lon="3.58586">
        <ele>314.49</ele>
        <time>2018-01-28T10:58:36Z</time>
      </trkpt>
      <trkpt lat="43.73937" lon="3.58582">
        <ele>315.93</ele>
        <time>2018-01-28T10:58:49Z</time>
      </trkpt>
      <trkpt lat="43.73945" lon="3.58579">
        <ele>316.89</ele>
        <time>2018-01-28T10:59:01Z</time>
      </trkpt>
      <trkpt lat="43.73951" lon="3.58577">
        <ele>316.89</ele>
        <time>2018-01-28T10:59:06Z</time>
      </trkpt>
      <trkpt lat="43.7397" lon="3.58569">
        <ele>317.85</ele>
        <time>2018-01-28T10:59:21Z</time>
      </trkpt>
      <trkpt lat="43.73996" lon="3.58565">
        <ele>315.45</ele>
        <time>2018-01-28T10:59:40Z</time>
      </trkpt>
      <trkpt lat="43.74017" lon="3.58558">
        <ele>316.41</ele>
        <time>2018-01-28T10:59:56Z</time>
      </trkpt>
      <trkpt lat="43.74035" lon="3.5855">
        <ele>317.85</ele>
        <time>2018-01-28T11:00:11Z</time>
      </trkpt>
      <trkpt lat="43.74045" lon="3.58531">
        <ele>317.85</ele>
        <time>2018-01-28T11:00:25Z</time>
      </trkpt>
      <trkpt lat="43.74047" lon="3.5853">
        <ele>316.89</ele>
        <time>2018-01-28T11:00:43Z</time>
      </trkpt>
      <trkpt lat="43.74047" lon="3.58528">
        <ele>315.93</ele>
        <time>2018-01-28T11:00:49Z</time>
      </trkpt>
      <trkpt lat="43.74044" lon="3.58524">
        <ele>315.45</ele>
        <time>2018-01-28T11:00:53Z</time>
      </trkpt>
      <trkpt lat="43.74038" lon="3.58497">
        <ele>315.93</ele>
        <time>2018-01-28T11:01:10Z</time>
      </trkpt>
      <trkpt lat="43.74037" lon="3.58467">
        <ele>318.33</ele>
        <time>2018-01-28T11:01:27Z</time>
      </trkpt>
      <trkpt lat="43.74038" lon="3.58455">
        <ele>319.3</ele>
        <time>2018-01-28T11:01:34Z</time>
      </trkpt>
      <trkpt lat="43.74033" lon="3.58441">
        <ele>320.74</ele>
        <time>2018-01-28T11:01:43Z</time>
      </trkpt>
      <trkpt lat="43.74025" lon="3.58413">
        <ele>321.7</ele>
        <time>2018-01-28T11:02:01Z</time>
      </trkpt>
      <trkpt lat="43.7402" lon="3.58386">
        <ele>322.18</ele>
        <time>2018-01-28T11:02:16Z</time>
      </trkpt>
      <trkpt lat="43.7401" lon="3.58355">
        <ele>322.66</ele>
        <time>2018-01-28T11:02:35Z</time>
      </trkpt>
      <trkpt lat="43.73997" lon="3.58335">
        <ele>322.18</ele>
        <time>2018-01-28T11:02:52Z</time>
      </trkpt>
      <trkpt lat="43.73982" lon="3.58318">
        <ele>323.14</ele>
        <time>2018-01-28T11:03:08Z</time>
      </trkpt>
      <trkpt lat="43.73968" lon="3.58302">
        <ele>320.26</ele>
        <time>2018-01-28T11:03:22Z</time>
      </trkpt>
      <trkpt lat="43.73961" lon="3.58284">
        <ele>319.78</ele>
        <time>2018-01-28T11:03:33Z</time>
      </trkpt>
      <trkpt lat="43.73958" lon="3.58276">
        <ele>320.26</ele>
        <time>2018-01-28T11:03:38Z</time>
      </trkpt>
      <trkpt lat="43.73945" lon="3.58248">
        <ele>320.74</ele>
        <time>2018-01-28T11:03:56Z</time>
      </trkpt>
      <trkpt lat="43.73932" lon="3.58223">
        <ele>321.22</ele>
        <time>2018-01-28T11:04:13Z</time>
      </trkpt>
      <trkpt lat="43.73917" lon="3.582">
        <ele>322.18</ele>
        <time>2018-01-28T11:04:29Z</time>
      </trkpt>
      <trkpt lat="43.73907" lon="3.58179">
        <ele>322.66</ele>
        <time>2018-01-28T11:04:44Z</time>
      </trkpt>
      <trkpt lat="43.73902" lon="3.58163">
        <ele>324.1</ele>
        <time>2018-01-28T11:05:00Z</time>
      </trkpt>
      <trkpt lat="43.73901" lon="3.58164">
        <ele>323.14</ele>
        <time>2018-01-28T11:05:24Z</time>
      </trkpt>
      <trkpt lat="43.73902" lon="3.58162">
        <ele>324.1</ele>
        <time>2018-01-28T11:05:46Z</time>
      </trkpt>
      <trkpt lat="43.73903" lon="3.5816">
        <ele>323.62</ele>
        <time>2018-01-28T11:05:48Z</time>
      </trkpt>
      <trkpt lat="43.73905" lon="3.58151">
        <ele>321.22</ele>
        <time>2018-01-28T11:06:05Z</time>
      </trkpt>
      <trkpt lat="43.73905" lon="3.58149">
        <ele>321.7</ele>
        <time>2018-01-28T11:06:18Z</time>
      </trkpt>
      <trkpt lat="43.73906" lon="3.58146">
        <ele>322.18</ele>
        <time>2018-01-28T11:06:20Z</time>
      </trkpt>
      <trkpt lat="43.73909" lon="3.58137">
        <ele>322.18</ele>
        <time>2018-01-28T11:06:26Z</time>
      </trkpt>
      <trkpt lat="43.73917" lon="3.58126">
        <ele>320.74</ele>
        <time>2018-01-28T11:06:36Z</time>
      </trkpt>
      <trkpt lat="43.73929" lon="3.58116">
        <ele>319.78</ele>
        <time>2018-01-28T11:06:53Z</time>
      </trkpt>
      <trkpt lat="43.73929" lon="3.58105">
        <ele>319.3</ele>
        <time>2018-01-28T11:07:00Z</time>
      </trkpt>
      <trkpt lat="43.73923" lon="3.58098">
        <ele>318.33</ele>
        <time>2018-01-28T11:07:06Z</time>
      </trkpt>
      <trkpt lat="43.7392" lon="3.58094">
        <ele>318.33</ele>
        <time>2018-01-28T11:07:09Z</time>
      </trkpt>
      <trkpt lat="43.73921" lon="3.58079">
        <ele>318.33</ele>
        <time>2018-01-28T11:07:24Z</time>
      </trkpt>
      <trkpt lat="43.73925" lon="3.58072">
        <ele>320.74</ele>
        <time>2018-01-28T11:07:51Z</time>
      </trkpt>
      <trkpt lat="43.73933" lon="3.58061">
        <ele>317.37</ele>
        <time>2018-01-28T11:08:02Z</time>
      </trkpt>
      <trkpt lat="43.73945" lon="3.58051">
        <ele>314.49</ele>
        <time>2018-01-28T11:08:13Z</time>
      </trkpt>
      <trkpt lat="43.73952" lon="3.58048">
        <ele>312.57</ele>
        <time>2018-01-28T11:08:19Z</time>
      </trkpt>
      <trkpt lat="43.73955" lon="3.58044">
        <ele>311.6</ele>
        <time>2018-01-28T11:08:22Z</time>
      </trkpt>
      <trkpt lat="43.73959" lon="3.58039">
        <ele>310.16</ele>
        <time>2018-01-28T11:08:37Z</time>
      </trkpt>
      <trkpt lat="43.73959" lon="3.58036">
        <ele>309.68</ele>
        <time>2018-01-28T11:08:42Z</time>
      </trkpt>
      <trkpt lat="43.73953" lon="3.5803">
        <ele>309.2</ele>
        <time>2018-01-28T11:08:47Z</time>
      </trkpt>
      <trkpt lat="43.73951" lon="3.58026">
        <ele>309.2</ele>
        <time>2018-01-28T11:08:50Z</time>
      </trkpt>
      <trkpt lat="43.73947" lon="3.58019">
        <ele>309.2</ele>
        <time>2018-01-28T11:08:55Z</time>
      </trkpt>
      <trkpt lat="43.73937" lon="3.57998">
        <ele>305.84</ele>
        <time>2018-01-28T11:09:09Z</time>
      </trkpt>
      <trkpt lat="43.73931" lon="3.57976">
        <ele>303.43</ele>
        <time>2018-01-28T11:09:25Z</time>
      </trkpt>
      <trkpt lat="43.73928" lon="3.57973">
        <ele>301.99</ele>
        <time>2018-01-28T11:09:29Z</time>
      </trkpt>
      <trkpt lat="43.73922" lon="3.57951">
        <ele>299.59</ele>
        <time>2018-01-28T11:09:41Z</time>
      </trkpt>
      <trkpt lat="43.7392" lon="3.57943">
        <ele>300.07</ele>
        <time>2018-01-28T11:09:45Z</time>
      </trkpt>
      <trkpt lat="43.73916" lon="3.57933">
        <ele>300.07</ele>
        <time>2018-01-28T11:09:51Z</time>
      </trkpt>
      <trkpt lat="43.73908" lon="3.5791">
        <ele>301.51</ele>
        <time>2018-01-28T11:10:04Z</time>
      </trkpt>
      <trkpt lat="43.73902" lon="3.57895">
        <ele>301.99</ele>
        <time>2018-01-28T11:10:13Z</time>
      </trkpt>
      <trkpt lat="43.739" lon="3.57878">
        <ele>301.03</ele>
        <time>2018-01-28T11:10:23Z</time>
      </trkpt>
      <trkpt lat="43.73895" lon="3.57868">
        <ele>300.55</ele>
        <time>2018-01-28T11:10:30Z</time>
      </trkpt>
      <trkpt lat="43.7389" lon="3.57845">
        <ele>299.11</ele>
        <time>2018-01-28T11:10:44Z</time>
      </trkpt>
      <trkpt lat="43.73889" lon="3.5784">
        <ele>298.15</ele>
        <time>2018-01-28T11:10:48Z</time>
      </trkpt>
      <trkpt lat="43.73885" lon="3.57833">
        <ele>297.18</ele>
        <time>2018-01-28T11:10:52Z</time>
      </trkpt>
      <trkpt lat="43.73872" lon="3.57805">
        <ele>295.74</ele>
        <time>2018-01-28T11:11:09Z</time>
      </trkpt>
      <trkpt lat="43.73854" lon="3.57789">
        <ele>293.82</ele>
        <time>2018-01-28T11:11:24Z</time>
      </trkpt>
      <trkpt lat="43.73837" lon="3.57776">
        <ele>290.46</ele>
        <time>2018-01-28T11:11:39Z</time>
      </trkpt>
      <trkpt lat="43.73819" lon="3.57767">
        <ele>286.13</ele>
        <time>2018-01-28T11:11:55Z</time>
      </trkpt>
      <trkpt lat="43.73817" lon="3.57765">
        <ele>286.13</ele>
        <time>2018-01-28T11:11:58Z</time>
      </trkpt>
      <trkpt lat="43.73809" lon="3.57736">
        <ele>287.57</ele>
        <time>2018-01-28T11:12:15Z</time>
      </trkpt>
      <trkpt lat="43.73808" lon="3.5773">
        <ele>288.53</ele>
        <time>2018-01-28T11:12:18Z</time>
      </trkpt>
      <trkpt lat="43.73807" lon="3.57726">
        <ele>289.01</ele>
        <time>2018-01-28T11:12:21Z</time>
      </trkpt>
      <trkpt lat="43.73797" lon="3.57704">
        <ele>289.97</ele>
        <time>2018-01-28T11:12:37Z</time>
      </trkpt>
      <trkpt lat="43.73781" lon="3.57695">
        <ele>291.42</ele>
        <time>2018-01-28T11:12:51Z</time>
      </trkpt>
      <trkpt lat="43.7378" lon="3.57693">
        <ele>291.42</ele>
        <time>2018-01-28T11:12:52Z</time>
      </trkpt>
      <trkpt lat="43.7377" lon="3.57682">
        <ele>291.9</ele>
        <time>2018-01-28T11:13:00Z</time>
      </trkpt>
      <trkpt lat="43.73753" lon="3.57668">
        <ele>291.9</ele>
        <time>2018-01-28T11:13:16Z</time>
      </trkpt>
      <trkpt lat="43.73732" lon="3.57665">
        <ele>292.86</ele>
        <time>2018-01-28T11:13:33Z</time>
      </trkpt>
      <trkpt lat="43.73725" lon="3.57668">
        <ele>293.34</ele>
        <time>2018-01-28T11:13:40Z</time>
      </trkpt>
      <trkpt lat="43.73711" lon="3.5767">
        <ele>293.34</ele>
        <time>2018-01-28T11:13:54Z</time>
      </trkpt>
      <trkpt lat="43.73702" lon="3.57669">
        <ele>291.9</ele>
        <time>2018-01-28T11:14:02Z</time>
      </trkpt>
      <trkpt lat="43.73685" lon="3.57667">
        <ele>286.61</ele>
        <time>2018-01-28T11:14:16Z</time>
      </trkpt>
      <trkpt lat="43.7367" lon="3.57661">
        <ele>285.65</ele>
        <time>2018-01-28T11:14:29Z</time>
      </trkpt>
      <trkpt lat="43.7366" lon="3.57657">
        <ele>286.61</ele>
        <time>2018-01-28T11:14:37Z</time>
      </trkpt>
      <trkpt lat="43.73657" lon="3.57656">
        <ele>286.61</ele>
        <time>2018-01-28T11:14:39Z</time>
      </trkpt>
      <trkpt lat="43.73647" lon="3.57658">
        <ele>286.61</ele>
        <time>2018-01-28T11:14:46Z</time>
      </trkpt>
      <trkpt lat="43.73629" lon="3.57653">
        <ele>285.65</ele>
        <time>2018-01-28T11:15:01Z</time>
      </trkpt>
      <trkpt lat="43.73625" lon="3.5765">
        <ele>285.65</ele>
        <time>2018-01-28T11:15:04Z</time>
      </trkpt>
      <trkpt lat="43.73603" lon="3.57642">
        <ele>281.32</ele>
        <time>2018-01-28T11:15:20Z</time>
      </trkpt>
      <trkpt lat="43.73595" lon="3.57639">
        <ele>280.36</ele>
        <time>2018-01-28T11:15:26Z</time>
      </trkpt>
      <trkpt lat="43.73577" lon="3.57628">
        <ele>281.8</ele>
        <time>2018-01-28T11:15:39Z</time>
      </trkpt>
      <trkpt lat="43.73557" lon="3.57614">
        <ele>285.17</ele>
        <time>2018-01-28T11:15:54Z</time>
      </trkpt>
      <trkpt lat="43.73545" lon="3.57604">
        <ele>285.65</ele>
        <time>2018-01-28T11:16:04Z</time>
      </trkpt>
      <trkpt lat="43.73544" lon="3.57602">
        <ele>285.65</ele>
        <time>2018-01-28T11:16:06Z</time>
      </trkpt>
      <trkpt lat="43.73531" lon="3.57589">
        <ele>284.69</ele>
        <time>2018-01-28T11:16:18Z</time>
      </trkpt>
      <trkpt lat="43.73527" lon="3.57586">
        <ele>283.73</ele>
        <time>2018-01-28T11:16:21Z</time>
      </trkpt>
      <trkpt lat="43.73517" lon="3.57568">
        <ele>283.73</ele>
        <time>2018-01-28T11:16:33Z</time>
      </trkpt>
      <trkpt lat="43.73515" lon="3.57564">
        <ele>283.73</ele>
        <time>2018-01-28T11:16:36Z</time>
      </trkpt>
      <trkpt lat="43.73513" lon="3.57553">
        <ele>283.73</ele>
        <time>2018-01-28T11:16:42Z</time>
      </trkpt>
      <trkpt lat="43.73499" lon="3.57535">
        <ele>282.77</ele>
        <time>2018-01-28T11:16:56Z</time>
      </trkpt>
      <trkpt lat="43.73496" lon="3.57533">
        <ele>282.28</ele>
        <time>2018-01-28T11:16:59Z</time>
      </trkpt>
      <trkpt lat="43.73489" lon="3.57526">
        <ele>282.28</ele>
        <time>2018-01-28T11:17:16Z</time>
      </trkpt>
      <trkpt lat="43.73488" lon="3.57526">
        <ele>283.25</ele>
        <time>2018-01-28T11:17:37Z</time>
      </trkpt>
      <trkpt lat="43.73487" lon="3.57525">
        <ele>282.28</ele>
        <time>2018-01-28T11:17:56Z</time>
      </trkpt>
      <trkpt lat="43.73488" lon="3.57525">
        <ele>281.8</ele>
        <time>2018-01-28T11:18:19Z</time>
      </trkpt>
      <trkpt lat="43.73487" lon="3.57519">
        <ele>279.88</ele>
        <time>2018-01-28T11:18:40Z</time>
      </trkpt>
      <trkpt lat="43.73486" lon="3.57513">
        <ele>279.88</ele>
        <time>2018-01-28T11:18:44Z</time>
      </trkpt>
      <trkpt lat="43.73483" lon="3.57487">
        <ele>283.25</ele>
        <time>2018-01-28T11:18:59Z</time>
      </trkpt>
      <trkpt lat="43.73479" lon="3.57481">
        <ele>283.25</ele>
        <time>2018-01-28T11:19:04Z</time>
      </trkpt>
      <trkpt lat="43.7348" lon="3.57478">
        <ele>283.25</ele>
        <time>2018-01-28T11:19:06Z</time>
      </trkpt>
      <trkpt lat="43.73478" lon="3.57458">
        <ele>282.77</ele>
        <time>2018-01-28T11:19:16Z</time>
      </trkpt>
      <trkpt lat="43.73476" lon="3.57443">
        <ele>283.25</ele>
        <time>2018-01-28T11:19:25Z</time>
      </trkpt>
      <trkpt lat="43.73471" lon="3.57421">
        <ele>283.25</ele>
        <time>2018-01-28T11:19:38Z</time>
      </trkpt>
      <trkpt lat="43.73466" lon="3.57414">
        <ele>283.25</ele>
        <time>2018-01-28T11:19:44Z</time>
      </trkpt>
      <trkpt lat="43.73461" lon="3.57402">
        <ele>282.77</ele>
        <time>2018-01-28T11:19:51Z</time>
      </trkpt>
      <trkpt lat="43.7346" lon="3.57395">
        <ele>281.8</ele>
        <time>2018-01-28T11:20:04Z</time>
      </trkpt>
      <trkpt lat="43.73463" lon="3.57395">
        <ele>281.32</ele>
        <time>2018-01-28T11:20:22Z</time>
      </trkpt>
      <trkpt lat="43.73486" lon="3.57402">
        <ele>279.4</ele>
        <time>2018-01-28T11:20:40Z</time>
      </trkpt>
      <trkpt lat="43.73508" lon="3.57411">
        <ele>278.92</ele>
        <time>2018-01-28T11:20:56Z</time>
      </trkpt>
      <trkpt lat="43.73527" lon="3.57416">
        <ele>277.48</ele>
        <time>2018-01-28T11:21:10Z</time>
      </trkpt>
      <trkpt lat="43.73546" lon="3.5742">
        <ele>275.07</ele>
        <time>2018-01-28T11:21:26Z</time>
      </trkpt>
      <trkpt lat="43.73549" lon="3.57419">
        <ele>275.56</ele>
        <time>2018-01-28T11:21:29Z</time>
      </trkpt>
      <trkpt lat="43.73556" lon="3.57412">
        <ele>276.04</ele>
        <time>2018-01-28T11:21:36Z</time>
      </trkpt>
      <trkpt lat="43.73562" lon="3.57404">
        <ele>274.59</ele>
        <time>2018-01-28T11:21:42Z</time>
      </trkpt>
      <trkpt lat="43.73576" lon="3.57377">
        <ele>274.11</ele>
        <time>2018-01-28T11:21:59Z</time>
      </trkpt>
      <trkpt lat="43.73584" lon="3.57358">
        <ele>273.15</ele>
        <time>2018-01-28T11:22:12Z</time>
      </trkpt>
      <trkpt lat="43.73589" lon="3.57348">
        <ele>272.67</ele>
        <time>2018-01-28T11:22:18Z</time>
      </trkpt>
      <trkpt lat="43.73598" lon="3.57326">
        <ele>272.67</ele>
        <time>2018-01-28T11:22:33Z</time>
      </trkpt>
      <trkpt lat="43.7361" lon="3.57301">
        <ele>271.23</ele>
        <time>2018-01-28T11:22:49Z</time>
      </trkpt>
      <trkpt lat="43.73619" lon="3.57271">
        <ele>271.23</ele>
        <time>2018-01-28T11:23:05Z</time>
      </trkpt>
      <trkpt lat="43.73628" lon="3.57235">
        <ele>270.75</ele>
        <time>2018-01-28T11:23:23Z</time>
      </trkpt>
      <trkpt lat="43.73635" lon="3.57198">
        <ele>274.11</ele>
        <time>2018-01-28T11:23:42Z</time>
      </trkpt>
      <trkpt lat="43.73644" lon="3.57164">
        <ele>274.59</ele>
        <time>2018-01-28T11:24:00Z</time>
      </trkpt>
      <trkpt lat="43.73644" lon="3.5716">
        <ele>275.07</ele>
        <time>2018-01-28T11:24:02Z</time>
      </trkpt>
      <trkpt lat="43.73646" lon="3.57155">
        <ele>275.56</ele>
        <time>2018-01-28T11:24:05Z</time>
      </trkpt>
      <trkpt lat="43.7365" lon="3.57148">
        <ele>276.04</ele>
        <time>2018-01-28T11:24:10Z</time>
      </trkpt>
      <trkpt lat="43.7366" lon="3.57134">
        <ele>275.56</ele>
        <time>2018-01-28T11:24:22Z</time>
      </trkpt>
      <trkpt lat="43.73668" lon="3.57117">
        <ele>276.04</ele>
        <time>2018-01-28T11:24:34Z</time>
      </trkpt>
      <trkpt lat="43.73675" lon="3.57091">
        <ele>275.56</ele>
        <time>2018-01-28T11:24:49Z</time>
      </trkpt>
      <trkpt lat="43.73679" lon="3.57058">
        <ele>276.52</ele>
        <time>2018-01-28T11:25:05Z</time>
      </trkpt>
      <trkpt lat="43.73679" lon="3.57044">
        <ele>277</ele>
        <time>2018-01-28T11:25:12Z</time>
      </trkpt>
      <trkpt lat="43.73678" lon="3.57034">
        <ele>276.52</ele>
        <time>2018-01-28T11:25:17Z</time>
      </trkpt>
      <trkpt lat="43.73683" lon="3.57006">
        <ele>276.52</ele>
        <time>2018-01-28T11:25:31Z</time>
      </trkpt>
      <trkpt lat="43.73687" lon="3.56992">
        <ele>276.52</ele>
        <time>2018-01-28T11:25:39Z</time>
      </trkpt>
      <trkpt lat="43.73692" lon="3.56987">
        <ele>277</ele>
        <time>2018-01-28T11:25:44Z</time>
      </trkpt>
      <trkpt lat="43.73698" lon="3.56978">
        <ele>277.48</ele>
        <time>2018-01-28T11:25:51Z</time>
      </trkpt>
      <trkpt lat="43.73703" lon="3.56956">
        <ele>277.96</ele>
        <time>2018-01-28T11:26:05Z</time>
      </trkpt>
      <trkpt lat="43.73702" lon="3.56925">
        <ele>277</ele>
        <time>2018-01-28T11:26:20Z</time>
      </trkpt>
      <trkpt lat="43.73702" lon="3.56916">
        <ele>277.96</ele>
        <time>2018-01-28T11:26:24Z</time>
      </trkpt>
      <trkpt lat="43.73706" lon="3.569">
        <ele>279.4</ele>
        <time>2018-01-28T11:26:33Z</time>
      </trkpt>
      <trkpt lat="43.73721" lon="3.56868">
        <ele>276.52</ele>
        <time>2018-01-28T11:26:51Z</time>
      </trkpt>
      <trkpt lat="43.7373" lon="3.56839">
        <ele>278.44</ele>
        <time>2018-01-28T11:27:06Z</time>
      </trkpt>
      <trkpt lat="43.73739" lon="3.56817">
        <ele>278.44</ele>
        <time>2018-01-28T11:27:19Z</time>
      </trkpt>
      <trkpt lat="43.73745" lon="3.56788">
        <ele>278.44</ele>
        <time>2018-01-28T11:27:34Z</time>
      </trkpt>
      <trkpt lat="43.73751" lon="3.56763">
        <ele>275.56</ele>
        <time>2018-01-28T11:27:48Z</time>
      </trkpt>
      <trkpt lat="43.73753" lon="3.5673">
        <ele>273.15</ele>
        <time>2018-01-28T11:28:04Z</time>
      </trkpt>
      <trkpt lat="43.73753" lon="3.56701">
        <ele>271.71</ele>
        <time>2018-01-28T11:28:19Z</time>
      </trkpt>
      <trkpt lat="43.73755" lon="3.56667">
        <ele>271.71</ele>
        <time>2018-01-28T11:28:36Z</time>
      </trkpt>
      <trkpt lat="43.73759" lon="3.56639">
        <ele>271.23</ele>
        <time>2018-01-28T11:28:51Z</time>
      </trkpt>
      <trkpt lat="43.73762" lon="3.56637">
        <ele>273.63</ele>
        <time>2018-01-28T11:29:03Z</time>
      </trkpt>
      <trkpt lat="43.73761" lon="3.56636">
        <ele>278.44</ele>
        <time>2018-01-28T11:29:41Z</time>
      </trkpt>
      <trkpt lat="43.7376" lon="3.56635">
        <ele>278.44</ele>
        <time>2018-01-28T11:29:45Z</time>
      </trkpt>
      <trkpt lat="43.73745" lon="3.5662">
        <ele>279.4</ele>
        <time>2018-01-28T11:30:02Z</time>
      </trkpt>
      <trkpt lat="43.73739" lon="3.56606">
        <ele>280.36</ele>
        <time>2018-01-28T11:30:16Z</time>
      </trkpt>
      <trkpt lat="43.73739" lon="3.56604">
        <ele>279.4</ele>
        <time>2018-01-28T11:30:33Z</time>
      </trkpt>
      <trkpt lat="43.73746" lon="3.56597">
        <ele>278.92</ele>
        <time>2018-01-28T11:30:40Z</time>
      </trkpt>
      <trkpt lat="43.73754" lon="3.5658">
        <ele>278.92</ele>
        <time>2018-01-28T11:30:51Z</time>
      </trkpt>
      <trkpt lat="43.73754" lon="3.56571">
        <ele>279.88</ele>
        <time>2018-01-28T11:30:56Z</time>
      </trkpt>
      <trkpt lat="43.73755" lon="3.56556">
        <ele>279.88</ele>
        <time>2018-01-28T11:31:04Z</time>
      </trkpt>
      <trkpt lat="43.73762" lon="3.56549">
        <ele>280.36</ele>
        <time>2018-01-28T11:31:10Z</time>
      </trkpt>
      <trkpt lat="43.73775" lon="3.56523">
        <ele>280.36</ele>
        <time>2018-01-28T11:31:27Z</time>
      </trkpt>
      <trkpt lat="43.73792" lon="3.56511">
        <ele>280.36</ele>
        <time>2018-01-28T11:31:41Z</time>
      </trkpt>
      <trkpt lat="43.73792" lon="3.56502">
        <ele>279.88</ele>
        <time>2018-01-28T11:31:46Z</time>
      </trkpt>
      <trkpt lat="43.73797" lon="3.56491">
        <ele>278.44</ele>
        <time>2018-01-28T11:31:53Z</time>
      </trkpt>
      <trkpt lat="43.7379" lon="3.5648">
        <ele>276.04</ele>
        <time>2018-01-28T11:32:09Z</time>
      </trkpt>
      <trkpt lat="43.73796" lon="3.56479">
        <ele>276.04</ele>
        <time>2018-01-28T11:32:24Z</time>
      </trkpt>
      <trkpt lat="43.73795" lon="3.56479">
        <ele>276.04</ele>
        <time>2018-01-28T11:32:41Z</time>
      </trkpt>
      <trkpt lat="43.73795" lon="3.56479">
        <ele>276.04</ele>
        <time>2018-01-28T11:32:42Z</time>
      </trkpt>
      <trkpt lat="43.73785" lon="3.56473">
        <ele>274.59</ele>
        <time>2018-01-28T11:32:54Z</time>
      </trkpt>
      <trkpt lat="43.73771" lon="3.56463">
        <ele>274.59</ele>
        <time>2018-01-28T11:33:08Z</time>
      </trkpt>
      <trkpt lat="43.7376" lon="3.56457">
        <ele>274.59</ele>
        <time>2018-01-28T11:33:21Z</time>
      </trkpt>
      <trkpt lat="43.73758" lon="3.56458">
        <ele>274.59</ele>
        <time>2018-01-28T11:33:35Z</time>
      </trkpt>
      <trkpt lat="43.73759" lon="3.56457">
        <ele>275.56</ele>
        <time>2018-01-28T11:33:50Z</time>
      </trkpt>
      <trkpt lat="43.73759" lon="3.56456">
        <ele>275.56</ele>
        <time>2018-01-28T11:34:13Z</time>
      </trkpt>
      <trkpt lat="43.73759" lon="3.56456">
        <ele>275.07</ele>
        <time>2018-01-28T11:34:17Z</time>
      </trkpt>
      <trkpt lat="43.73756" lon="3.56458">
        <ele>270.27</ele>
        <time>2018-01-28T12:36:59Z</time>
      </trkpt>
      <trkpt lat="43.73757" lon="3.56453">
        <ele>268.35</ele>
        <time>2018-01-28T12:37:28Z</time>
      </trkpt>
      <trkpt lat="43.73756" lon="3.56455">
        <ele>270.27</ele>
        <time>2018-01-28T12:37:53Z</time>
      </trkpt>
      <trkpt lat="43.73757" lon="3.56455">
        <ele>272.19</ele>
        <time>2018-01-28T12:38:18Z</time>
      </trkpt>
      <trkpt lat="43.73757" lon="3.56456">
        <ele>272.19</ele>
        <time>2018-01-28T12:38:45Z</time>
      </trkpt>
      <trkpt lat="43.73756" lon="3.56458">
        <ele>274.11</ele>
        <time>2018-01-28T12:39:06Z</time>
      </trkpt>
      <trkpt lat="43.73756" lon="3.56462">
        <ele>274.59</ele>
        <time>2018-01-28T12:39:24Z</time>
      </trkpt>
      <trkpt lat="43.73752" lon="3.56464">
        <ele>275.56</ele>
        <time>2018-01-28T12:39:37Z</time>
      </trkpt>
      <trkpt lat="43.73743" lon="3.56458">
        <ele>277.96</ele>
        <time>2018-01-28T12:39:51Z</time>
      </trkpt>
      <trkpt lat="43.73734" lon="3.5645">
        <ele>278.44</ele>
        <time>2018-01-28T12:40:04Z</time>
      </trkpt>
      <trkpt lat="43.73724" lon="3.56435">
        <ele>275.07</ele>
        <time>2018-01-28T12:40:16Z</time>
      </trkpt>
      <trkpt lat="43.73722" lon="3.56432">
        <ele>274.59</ele>
        <time>2018-01-28T12:40:18Z</time>
      </trkpt>
      <trkpt lat="43.73713" lon="3.56422">
        <ele>271.71</ele>
        <time>2018-01-28T12:40:29Z</time>
      </trkpt>
      <trkpt lat="43.73707" lon="3.56418">
        <ele>272.19</ele>
        <time>2018-01-28T12:40:36Z</time>
      </trkpt>
      <trkpt lat="43.73693" lon="3.56405">
        <ele>273.63</ele>
        <time>2018-01-28T12:40:51Z</time>
      </trkpt>
      <trkpt lat="43.73684" lon="3.56395">
        <ele>271.71</ele>
        <time>2018-01-28T12:41:03Z</time>
      </trkpt>
      <trkpt lat="43.73677" lon="3.5638">
        <ele>270.75</ele>
        <time>2018-01-28T12:41:16Z</time>
      </trkpt>
      <trkpt lat="43.73675" lon="3.5637">
        <ele>272.67</ele>
        <time>2018-01-28T12:41:21Z</time>
      </trkpt>
      <trkpt lat="43.73663" lon="3.56352">
        <ele>271.71</ele>
        <time>2018-01-28T12:41:36Z</time>
      </trkpt>
      <trkpt lat="43.73656" lon="3.56339">
        <ele>271.23</ele>
        <time>2018-01-28T12:41:49Z</time>
      </trkpt>
      <trkpt lat="43.73662" lon="3.56324">
        <ele>270.75</ele>
        <time>2018-01-28T12:42:03Z</time>
      </trkpt>
      <trkpt lat="43.73662" lon="3.56323">
        <ele>270.75</ele>
        <time>2018-01-28T12:42:04Z</time>
      </trkpt>
      <trkpt lat="43.73657" lon="3.56317">
        <ele>267.38</ele>
        <time>2018-01-28T12:42:16Z</time>
      </trkpt>
      <trkpt lat="43.73656" lon="3.56315">
        <ele>269.31</ele>
        <time>2018-01-28T12:42:37Z</time>
      </trkpt>
      <trkpt lat="43.73657" lon="3.56312">
        <ele>270.75</ele>
        <time>2018-01-28T12:43:06Z</time>
      </trkpt>
      <trkpt lat="43.73657" lon="3.56311">
        <ele>272.67</ele>
        <time>2018-01-28T12:43:31Z</time>
      </trkpt>
      <trkpt lat="43.73661" lon="3.56322">
        <ele>270.75</ele>
        <time>2018-01-28T12:43:46Z</time>
      </trkpt>
      <trkpt lat="43.73659" lon="3.56334">
        <ele>270.27</ele>
        <time>2018-01-28T12:44:01Z</time>
      </trkpt>
      <trkpt lat="43.73657" lon="3.56338">
        <ele>269.79</ele>
        <time>2018-01-28T12:44:06Z</time>
      </trkpt>
      <trkpt lat="43.73648" lon="3.56347">
        <ele>268.83</ele>
        <time>2018-01-28T12:44:19Z</time>
      </trkpt>
      <trkpt lat="43.73646" lon="3.56348">
        <ele>268.35</ele>
        <time>2018-01-28T12:44:21Z</time>
      </trkpt>
      <trkpt lat="43.73631" lon="3.56346">
        <ele>264.02</ele>
        <time>2018-01-28T12:44:35Z</time>
      </trkpt>
      <trkpt lat="43.73621" lon="3.5634">
        <ele>261.62</ele>
        <time>2018-01-28T12:44:46Z</time>
      </trkpt>
      <trkpt lat="43.73605" lon="3.5634">
        <ele>263.54</ele>
        <time>2018-01-28T12:45:00Z</time>
      </trkpt>
      <trkpt lat="43.73596" lon="3.56333">
        <ele>265.46</ele>
        <time>2018-01-28T12:45:10Z</time>
      </trkpt>
      <trkpt lat="43.73593" lon="3.56318">
        <ele>265.46</ele>
        <time>2018-01-28T12:45:21Z</time>
      </trkpt>
      <trkpt lat="43.73591" lon="3.5631">
        <ele>265.46</ele>
        <time>2018-01-28T12:45:26Z</time>
      </trkpt>
      <trkpt lat="43.73581" lon="3.56291">
        <ele>269.31</ele>
        <time>2018-01-28T12:45:40Z</time>
      </trkpt>
      <trkpt lat="43.7357" lon="3.56284">
        <ele>265.46</ele>
        <time>2018-01-28T12:45:52Z</time>
      </trkpt>
      <trkpt lat="43.7356" lon="3.56284">
        <ele>261.14</ele>
        <time>2018-01-28T12:46:04Z</time>
      </trkpt>
      <trkpt lat="43.73545" lon="3.56285">
        <ele>263.54</ele>
        <time>2018-01-28T12:46:14Z</time>
      </trkpt>
      <trkpt lat="43.73533" lon="3.5628">
        <ele>269.31</ele>
        <time>2018-01-28T12:46:24Z</time>
      </trkpt>
      <trkpt lat="43.73533" lon="3.56277">
        <ele>269.79</ele>
        <time>2018-01-28T12:46:27Z</time>
      </trkpt>
      <trkpt lat="43.73528" lon="3.56274">
        <ele>268.35</ele>
        <time>2018-01-28T12:46:31Z</time>
      </trkpt>
      <trkpt lat="43.73522" lon="3.56271">
        <ele>266.9</ele>
        <time>2018-01-28T12:46:37Z</time>
      </trkpt>
      <trkpt lat="43.7351" lon="3.56262">
        <ele>268.83</ele>
        <time>2018-01-28T12:46:49Z</time>
      </trkpt>
      <trkpt lat="43.73498" lon="3.56258">
        <ele>268.35</ele>
        <time>2018-01-28T12:47:00Z</time>
      </trkpt>
      <trkpt lat="43.73485" lon="3.56249">
        <ele>270.27</ele>
        <time>2018-01-28T12:47:14Z</time>
      </trkpt>
      <trkpt lat="43.73479" lon="3.56244">
        <ele>268.83</ele>
        <time>2018-01-28T12:47:20Z</time>
      </trkpt>
      <trkpt lat="43.73461" lon="3.56241">
        <ele>267.38</ele>
        <time>2018-01-28T12:47:34Z</time>
      </trkpt>
      <trkpt lat="43.7345" lon="3.56232">
        <ele>265.94</ele>
        <time>2018-01-28T12:47:46Z</time>
      </trkpt>
      <trkpt lat="43.73442" lon="3.56229">
        <ele>266.9</ele>
        <time>2018-01-28T12:47:56Z</time>
      </trkpt>
      <trkpt lat="43.7343" lon="3.56227">
        <ele>264.98</ele>
        <time>2018-01-28T12:48:07Z</time>
      </trkpt>
      <trkpt lat="43.73421" lon="3.56225">
        <ele>266.9</ele>
        <time>2018-01-28T12:48:13Z</time>
      </trkpt>
      <trkpt lat="43.73395" lon="3.56218">
        <ele>271.71</ele>
        <time>2018-01-28T12:48:29Z</time>
      </trkpt>
      <trkpt lat="43.7338" lon="3.56209">
        <ele>272.67</ele>
        <time>2018-01-28T12:48:43Z</time>
      </trkpt>
      <trkpt lat="43.73376" lon="3.56205">
        <ele>275.07</ele>
        <time>2018-01-28T12:48:49Z</time>
      </trkpt>
      <trkpt lat="43.73373" lon="3.56202">
        <ele>277</ele>
        <time>2018-01-28T12:48:52Z</time>
      </trkpt>
      <trkpt lat="43.73363" lon="3.56187">
        <ele>278.44</ele>
        <time>2018-01-28T12:49:03Z</time>
      </trkpt>
      <trkpt lat="43.73359" lon="3.56175">
        <ele>277</ele>
        <time>2018-01-28T12:49:14Z</time>
      </trkpt>
      <trkpt lat="43.73353" lon="3.56164">
        <ele>280.84</ele>
        <time>2018-01-28T12:49:24Z</time>
      </trkpt>
      <trkpt lat="43.73351" lon="3.56158">
        <ele>280.84</ele>
        <time>2018-01-28T12:49:29Z</time>
      </trkpt>
      <trkpt lat="43.73341" lon="3.56141">
        <ele>277</ele>
        <time>2018-01-28T12:49:42Z</time>
      </trkpt>
      <trkpt lat="43.73338" lon="3.56135">
        <ele>277</ele>
        <time>2018-01-28T12:49:47Z</time>
      </trkpt>
      <trkpt lat="43.73324" lon="3.56116">
        <ele>275.56</ele>
        <time>2018-01-28T12:50:01Z</time>
      </trkpt>
      <trkpt lat="43.73316" lon="3.56114">
        <ele>273.15</ele>
        <time>2018-01-28T12:50:11Z</time>
      </trkpt>
      <trkpt lat="43.73309" lon="3.5612">
        <ele>273.63</ele>
        <time>2018-01-28T12:50:21Z</time>
      </trkpt>
      <trkpt lat="43.73297" lon="3.56126">
        <ele>274.11</ele>
        <time>2018-01-28T12:50:33Z</time>
      </trkpt>
      <trkpt lat="43.73293" lon="3.56127">
        <ele>274.11</ele>
        <time>2018-01-28T12:50:37Z</time>
      </trkpt>
      <trkpt lat="43.73279" lon="3.56126">
        <ele>274.11</ele>
        <time>2018-01-28T12:50:50Z</time>
      </trkpt>
      <trkpt lat="43.73275" lon="3.56122">
        <ele>274.11</ele>
        <time>2018-01-28T12:50:54Z</time>
      </trkpt>
      <trkpt lat="43.73254" lon="3.56118">
        <ele>273.63</ele>
        <time>2018-01-28T12:51:10Z</time>
      </trkpt>
      <trkpt lat="43.73249" lon="3.56115">
        <ele>272.67</ele>
        <time>2018-01-28T12:51:14Z</time>
      </trkpt>
      <trkpt lat="43.73237" lon="3.56103">
        <ele>271.71</ele>
        <time>2018-01-28T12:51:26Z</time>
      </trkpt>
      <trkpt lat="43.73236" lon="3.56101">
        <ele>272.19</ele>
        <time>2018-01-28T12:51:29Z</time>
      </trkpt>
      <trkpt lat="43.73231" lon="3.56096">
        <ele>272.67</ele>
        <time>2018-01-28T12:51:37Z</time>
      </trkpt>
      <trkpt lat="43.7323" lon="3.56085">
        <ele>275.07</ele>
        <time>2018-01-28T12:51:47Z</time>
      </trkpt>
      <trkpt lat="43.73227" lon="3.56063">
        <ele>277.96</ele>
        <time>2018-01-28T12:51:59Z</time>
      </trkpt>
      <trkpt lat="43.7322" lon="3.56053">
        <ele>275.56</ele>
        <time>2018-01-28T12:52:10Z</time>
      </trkpt>
      <trkpt lat="43.73213" lon="3.56046">
        <ele>273.63</ele>
        <time>2018-01-28T12:52:16Z</time>
      </trkpt>
      <trkpt lat="43.73196" lon="3.56028">
        <ele>282.28</ele>
        <time>2018-01-28T12:52:33Z</time>
      </trkpt>
      <trkpt lat="43.73188" lon="3.56022">
        <ele>283.25</ele>
        <time>2018-01-28T12:52:41Z</time>
      </trkpt>
      <trkpt lat="43.73171" lon="3.56012">
        <ele>281.8</ele>
        <time>2018-01-28T12:52:56Z</time>
      </trkpt>
      <trkpt lat="43.7317" lon="3.56009">
        <ele>282.28</ele>
        <time>2018-01-28T12:52:58Z</time>
      </trkpt>
      <trkpt lat="43.73167" lon="3.55994">
        <ele>285.17</ele>
        <time>2018-01-28T12:53:10Z</time>
      </trkpt>
      <trkpt lat="43.73158" lon="3.55973">
        <ele>286.13</ele>
        <time>2018-01-28T12:53:27Z</time>
      </trkpt>
      <trkpt lat="43.73156" lon="3.55968">
        <ele>286.13</ele>
        <time>2018-01-28T12:53:31Z</time>
      </trkpt>
      <trkpt lat="43.73156" lon="3.55965">
        <ele>286.13</ele>
        <time>2018-01-28T12:53:33Z</time>
      </trkpt>
      <trkpt lat="43.73158" lon="3.5594">
        <ele>285.17</ele>
        <time>2018-01-28T12:53:48Z</time>
      </trkpt>
      <trkpt lat="43.7315" lon="3.55925">
        <ele>282.28</ele>
        <time>2018-01-28T12:54:02Z</time>
      </trkpt>
      <trkpt lat="43.7315" lon="3.55907">
        <ele>279.88</ele>
        <time>2018-01-28T12:54:14Z</time>
      </trkpt>
      <trkpt lat="43.73151" lon="3.55894">
        <ele>279.88</ele>
        <time>2018-01-28T12:54:29Z</time>
      </trkpt>
      <trkpt lat="43.73152" lon="3.55893">
        <ele>280.84</ele>
        <time>2018-01-28T12:54:56Z</time>
      </trkpt>
      <trkpt lat="43.73153" lon="3.55894">
        <ele>280.84</ele>
        <time>2018-01-28T12:55:27Z</time>
      </trkpt>
      <trkpt lat="43.73154" lon="3.55893">
        <ele>278.92</ele>
        <time>2018-01-28T12:55:57Z</time>
      </trkpt>
      <trkpt lat="43.73153" lon="3.55894">
        <ele>280.36</ele>
        <time>2018-01-28T12:56:18Z</time>
      </trkpt>
      <trkpt lat="43.73153" lon="3.55895">
        <ele>279.88</ele>
        <time>2018-01-28T12:56:51Z</time>
      </trkpt>
      <trkpt lat="43.73153" lon="3.55896">
        <ele>279.4</ele>
        <time>2018-01-28T12:57:13Z</time>
      </trkpt>
      <trkpt lat="43.73152" lon="3.55896">
        <ele>279.4</ele>
        <time>2018-01-28T12:57:25Z</time>
      </trkpt>
      <trkpt lat="43.73154" lon="3.55897">
        <ele>280.36</ele>
        <time>2018-01-28T12:57:53Z</time>
      </trkpt>
      <trkpt lat="43.73154" lon="3.55894">
        <ele>280.36</ele>
        <time>2018-01-28T12:58:23Z</time>
      </trkpt>
      <trkpt lat="43.73153" lon="3.55895">
        <ele>281.32</ele>
        <time>2018-01-28T12:58:40Z</time>
      </trkpt>
      <trkpt lat="43.73154" lon="3.55895">
        <ele>279.4</ele>
        <time>2018-01-28T12:59:08Z</time>
      </trkpt>
      <trkpt lat="43.73155" lon="3.55895">
        <ele>279.4</ele>
        <time>2018-01-28T12:59:24Z</time>
      </trkpt>
      <trkpt lat="43.73155" lon="3.55894">
        <ele>278.44</ele>
        <time>2018-01-28T12:59:41Z</time>
      </trkpt>
      <trkpt lat="43.73154" lon="3.55895">
        <ele>278.92</ele>
        <time>2018-01-28T13:00:04Z</time>
      </trkpt>
      <trkpt lat="43.73154" lon="3.55894">
        <ele>277.96</ele>
        <time>2018-01-28T13:00:29Z</time>
      </trkpt>
      <trkpt lat="43.73152" lon="3.55894">
        <ele>277.96</ele>
        <time>2018-01-28T13:00:48Z</time>
      </trkpt>
      <trkpt lat="43.7315" lon="3.55895">
        <ele>277</ele>
        <time>2018-01-28T13:01:03Z</time>
      </trkpt>
      <trkpt lat="43.7315" lon="3.55894">
        <ele>277.48</ele>
        <time>2018-01-28T13:01:29Z</time>
      </trkpt>
      <trkpt lat="43.73151" lon="3.55894">
        <ele>275.07</ele>
        <time>2018-01-28T13:02:02Z</time>
      </trkpt>
      <trkpt lat="43.73151" lon="3.55895">
        <ele>273.15</ele>
        <time>2018-01-28T13:02:36Z</time>
      </trkpt>
      <trkpt lat="43.7315" lon="3.55894">
        <ele>275.07</ele>
        <time>2018-01-28T13:03:05Z</time>
      </trkpt>
      <trkpt lat="43.73151" lon="3.55892">
        <ele>276.04</ele>
        <time>2018-01-28T13:03:32Z</time>
      </trkpt>
      <trkpt lat="43.7315" lon="3.55892">
        <ele>276.04</ele>
        <time>2018-01-28T13:03:52Z</time>
      </trkpt>
      <trkpt lat="43.73151" lon="3.55893">
        <ele>276.04</ele>
        <time>2018-01-28T13:04:14Z</time>
      </trkpt>
      <trkpt lat="43.73149" lon="3.55894">
        <ele>276.04</ele>
        <time>2018-01-28T13:04:40Z</time>
      </trkpt>
      <trkpt lat="43.7315" lon="3.55893">
        <ele>276.04</ele>
        <time>2018-01-28T13:05:00Z</time>
      </trkpt>
      <trkpt lat="43.73151" lon="3.55896">
        <ele>276.52</ele>
        <time>2018-01-28T13:05:18Z</time>
      </trkpt>
      <trkpt lat="43.73145" lon="3.55904">
        <ele>277.96</ele>
        <time>2018-01-28T13:05:32Z</time>
      </trkpt>
      <trkpt lat="43.73138" lon="3.55916">
        <ele>279.4</ele>
        <time>2018-01-28T13:05:44Z</time>
      </trkpt>
      <trkpt lat="43.73132" lon="3.55932">
        <ele>282.28</ele>
        <time>2018-01-28T13:05:57Z</time>
      </trkpt>
      <trkpt lat="43.73129" lon="3.55951">
        <ele>282.28</ele>
        <time>2018-01-28T13:06:10Z</time>
      </trkpt>
      <trkpt lat="43.73129" lon="3.55962">
        <ele>281.32</ele>
        <time>2018-01-28T13:06:24Z</time>
      </trkpt>
      <trkpt lat="43.73127" lon="3.55973">
        <ele>278.44</ele>
        <time>2018-01-28T13:06:34Z</time>
      </trkpt>
      <trkpt lat="43.73122" lon="3.55977">
        <ele>278.92</ele>
        <time>2018-01-28T13:06:39Z</time>
      </trkpt>
      <trkpt lat="43.73119" lon="3.55986">
        <ele>277</ele>
        <time>2018-01-28T13:06:46Z</time>
      </trkpt>
      <trkpt lat="43.73113" lon="3.56017">
        <ele>280.36</ele>
        <time>2018-01-28T13:07:04Z</time>
      </trkpt>
      <trkpt lat="43.73111" lon="3.56033">
        <ele>279.4</ele>
        <time>2018-01-28T13:07:16Z</time>
      </trkpt>
      <trkpt lat="43.73111" lon="3.56036">
        <ele>279.4</ele>
        <time>2018-01-28T13:07:18Z</time>
      </trkpt>
      <trkpt lat="43.7311" lon="3.56045">
        <ele>278.44</ele>
        <time>2018-01-28T13:07:23Z</time>
      </trkpt>
      <trkpt lat="43.73108" lon="3.56054">
        <ele>277.48</ele>
        <time>2018-01-28T13:07:27Z</time>
      </trkpt>
      <trkpt lat="43.73105" lon="3.56086">
        <ele>277.48</ele>
        <time>2018-01-28T13:07:41Z</time>
      </trkpt>
      <trkpt lat="43.731" lon="3.5611">
        <ele>276.52</ele>
        <time>2018-01-28T13:07:55Z</time>
      </trkpt>
      <trkpt lat="43.73094" lon="3.56128">
        <ele>277</ele>
        <time>2018-01-28T13:08:07Z</time>
      </trkpt>
      <trkpt lat="43.73085" lon="3.56148">
        <ele>274.11</ele>
        <time>2018-01-28T13:08:20Z</time>
      </trkpt>
      <trkpt lat="43.73082" lon="3.56151">
        <ele>274.11</ele>
        <time>2018-01-28T13:08:23Z</time>
      </trkpt>
      <trkpt lat="43.73067" lon="3.56167">
        <ele>269.31</ele>
        <time>2018-01-28T13:08:37Z</time>
      </trkpt>
      <trkpt lat="43.73063" lon="3.56172">
        <ele>266.9</ele>
        <time>2018-01-28T13:08:42Z</time>
      </trkpt>
      <trkpt lat="43.73046" lon="3.56189">
        <ele>265.46</ele>
        <time>2018-01-28T13:08:56Z</time>
      </trkpt>
      <trkpt lat="43.73024" lon="3.5621">
        <ele>268.83</ele>
        <time>2018-01-28T13:09:13Z</time>
      </trkpt>
      <trkpt lat="43.73022" lon="3.5621">
        <ele>268.35</ele>
        <time>2018-01-28T13:09:15Z</time>
      </trkpt>
      <trkpt lat="43.73017" lon="3.56211">
        <ele>267.86</ele>
        <time>2018-01-28T13:09:19Z</time>
      </trkpt>
      <trkpt lat="43.72992" lon="3.56211">
        <ele>265.46</ele>
        <time>2018-01-28T13:09:35Z</time>
      </trkpt>
      <trkpt lat="43.72981" lon="3.56211">
        <ele>264.98</ele>
        <time>2018-01-28T13:09:48Z</time>
      </trkpt>
      <trkpt lat="43.7298" lon="3.56215">
        <ele>269.31</ele>
        <time>2018-01-28T13:10:04Z</time>
      </trkpt>
      <trkpt lat="43.7297" lon="3.56214">
        <ele>272.19</ele>
        <time>2018-01-28T13:10:25Z</time>
      </trkpt>
      <trkpt lat="43.72961" lon="3.56216">
        <ele>271.71</ele>
        <time>2018-01-28T13:10:32Z</time>
      </trkpt>
      <trkpt lat="43.72954" lon="3.5622">
        <ele>271.23</ele>
        <time>2018-01-28T13:10:38Z</time>
      </trkpt>
      <trkpt lat="43.72941" lon="3.56229">
        <ele>274.59</ele>
        <time>2018-01-28T13:10:49Z</time>
      </trkpt>
      <trkpt lat="43.72936" lon="3.56234">
        <ele>275.56</ele>
        <time>2018-01-28T13:10:54Z</time>
      </trkpt>
      <trkpt lat="43.72921" lon="3.56257">
        <ele>277</ele>
        <time>2018-01-28T13:11:11Z</time>
      </trkpt>
      <trkpt lat="43.72908" lon="3.56278">
        <ele>276.52</ele>
        <time>2018-01-28T13:11:25Z</time>
      </trkpt>
      <trkpt lat="43.72907" lon="3.56279">
        <ele>276.52</ele>
        <time>2018-01-28T13:11:26Z</time>
      </trkpt>
      <trkpt lat="43.7289" lon="3.5628">
        <ele>277</ele>
        <time>2018-01-28T13:11:41Z</time>
      </trkpt>
      <trkpt lat="43.72873" lon="3.56271">
        <ele>275.07</ele>
        <time>2018-01-28T13:11:55Z</time>
      </trkpt>
      <trkpt lat="43.72868" lon="3.56269">
        <ele>274.11</ele>
        <time>2018-01-28T13:11:59Z</time>
      </trkpt>
      <trkpt lat="43.72852" lon="3.56264">
        <ele>273.63</ele>
        <time>2018-01-28T13:12:11Z</time>
      </trkpt>
      <trkpt lat="43.72847" lon="3.56268">
        <ele>273.63</ele>
        <time>2018-01-28T13:12:15Z</time>
      </trkpt>
      <trkpt lat="43.72848" lon="3.56274">
        <ele>274.59</ele>
        <time>2018-01-28T13:12:31Z</time>
      </trkpt>
      <trkpt lat="43.72846" lon="3.56272">
        <ele>275.07</ele>
        <time>2018-01-28T13:12:50Z</time>
      </trkpt>
      <trkpt lat="43.72847" lon="3.5627">
        <ele>276.04</ele>
        <time>2018-01-28T13:13:16Z</time>
      </trkpt>
      <trkpt lat="43.72846" lon="3.56273">
        <ele>276.04</ele>
        <time>2018-01-28T13:13:18Z</time>
      </trkpt>
      <trkpt lat="43.72843" lon="3.56301">
        <ele>277.48</ele>
        <time>2018-01-28T13:13:33Z</time>
      </trkpt>
      <trkpt lat="43.72835" lon="3.56335">
        <ele>276.04</ele>
        <time>2018-01-28T13:13:51Z</time>
      </trkpt>
      <trkpt lat="43.72827" lon="3.56363">
        <ele>275.07</ele>
        <time>2018-01-28T13:14:06Z</time>
      </trkpt>
      <trkpt lat="43.72818" lon="3.56392">
        <ele>274.59</ele>
        <time>2018-01-28T13:14:22Z</time>
      </trkpt>
      <trkpt lat="43.72814" lon="3.56425">
        <ele>274.59</ele>
        <time>2018-01-28T13:14:40Z</time>
      </trkpt>
      <trkpt lat="43.72815" lon="3.56438">
        <ele>276.04</ele>
        <time>2018-01-28T13:14:56Z</time>
      </trkpt>
      <trkpt lat="43.72813" lon="3.56461">
        <ele>275.07</ele>
        <time>2018-01-28T13:15:09Z</time>
      </trkpt>
      <trkpt lat="43.7281" lon="3.56484">
        <ele>273.63</ele>
        <time>2018-01-28T13:15:21Z</time>
      </trkpt>
      <trkpt lat="43.72806" lon="3.56514">
        <ele>271.23</ele>
        <time>2018-01-28T13:15:36Z</time>
      </trkpt>
      <trkpt lat="43.72806" lon="3.56523">
        <ele>270.75</ele>
        <time>2018-01-28T13:15:40Z</time>
      </trkpt>
      <trkpt lat="43.72805" lon="3.56524">
        <ele>270.75</ele>
        <time>2018-01-28T13:15:41Z</time>
      </trkpt>
      <trkpt lat="43.72805" lon="3.56528">
        <ele>270.75</ele>
        <time>2018-01-28T13:15:43Z</time>
      </trkpt>
      <trkpt lat="43.72797" lon="3.56557">
        <ele>267.86</ele>
        <time>2018-01-28T13:15:59Z</time>
      </trkpt>
      <trkpt lat="43.72779" lon="3.56576">
        <ele>270.75</ele>
        <time>2018-01-28T13:16:15Z</time>
      </trkpt>
      <trkpt lat="43.72759" lon="3.56595">
        <ele>273.15</ele>
        <time>2018-01-28T13:16:32Z</time>
      </trkpt>
      <trkpt lat="43.72745" lon="3.56617">
        <ele>274.11</ele>
        <time>2018-01-28T13:16:48Z</time>
      </trkpt>
      <trkpt lat="43.72725" lon="3.56636">
        <ele>273.63</ele>
        <time>2018-01-28T13:17:06Z</time>
      </trkpt>
      <trkpt lat="43.72722" lon="3.56636">
        <ele>273.15</ele>
        <time>2018-01-28T13:17:08Z</time>
      </trkpt>
      <trkpt lat="43.727" lon="3.56632">
        <ele>271.23</ele>
        <time>2018-01-28T13:17:24Z</time>
      </trkpt>
      <trkpt lat="43.72687" lon="3.56638">
        <ele>272.19</ele>
        <time>2018-01-28T13:17:39Z</time>
      </trkpt>
      <trkpt lat="43.72687" lon="3.56638">
        <ele>271.71</ele>
        <time>2018-01-28T13:18:09Z</time>
      </trkpt>
      <trkpt lat="43.72682" lon="3.5664">
        <ele>273.15</ele>
        <time>2018-01-28T13:18:31Z</time>
      </trkpt>
      <trkpt lat="43.72681" lon="3.56642">
        <ele>273.15</ele>
        <time>2018-01-28T13:18:32Z</time>
      </trkpt>
      <trkpt lat="43.7268" lon="3.56643">
        <ele>273.15</ele>
        <time>2018-01-28T13:18:33Z</time>
      </trkpt>
      <trkpt lat="43.72679" lon="3.56644">
        <ele>272.67</ele>
        <time>2018-01-28T13:18:34Z</time>
      </trkpt>
      <trkpt lat="43.72678" lon="3.56646">
        <ele>272.67</ele>
        <time>2018-01-28T13:18:35Z</time>
      </trkpt>
      <trkpt lat="43.72677" lon="3.56647">
        <ele>272.67</ele>
        <time>2018-01-28T13:18:36Z</time>
      </trkpt>
      <trkpt lat="43.72663" lon="3.56669">
        <ele>272.19</ele>
        <time>2018-01-28T13:18:55Z</time>
      </trkpt>
      <trkpt lat="43.72655" lon="3.5669">
        <ele>273.15</ele>
        <time>2018-01-28T13:19:09Z</time>
      </trkpt>
      <trkpt lat="43.72646" lon="3.56713">
        <ele>274.11</ele>
        <time>2018-01-28T13:19:25Z</time>
      </trkpt>
      <trkpt lat="43.72635" lon="3.56743">
        <ele>273.15</ele>
        <time>2018-01-28T13:19:40Z</time>
      </trkpt>
      <trkpt lat="43.7263" lon="3.56771">
        <ele>272.19</ele>
        <time>2018-01-28T13:19:54Z</time>
      </trkpt>
      <trkpt lat="43.7263" lon="3.56802">
        <ele>275.56</ele>
        <time>2018-01-28T13:20:09Z</time>
      </trkpt>
      <trkpt lat="43.7263" lon="3.56835">
        <ele>278.44</ele>
        <time>2018-01-28T13:20:26Z</time>
      </trkpt>
      <trkpt lat="43.72625" lon="3.56865">
        <ele>281.32</ele>
        <time>2018-01-28T13:20:42Z</time>
      </trkpt>
      <trkpt lat="43.72616" lon="3.56897">
        <ele>281.8</ele>
        <time>2018-01-28T13:21:00Z</time>
      </trkpt>
      <trkpt lat="43.72613" lon="3.56931">
        <ele>280.84</ele>
        <time>2018-01-28T13:21:17Z</time>
      </trkpt>
      <trkpt lat="43.72605" lon="3.56958">
        <ele>278.92</ele>
        <time>2018-01-28T13:21:32Z</time>
      </trkpt>
      <trkpt lat="43.72592" lon="3.56988">
        <ele>277.96</ele>
        <time>2018-01-28T13:21:49Z</time>
      </trkpt>
      <trkpt lat="43.72578" lon="3.57012">
        <ele>276.04</ele>
        <time>2018-01-28T13:22:05Z</time>
      </trkpt>
      <trkpt lat="43.72563" lon="3.57032">
        <ele>274.59</ele>
        <time>2018-01-28T13:22:21Z</time>
      </trkpt>
      <trkpt lat="43.72544" lon="3.57052">
        <ele>276.04</ele>
        <time>2018-01-28T13:22:39Z</time>
      </trkpt>
      <trkpt lat="43.72521" lon="3.57076">
        <ele>275.56</ele>
        <time>2018-01-28T13:22:58Z</time>
      </trkpt>
      <trkpt lat="43.725" lon="3.57097">
        <ele>275.07</ele>
        <time>2018-01-28T13:23:16Z</time>
      </trkpt>
      <trkpt lat="43.7248" lon="3.57116">
        <ele>274.11</ele>
        <time>2018-01-28T13:23:34Z</time>
      </trkpt>
      <trkpt lat="43.72459" lon="3.57135">
        <ele>273.63</ele>
        <time>2018-01-28T13:23:51Z</time>
      </trkpt>
      <trkpt lat="43.72439" lon="3.57152">
        <ele>275.07</ele>
        <time>2018-01-28T13:24:08Z</time>
      </trkpt>
      <trkpt lat="43.72423" lon="3.57173">
        <ele>276.52</ele>
        <time>2018-01-28T13:24:23Z</time>
      </trkpt>
      <trkpt lat="43.72412" lon="3.57205">
        <ele>278.44</ele>
        <time>2018-01-28T13:24:40Z</time>
      </trkpt>
      <trkpt lat="43.72403" lon="3.5723">
        <ele>277.48</ele>
        <time>2018-01-28T13:24:55Z</time>
      </trkpt>
      <trkpt lat="43.72391" lon="3.57255">
        <ele>278.44</ele>
        <time>2018-01-28T13:25:10Z</time>
      </trkpt>
      <trkpt lat="43.72386" lon="3.57262">
        <ele>279.4</ele>
        <time>2018-01-28T13:25:23Z</time>
      </trkpt>
      <trkpt lat="43.72387" lon="3.57265">
        <ele>278.92</ele>
        <time>2018-01-28T13:25:25Z</time>
      </trkpt>
      <trkpt lat="43.72387" lon="3.57268">
        <ele>278.92</ele>
        <time>2018-01-28T13:25:27Z</time>
      </trkpt>
      <trkpt lat="43.72385" lon="3.57304">
        <ele>277</ele>
        <time>2018-01-28T13:25:47Z</time>
      </trkpt>
      <trkpt lat="43.72385" lon="3.57309">
        <ele>277</ele>
        <time>2018-01-28T13:25:50Z</time>
      </trkpt>
      <trkpt lat="43.72385" lon="3.57311">
        <ele>276.52</ele>
        <time>2018-01-28T13:25:51Z</time>
      </trkpt>
      <trkpt lat="43.72386" lon="3.57338">
        <ele>277.96</ele>
        <time>2018-01-28T13:26:06Z</time>
      </trkpt>
      <trkpt lat="43.72384" lon="3.57369">
        <ele>277.48</ele>
        <time>2018-01-28T13:26:21Z</time>
      </trkpt>
      <trkpt lat="43.72381" lon="3.57389">
        <ele>277</ele>
        <time>2018-01-28T13:26:33Z</time>
      </trkpt>
      <trkpt lat="43.72375" lon="3.57409">
        <ele>275.56</ele>
        <time>2018-01-28T13:26:45Z</time>
      </trkpt>
      <trkpt lat="43.7237" lon="3.57433">
        <ele>277</ele>
        <time>2018-01-28T13:26:57Z</time>
      </trkpt>
      <trkpt lat="43.72368" lon="3.57451">
        <ele>277.96</ele>
        <time>2018-01-28T13:27:06Z</time>
      </trkpt>
      <trkpt lat="43.72365" lon="3.57475">
        <ele>278.44</ele>
        <time>2018-01-28T13:27:19Z</time>
      </trkpt>
      <trkpt lat="43.72363" lon="3.57496">
        <ele>281.32</ele>
        <time>2018-01-28T13:27:31Z</time>
      </trkpt>
      <trkpt lat="43.72362" lon="3.57504">
        <ele>281.32</ele>
        <time>2018-01-28T13:27:35Z</time>
      </trkpt>
      <trkpt lat="43.72362" lon="3.57507">
        <ele>280.84</ele>
        <time>2018-01-28T13:27:36Z</time>
      </trkpt>
      <trkpt lat="43.72362" lon="3.57509">
        <ele>280.84</ele>
        <time>2018-01-28T13:27:37Z</time>
      </trkpt>
      <trkpt lat="43.72362" lon="3.57516">
        <ele>280.36</ele>
        <time>2018-01-28T13:27:40Z</time>
      </trkpt>
      <trkpt lat="43.72362" lon="3.57518">
        <ele>280.36</ele>
        <time>2018-01-28T13:27:41Z</time>
      </trkpt>
      <trkpt lat="43.72362" lon="3.57522">
        <ele>280.36</ele>
        <time>2018-01-28T13:27:43Z</time>
      </trkpt>
      <trkpt lat="43.72364" lon="3.57532">
        <ele>281.32</ele>
        <time>2018-01-28T13:27:49Z</time>
      </trkpt>
      <trkpt lat="43.72365" lon="3.57535">
        <ele>281.32</ele>
        <time>2018-01-28T13:27:51Z</time>
      </trkpt>
      <trkpt lat="43.72365" lon="3.57537">
        <ele>281.32</ele>
        <time>2018-01-28T13:27:52Z</time>
      </trkpt>
      <trkpt lat="43.72366" lon="3.57538">
        <ele>281.32</ele>
        <time>2018-01-28T13:27:53Z</time>
      </trkpt>
      <trkpt lat="43.72366" lon="3.57542">
        <ele>281.32</ele>
        <time>2018-01-28T13:27:55Z</time>
      </trkpt>
      <trkpt lat="43.72367" lon="3.57548">
        <ele>281.32</ele>
        <time>2018-01-28T13:27:59Z</time>
      </trkpt>
      <trkpt lat="43.72368" lon="3.57551">
        <ele>280.84</ele>
        <time>2018-01-28T13:28:01Z</time>
      </trkpt>
      <trkpt lat="43.72369" lon="3.57564">
        <ele>280.84</ele>
        <time>2018-01-28T13:28:08Z</time>
      </trkpt>
      <trkpt lat="43.7237" lon="3.57566">
        <ele>280.84</ele>
        <time>2018-01-28T13:28:09Z</time>
      </trkpt>
      <trkpt lat="43.7237" lon="3.57568">
        <ele>280.36</ele>
        <time>2018-01-28T13:28:10Z</time>
      </trkpt>
      <trkpt lat="43.72372" lon="3.57579">
        <ele>278.92</ele>
        <time>2018-01-28T13:28:17Z</time>
      </trkpt>
      <trkpt lat="43.72373" lon="3.57581">
        <ele>278.92</ele>
        <time>2018-01-28T13:28:18Z</time>
      </trkpt>
      <trkpt lat="43.72379" lon="3.576">
        <ele>277</ele>
        <time>2018-01-28T13:28:30Z</time>
      </trkpt>
      <trkpt lat="43.72388" lon="3.57622">
        <ele>277.48</ele>
        <time>2018-01-28T13:28:43Z</time>
      </trkpt>
      <trkpt lat="43.72397" lon="3.57644">
        <ele>280.36</ele>
        <time>2018-01-28T13:28:54Z</time>
      </trkpt>
      <trkpt lat="43.72398" lon="3.57647">
        <ele>280.84</ele>
        <time>2018-01-28T13:28:56Z</time>
      </trkpt>
      <trkpt lat="43.72398" lon="3.57649">
        <ele>280.84</ele>
        <time>2018-01-28T13:28:57Z</time>
      </trkpt>
      <trkpt lat="43.72399" lon="3.57651">
        <ele>280.84</ele>
        <time>2018-01-28T13:28:58Z</time>
      </trkpt>
      <trkpt lat="43.72399" lon="3.57653">
        <ele>281.32</ele>
        <time>2018-01-28T13:28:59Z</time>
      </trkpt>
      <trkpt lat="43.72399" lon="3.57654">
        <ele>281.32</ele>
        <time>2018-01-28T13:29:00Z</time>
      </trkpt>
      <trkpt lat="43.724" lon="3.57656">
        <ele>281.32</ele>
        <time>2018-01-28T13:29:01Z</time>
      </trkpt>
      <trkpt lat="43.724" lon="3.57658">
        <ele>281.32</ele>
        <time>2018-01-28T13:29:02Z</time>
      </trkpt>
      <trkpt lat="43.724" lon="3.5766">
        <ele>280.84</ele>
        <time>2018-01-28T13:29:03Z</time>
      </trkpt>
      <trkpt lat="43.72401" lon="3.57678">
        <ele>279.4</ele>
        <time>2018-01-28T13:29:14Z</time>
      </trkpt>
      <trkpt lat="43.72402" lon="3.57702">
        <ele>278.44</ele>
        <time>2018-01-28T13:29:27Z</time>
      </trkpt>
      <trkpt lat="43.72403" lon="3.57708">
        <ele>278.44</ele>
        <time>2018-01-28T13:29:30Z</time>
      </trkpt>
      <trkpt lat="43.72403" lon="3.5771">
        <ele>278.92</ele>
        <time>2018-01-28T13:29:31Z</time>
      </trkpt>
      <trkpt lat="43.72403" lon="3.57712">
        <ele>279.4</ele>
        <time>2018-01-28T13:29:32Z</time>
      </trkpt>
      <trkpt lat="43.72407" lon="3.57735">
        <ele>279.4</ele>
        <time>2018-01-28T13:29:44Z</time>
      </trkpt>
      <trkpt lat="43.72407" lon="3.57763">
        <ele>280.84</ele>
        <time>2018-01-28T13:29:58Z</time>
      </trkpt>
      <trkpt lat="43.72406" lon="3.57773">
        <ele>280.84</ele>
        <time>2018-01-28T13:30:02Z</time>
      </trkpt>
      <trkpt lat="43.72406" lon="3.57776">
        <ele>280.84</ele>
        <time>2018-01-28T13:30:03Z</time>
      </trkpt>
      <trkpt lat="43.72404" lon="3.57783">
        <ele>280.36</ele>
        <time>2018-01-28T13:30:07Z</time>
      </trkpt>
      <trkpt lat="43.72404" lon="3.57785">
        <ele>280.36</ele>
        <time>2018-01-28T13:30:08Z</time>
      </trkpt>
      <trkpt lat="43.72403" lon="3.57787">
        <ele>280.36</ele>
        <time>2018-01-28T13:30:09Z</time>
      </trkpt>
      <trkpt lat="43.72402" lon="3.57792">
        <ele>279.88</ele>
        <time>2018-01-28T13:30:12Z</time>
      </trkpt>
      <trkpt lat="43.72402" lon="3.57794">
        <ele>280.36</ele>
        <time>2018-01-28T13:30:13Z</time>
      </trkpt>
      <trkpt lat="43.72402" lon="3.57796">
        <ele>280.84</ele>
        <time>2018-01-28T13:30:14Z</time>
      </trkpt>
      <trkpt lat="43.72402" lon="3.57798">
        <ele>280.84</ele>
        <time>2018-01-28T13:30:15Z</time>
      </trkpt>
      <trkpt lat="43.72399" lon="3.57828">
        <ele>278.92</ele>
        <time>2018-01-28T13:30:31Z</time>
      </trkpt>
      <trkpt lat="43.72403" lon="3.57855">
        <ele>277.96</ele>
        <time>2018-01-28T13:30:45Z</time>
      </trkpt>
      <trkpt lat="43.72409" lon="3.57875">
        <ele>278.44</ele>
        <time>2018-01-28T13:30:59Z</time>
      </trkpt>
      <trkpt lat="43.7241" lon="3.57874">
        <ele>280.36</ele>
        <time>2018-01-28T13:31:23Z</time>
      </trkpt>
      <trkpt lat="43.7241" lon="3.57875">
        <ele>283.73</ele>
        <time>2018-01-28T13:31:48Z</time>
      </trkpt>
      <trkpt lat="43.72411" lon="3.57873">
        <ele>284.21</ele>
        <time>2018-01-28T13:32:25Z</time>
      </trkpt>
      <trkpt lat="43.72412" lon="3.57875">
        <ele>283.73</ele>
        <time>2018-01-28T13:32:46Z</time>
      </trkpt>
      <trkpt lat="43.72413" lon="3.57876">
        <ele>286.13</ele>
        <time>2018-01-28T13:33:06Z</time>
      </trkpt>
      <trkpt lat="43.72413" lon="3.57876">
        <ele>287.09</ele>
        <time>2018-01-28T13:33:21Z</time>
      </trkpt>
      <trkpt lat="43.72414" lon="3.57876">
        <ele>287.09</ele>
        <time>2018-01-28T13:33:22Z</time>
      </trkpt>
      <trkpt lat="43.72427" lon="3.57879">
        <ele>285.65</ele>
        <time>2018-01-28T13:33:37Z</time>
      </trkpt>
      <trkpt lat="43.72428" lon="3.57879">
        <ele>285.65</ele>
        <time>2018-01-28T13:33:38Z</time>
      </trkpt>
      <trkpt lat="43.72429" lon="3.57879">
        <ele>285.65</ele>
        <time>2018-01-28T13:33:39Z</time>
      </trkpt>
      <trkpt lat="43.7243" lon="3.57879">
        <ele>285.65</ele>
        <time>2018-01-28T13:33:40Z</time>
      </trkpt>
      <trkpt lat="43.72445" lon="3.57887">
        <ele>282.77</ele>
        <time>2018-01-28T13:33:56Z</time>
      </trkpt>
      <trkpt lat="43.72461" lon="3.57892">
        <ele>280.36</ele>
        <time>2018-01-28T13:34:08Z</time>
      </trkpt>
      <trkpt lat="43.72482" lon="3.57896">
        <ele>276.52</ele>
        <time>2018-01-28T13:34:24Z</time>
      </trkpt>
      <trkpt lat="43.72491" lon="3.57903">
        <ele>277</ele>
        <time>2018-01-28T13:34:36Z</time>
      </trkpt>
      <trkpt lat="43.72493" lon="3.57898">
        <ele>276.04</ele>
        <time>2018-01-28T13:34:48Z</time>
      </trkpt>
      <trkpt lat="43.72497" lon="3.57898">
        <ele>273.15</ele>
        <time>2018-01-28T13:34:59Z</time>
      </trkpt>
      <trkpt lat="43.72503" lon="3.57899">
        <ele>271.23</ele>
        <time>2018-01-28T13:35:08Z</time>
      </trkpt>
      <trkpt lat="43.72505" lon="3.57899">
        <ele>271.23</ele>
        <time>2018-01-28T13:35:09Z</time>
      </trkpt>
      <trkpt lat="43.72511" lon="3.57894">
        <ele>269.79</ele>
        <time>2018-01-28T13:35:19Z</time>
      </trkpt>
      <trkpt lat="43.72516" lon="3.57891">
        <ele>268.83</ele>
        <time>2018-01-28T13:35:23Z</time>
      </trkpt>
      <trkpt lat="43.72523" lon="3.57878">
        <ele>263.06</ele>
        <time>2018-01-28T13:35:35Z</time>
      </trkpt>
      <trkpt lat="43.72525" lon="3.57876">
        <ele>262.58</ele>
        <time>2018-01-28T13:35:37Z</time>
      </trkpt>
      <trkpt lat="43.72526" lon="3.57875">
        <ele>262.1</ele>
        <time>2018-01-28T13:35:38Z</time>
      </trkpt>
      <trkpt lat="43.7254" lon="3.57865">
        <ele>261.62</ele>
        <time>2018-01-28T13:35:51Z</time>
      </trkpt>
      <trkpt lat="43.72543" lon="3.5786">
        <ele>262.1</ele>
        <time>2018-01-28T13:35:55Z</time>
      </trkpt>
      <trkpt lat="43.72544" lon="3.57859">
        <ele>262.1</ele>
        <time>2018-01-28T13:35:56Z</time>
      </trkpt>
      <trkpt lat="43.72558" lon="3.57838">
        <ele>265.46</ele>
        <time>2018-01-28T13:36:11Z</time>
      </trkpt>
      <trkpt lat="43.72573" lon="3.57823">
        <ele>267.86</ele>
        <time>2018-01-28T13:36:25Z</time>
      </trkpt>
      <trkpt lat="43.72584" lon="3.57815">
        <ele>266.9</ele>
        <time>2018-01-28T13:36:36Z</time>
      </trkpt>
      <trkpt lat="43.72596" lon="3.57803">
        <ele>267.86</ele>
        <time>2018-01-28T13:36:47Z</time>
      </trkpt>
      <trkpt lat="43.72614" lon="3.5778">
        <ele>271.23</ele>
        <time>2018-01-28T13:37:03Z</time>
      </trkpt>
      <trkpt lat="43.72615" lon="3.57778">
        <ele>271.23</ele>
        <time>2018-01-28T13:37:04Z</time>
      </trkpt>
      <trkpt lat="43.72616" lon="3.57777">
        <ele>271.71</ele>
        <time>2018-01-28T13:37:05Z</time>
      </trkpt>
      <trkpt lat="43.72617" lon="3.57775">
        <ele>271.71</ele>
        <time>2018-01-28T13:37:06Z</time>
      </trkpt>
      <trkpt lat="43.72618" lon="3.57774">
        <ele>272.19</ele>
        <time>2018-01-28T13:37:07Z</time>
      </trkpt>
      <trkpt lat="43.72619" lon="3.57773">
        <ele>272.19</ele>
        <time>2018-01-28T13:37:08Z</time>
      </trkpt>
      <trkpt lat="43.7262" lon="3.57771">
        <ele>272.67</ele>
        <time>2018-01-28T13:37:09Z</time>
      </trkpt>
      <trkpt lat="43.7262" lon="3.57769">
        <ele>272.67</ele>
        <time>2018-01-28T13:37:10Z</time>
      </trkpt>
      <trkpt lat="43.72633" lon="3.57741">
        <ele>276.04</ele>
        <time>2018-01-28T13:37:28Z</time>
      </trkpt>
      <trkpt lat="43.72638" lon="3.57739">
        <ele>276.04</ele>
        <time>2018-01-28T13:37:35Z</time>
      </trkpt>
      <trkpt lat="43.72648" lon="3.57734">
        <ele>276.04</ele>
        <time>2018-01-28T13:37:47Z</time>
      </trkpt>
      <trkpt lat="43.72651" lon="3.57733">
        <ele>276.04</ele>
        <time>2018-01-28T13:37:51Z</time>
      </trkpt>
      <trkpt lat="43.7266" lon="3.5774">
        <ele>277</ele>
        <time>2018-01-28T13:38:06Z</time>
      </trkpt>
      <trkpt lat="43.72657" lon="3.57745">
        <ele>277</ele>
        <time>2018-01-28T13:38:18Z</time>
      </trkpt>
      <trkpt lat="43.72651" lon="3.57742">
        <ele>277.48</ele>
        <time>2018-01-28T13:38:35Z</time>
      </trkpt>
      <trkpt lat="43.72648" lon="3.57737">
        <ele>279.4</ele>
        <time>2018-01-28T13:38:54Z</time>
      </trkpt>
      <trkpt lat="43.7265" lon="3.57727">
        <ele>278.92</ele>
        <time>2018-01-28T13:39:06Z</time>
      </trkpt>
      <trkpt lat="43.7265" lon="3.57725">
        <ele>278.92</ele>
        <time>2018-01-28T13:39:07Z</time>
      </trkpt>
      <trkpt lat="43.72654" lon="3.57706">
        <ele>279.4</ele>
        <time>2018-01-28T13:39:20Z</time>
      </trkpt>
      <trkpt lat="43.72664" lon="3.57688">
        <ele>277.48</ele>
        <time>2018-01-28T13:39:34Z</time>
      </trkpt>
      <trkpt lat="43.72668" lon="3.57676">
        <ele>272.67</ele>
        <time>2018-01-28T13:39:44Z</time>
      </trkpt>
      <trkpt lat="43.72669" lon="3.57674">
        <ele>271.23</ele>
        <time>2018-01-28T13:39:46Z</time>
      </trkpt>
      <trkpt lat="43.72671" lon="3.57663">
        <ele>271.23</ele>
        <time>2018-01-28T13:39:53Z</time>
      </trkpt>
      <trkpt lat="43.72671" lon="3.57661">
        <ele>271.71</ele>
        <time>2018-01-28T13:39:54Z</time>
      </trkpt>
      <trkpt lat="43.72671" lon="3.57659">
        <ele>271.71</ele>
        <time>2018-01-28T13:39:55Z</time>
      </trkpt>
      <trkpt lat="43.72669" lon="3.57648">
        <ele>272.67</ele>
        <time>2018-01-28T13:40:01Z</time>
      </trkpt>
      <trkpt lat="43.7267" lon="3.57634">
        <ele>275.07</ele>
        <time>2018-01-28T13:40:08Z</time>
      </trkpt>
      <trkpt lat="43.72677" lon="3.57619">
        <ele>277</ele>
        <time>2018-01-28T13:40:17Z</time>
      </trkpt>
      <trkpt lat="43.72687" lon="3.57605">
        <ele>276.52</ele>
        <time>2018-01-28T13:40:29Z</time>
      </trkpt>
      <trkpt lat="43.72695" lon="3.5759">
        <ele>276.04</ele>
        <time>2018-01-28T13:40:39Z</time>
      </trkpt>
      <trkpt lat="43.72696" lon="3.57589">
        <ele>276.04</ele>
        <time>2018-01-28T13:40:40Z</time>
      </trkpt>
      <trkpt lat="43.72697" lon="3.57587">
        <ele>276.04</ele>
        <time>2018-01-28T13:40:41Z</time>
      </trkpt>
      <trkpt lat="43.72702" lon="3.57582">
        <ele>277</ele>
        <time>2018-01-28T13:40:45Z</time>
      </trkpt>
      <trkpt lat="43.72703" lon="3.5758">
        <ele>277.48</ele>
        <time>2018-01-28T13:40:46Z</time>
      </trkpt>
      <trkpt lat="43.72704" lon="3.57579">
        <ele>277.48</ele>
        <time>2018-01-28T13:40:47Z</time>
      </trkpt>
      <trkpt lat="43.72711" lon="3.57568">
        <ele>277.48</ele>
        <time>2018-01-28T13:40:54Z</time>
      </trkpt>
      <trkpt lat="43.72711" lon="3.57567">
        <ele>277.48</ele>
        <time>2018-01-28T13:40:55Z</time>
      </trkpt>
      <trkpt lat="43.72712" lon="3.57565">
        <ele>277.96</ele>
        <time>2018-01-28T13:40:56Z</time>
      </trkpt>
      <trkpt lat="43.72712" lon="3.57563">
        <ele>277.96</ele>
        <time>2018-01-28T13:40:57Z</time>
      </trkpt>
      <trkpt lat="43.72712" lon="3.57559">
        <ele>277.96</ele>
        <time>2018-01-28T13:41:00Z</time>
      </trkpt>
      <trkpt lat="43.72712" lon="3.57555">
        <ele>277.48</ele>
        <time>2018-01-28T13:41:03Z</time>
      </trkpt>
      <trkpt lat="43.72713" lon="3.57553">
        <ele>277.96</ele>
        <time>2018-01-28T13:41:04Z</time>
      </trkpt>
      <trkpt lat="43.72717" lon="3.5753">
        <ele>279.4</ele>
        <time>2018-01-28T13:41:17Z</time>
      </trkpt>
      <trkpt lat="43.72719" lon="3.57502">
        <ele>281.32</ele>
        <time>2018-01-28T13:41:32Z</time>
      </trkpt>
      <trkpt lat="43.72724" lon="3.57491">
        <ele>282.28</ele>
        <time>2018-01-28T13:41:44Z</time>
      </trkpt>
      <trkpt lat="43.72722" lon="3.57488">
        <ele>281.8</ele>
        <time>2018-01-28T13:41:49Z</time>
      </trkpt>
      <trkpt lat="43.72722" lon="3.5748">
        <ele>280.36</ele>
        <time>2018-01-28T13:41:56Z</time>
      </trkpt>
      <trkpt lat="43.72721" lon="3.57478">
        <ele>279.88</ele>
        <time>2018-01-28T13:41:57Z</time>
      </trkpt>
      <trkpt lat="43.7272" lon="3.57475">
        <ele>279.88</ele>
        <time>2018-01-28T13:41:59Z</time>
      </trkpt>
      <trkpt lat="43.7272" lon="3.57473">
        <ele>279.88</ele>
        <time>2018-01-28T13:42:00Z</time>
      </trkpt>
      <trkpt lat="43.72721" lon="3.57468">
        <ele>277.96</ele>
        <time>2018-01-28T13:42:05Z</time>
      </trkpt>
      <trkpt lat="43.72721" lon="3.57466">
        <ele>277.96</ele>
        <time>2018-01-28T13:42:06Z</time>
      </trkpt>
      <trkpt lat="43.72724" lon="3.57443">
        <ele>277.96</ele>
        <time>2018-01-28T13:42:20Z</time>
      </trkpt>
      <trkpt lat="43.72723" lon="3.57418">
        <ele>279.4</ele>
        <time>2018-01-28T13:42:33Z</time>
      </trkpt>
      <trkpt lat="43.72725" lon="3.57397">
        <ele>279.88</ele>
        <time>2018-01-28T13:42:44Z</time>
      </trkpt>
      <trkpt lat="43.72732" lon="3.57378">
        <ele>279.88</ele>
        <time>2018-01-28T13:42:56Z</time>
      </trkpt>
      <trkpt lat="43.72733" lon="3.57378">
        <ele>279.88</ele>
        <time>2018-01-28T13:42:57Z</time>
      </trkpt>
      <trkpt lat="43.72748" lon="3.5737">
        <ele>276.04</ele>
        <time>2018-01-28T13:43:13Z</time>
      </trkpt>
      <trkpt lat="43.72751" lon="3.57367">
        <ele>275.56</ele>
        <time>2018-01-28T13:43:16Z</time>
      </trkpt>
      <trkpt lat="43.72752" lon="3.57366">
        <ele>275.56</ele>
        <time>2018-01-28T13:43:17Z</time>
      </trkpt>
      <trkpt lat="43.72753" lon="3.57365">
        <ele>275.07</ele>
        <time>2018-01-28T13:43:18Z</time>
      </trkpt>
      <trkpt lat="43.72766" lon="3.57345">
        <ele>278.92</ele>
        <time>2018-01-28T13:43:31Z</time>
      </trkpt>
      <trkpt lat="43.72772" lon="3.57329">
        <ele>280.84</ele>
        <time>2018-01-28T13:43:40Z</time>
      </trkpt>
      <trkpt lat="43.72772" lon="3.57322">
        <ele>281.32</ele>
        <time>2018-01-28T13:43:44Z</time>
      </trkpt>
      <trkpt lat="43.72772" lon="3.5732">
        <ele>281.8</ele>
        <time>2018-01-28T13:43:45Z</time>
      </trkpt>
      <trkpt lat="43.72773" lon="3.57318">
        <ele>281.8</ele>
        <time>2018-01-28T13:43:46Z</time>
      </trkpt>
      <trkpt lat="43.72777" lon="3.57294">
        <ele>281.8</ele>
        <time>2018-01-28T13:44:02Z</time>
      </trkpt>
      <trkpt lat="43.7279" lon="3.5727">
        <ele>281.32</ele>
        <time>2018-01-28T13:44:17Z</time>
      </trkpt>
      <trkpt lat="43.72804" lon="3.57245">
        <ele>282.28</ele>
        <time>2018-01-28T13:44:35Z</time>
      </trkpt>
      <trkpt lat="43.72804" lon="3.57241">
        <ele>281.8</ele>
        <time>2018-01-28T13:44:37Z</time>
      </trkpt>
      <trkpt lat="43.728" lon="3.57225">
        <ele>280.84</ele>
        <time>2018-01-28T13:44:50Z</time>
      </trkpt>
      <trkpt lat="43.72801" lon="3.57228">
        <ele>281.32</ele>
        <time>2018-01-28T13:45:03Z</time>
      </trkpt>
      <trkpt lat="43.72801" lon="3.5723">
        <ele>281.32</ele>
        <time>2018-01-28T13:45:05Z</time>
      </trkpt>
      <trkpt lat="43.72802" lon="3.57232">
        <ele>281.32</ele>
        <time>2018-01-28T13:45:06Z</time>
      </trkpt>
      <trkpt lat="43.72803" lon="3.57233">
        <ele>281.32</ele>
        <time>2018-01-28T13:45:07Z</time>
      </trkpt>
      <trkpt lat="43.72804" lon="3.57235">
        <ele>280.84</ele>
        <time>2018-01-28T13:45:09Z</time>
      </trkpt>
      <trkpt lat="43.72806" lon="3.57243">
        <ele>284.21</ele>
        <time>2018-01-28T13:45:23Z</time>
      </trkpt>
      <trkpt lat="43.72804" lon="3.57244">
        <ele>287.09</ele>
        <time>2018-01-28T13:45:50Z</time>
      </trkpt>
      <trkpt lat="43.72805" lon="3.57243">
        <ele>289.01</ele>
        <time>2018-01-28T13:46:17Z</time>
      </trkpt>
      <trkpt lat="43.72808" lon="3.57241">
        <ele>289.01</ele>
        <time>2018-01-28T13:46:40Z</time>
      </trkpt>
      <trkpt lat="43.72808" lon="3.57241">
        <ele>289.49</ele>
        <time>2018-01-28T13:47:06Z</time>
      </trkpt>
      <trkpt lat="43.72811" lon="3.57254">
        <ele>288.05</ele>
        <time>2018-01-28T13:47:21Z</time>
      </trkpt>
      <trkpt lat="43.72822" lon="3.57274">
        <ele>285.65</ele>
        <time>2018-01-28T13:47:36Z</time>
      </trkpt>
      <trkpt lat="43.72829" lon="3.57289">
        <ele>283.73</ele>
        <time>2018-01-28T13:47:47Z</time>
      </trkpt>
      <trkpt lat="43.7283" lon="3.57293">
        <ele>283.25</ele>
        <time>2018-01-28T13:47:50Z</time>
      </trkpt>
      <trkpt lat="43.72837" lon="3.57312">
        <ele>279.88</ele>
        <time>2018-01-28T13:48:03Z</time>
      </trkpt>
      <trkpt lat="43.72842" lon="3.57328">
        <ele>278.92</ele>
        <time>2018-01-28T13:48:14Z</time>
      </trkpt>
      <trkpt lat="43.72843" lon="3.5733">
        <ele>278.44</ele>
        <time>2018-01-28T13:48:15Z</time>
      </trkpt>
      <trkpt lat="43.72851" lon="3.57349">
        <ele>279.88</ele>
        <time>2018-01-28T13:48:27Z</time>
      </trkpt>
      <trkpt lat="43.72854" lon="3.57357">
        <ele>280.36</ele>
        <time>2018-01-28T13:48:32Z</time>
      </trkpt>
      <trkpt lat="43.72857" lon="3.57368">
        <ele>280.36</ele>
        <time>2018-01-28T13:48:39Z</time>
      </trkpt>
      <trkpt lat="43.72857" lon="3.5737">
        <ele>280.36</ele>
        <time>2018-01-28T13:48:40Z</time>
      </trkpt>
      <trkpt lat="43.72862" lon="3.57379">
        <ele>280.36</ele>
        <time>2018-01-28T13:48:46Z</time>
      </trkpt>
      <trkpt lat="43.72866" lon="3.57394">
        <ele>282.28</ele>
        <time>2018-01-28T13:48:54Z</time>
      </trkpt>
      <trkpt lat="43.72868" lon="3.57396">
        <ele>282.28</ele>
        <time>2018-01-28T13:48:55Z</time>
      </trkpt>
      <trkpt lat="43.72868" lon="3.57398">
        <ele>282.28</ele>
        <time>2018-01-28T13:48:56Z</time>
      </trkpt>
      <trkpt lat="43.72869" lon="3.574">
        <ele>282.77</ele>
        <time>2018-01-28T13:48:57Z</time>
      </trkpt>
      <trkpt lat="43.72869" lon="3.57402">
        <ele>282.77</ele>
        <time>2018-01-28T13:48:58Z</time>
      </trkpt>
      <trkpt lat="43.72874" lon="3.57421">
        <ele>286.13</ele>
        <time>2018-01-28T13:49:09Z</time>
      </trkpt>
      <trkpt lat="43.72882" lon="3.57441">
        <ele>287.09</ele>
        <time>2018-01-28T13:49:21Z</time>
      </trkpt>
      <trkpt lat="43.72897" lon="3.57453">
        <ele>286.61</ele>
        <time>2018-01-28T13:49:35Z</time>
      </trkpt>
      <trkpt lat="43.7291" lon="3.57469">
        <ele>286.61</ele>
        <time>2018-01-28T13:49:48Z</time>
      </trkpt>
      <trkpt lat="43.72924" lon="3.57486">
        <ele>287.09</ele>
        <time>2018-01-28T13:50:01Z</time>
      </trkpt>
      <trkpt lat="43.72941" lon="3.57496">
        <ele>285.17</ele>
        <time>2018-01-28T13:50:17Z</time>
      </trkpt>
      <trkpt lat="43.72951" lon="3.57501">
        <ele>286.61</ele>
        <time>2018-01-28T13:50:24Z</time>
      </trkpt>
      <trkpt lat="43.72959" lon="3.57513">
        <ele>289.01</ele>
        <time>2018-01-28T13:50:34Z</time>
      </trkpt>
      <trkpt lat="43.7296" lon="3.57515">
        <ele>289.01</ele>
        <time>2018-01-28T13:50:35Z</time>
      </trkpt>
      <trkpt lat="43.72961" lon="3.57516">
        <ele>289.01</ele>
        <time>2018-01-28T13:50:36Z</time>
      </trkpt>
      <trkpt lat="43.72962" lon="3.57517">
        <ele>288.53</ele>
        <time>2018-01-28T13:50:37Z</time>
      </trkpt>
      <trkpt lat="43.72971" lon="3.57533">
        <ele>289.49</ele>
        <time>2018-01-28T13:50:49Z</time>
      </trkpt>
      <trkpt lat="43.72972" lon="3.57537">
        <ele>289.97</ele>
        <time>2018-01-28T13:50:51Z</time>
      </trkpt>
      <trkpt lat="43.72976" lon="3.57553">
        <ele>290.94</ele>
        <time>2018-01-28T13:50:59Z</time>
      </trkpt>
      <trkpt lat="43.72977" lon="3.5758">
        <ele>291.42</ele>
        <time>2018-01-28T13:51:14Z</time>
      </trkpt>
      <trkpt lat="43.72978" lon="3.57603">
        <ele>289.97</ele>
        <time>2018-01-28T13:51:28Z</time>
      </trkpt>
      <trkpt lat="43.72979" lon="3.57628">
        <ele>289.01</ele>
        <time>2018-01-28T13:51:43Z</time>
      </trkpt>
      <trkpt lat="43.72979" lon="3.57656">
        <ele>290.46</ele>
        <time>2018-01-28T13:51:56Z</time>
      </trkpt>
      <trkpt lat="43.72978" lon="3.57689">
        <ele>293.34</ele>
        <time>2018-01-28T13:52:13Z</time>
      </trkpt>
      <trkpt lat="43.7298" lon="3.57711">
        <ele>296.7</ele>
        <time>2018-01-28T13:52:27Z</time>
      </trkpt>
      <trkpt lat="43.72981" lon="3.57718">
        <ele>297.18</ele>
        <time>2018-01-28T13:52:31Z</time>
      </trkpt>
      <trkpt lat="43.72982" lon="3.57733">
        <ele>296.7</ele>
        <time>2018-01-28T13:52:39Z</time>
      </trkpt>
      <trkpt lat="43.72982" lon="3.57738">
        <ele>296.7</ele>
        <time>2018-01-28T13:52:42Z</time>
      </trkpt>
      <trkpt lat="43.72983" lon="3.57741">
        <ele>296.22</ele>
        <time>2018-01-28T13:52:44Z</time>
      </trkpt>
      <trkpt lat="43.72985" lon="3.57753">
        <ele>296.22</ele>
        <time>2018-01-28T13:52:50Z</time>
      </trkpt>
      <trkpt lat="43.72984" lon="3.57769">
        <ele>297.18</ele>
        <time>2018-01-28T13:52:58Z</time>
      </trkpt>
      <trkpt lat="43.72986" lon="3.57784">
        <ele>297.67</ele>
        <time>2018-01-28T13:53:08Z</time>
      </trkpt>
      <trkpt lat="43.72984" lon="3.5779">
        <ele>297.67</ele>
        <time>2018-01-28T13:53:12Z</time>
      </trkpt>
      <trkpt lat="43.72977" lon="3.57803">
        <ele>299.59</ele>
        <time>2018-01-28T13:53:24Z</time>
      </trkpt>
      <trkpt lat="43.72966" lon="3.57829">
        <ele>296.22</ele>
        <time>2018-01-28T13:53:42Z</time>
      </trkpt>
      <trkpt lat="43.72966" lon="3.57829">
        <ele>295.26</ele>
        <time>2018-01-28T13:54:04Z</time>
      </trkpt>
      <trkpt lat="43.72962" lon="3.57835">
        <ele>295.74</ele>
        <time>2018-01-28T13:54:30Z</time>
      </trkpt>
      <trkpt lat="43.72961" lon="3.57835">
        <ele>295.74</ele>
        <time>2018-01-28T13:54:31Z</time>
      </trkpt>
      <trkpt lat="43.7296" lon="3.57838">
        <ele>295.26</ele>
        <time>2018-01-28T13:54:34Z</time>
      </trkpt>
      <trkpt lat="43.7296" lon="3.57841">
        <ele>297.67</ele>
        <time>2018-01-28T13:54:50Z</time>
      </trkpt>
      <trkpt lat="43.7295" lon="3.57855">
        <ele>297.18</ele>
        <time>2018-01-28T13:55:04Z</time>
      </trkpt>
      <trkpt lat="43.72933" lon="3.57874">
        <ele>296.7</ele>
        <time>2018-01-28T13:55:23Z</time>
      </trkpt>
      <trkpt lat="43.72923" lon="3.57887">
        <ele>296.7</ele>
        <time>2018-01-28T13:55:36Z</time>
      </trkpt>
      <trkpt lat="43.72905" lon="3.57917">
        <ele>295.74</ele>
        <time>2018-01-28T13:55:58Z</time>
      </trkpt>
      <trkpt lat="43.72894" lon="3.57942">
        <ele>292.86</ele>
        <time>2018-01-28T13:56:15Z</time>
      </trkpt>
      <trkpt lat="43.72891" lon="3.57954">
        <ele>291.9</ele>
        <time>2018-01-28T13:56:23Z</time>
      </trkpt>
      <trkpt lat="43.72888" lon="3.57986">
        <ele>290.94</ele>
        <time>2018-01-28T13:56:42Z</time>
      </trkpt>
      <trkpt lat="43.72886" lon="3.57998">
        <ele>290.46</ele>
        <time>2018-01-28T13:56:49Z</time>
      </trkpt>
      <trkpt lat="43.72884" lon="3.58031">
        <ele>290.94</ele>
        <time>2018-01-28T13:57:06Z</time>
      </trkpt>
      <trkpt lat="43.72877" lon="3.5806">
        <ele>289.01</ele>
        <time>2018-01-28T13:57:23Z</time>
      </trkpt>
      <trkpt lat="43.72871" lon="3.58088">
        <ele>283.25</ele>
        <time>2018-01-28T13:57:38Z</time>
      </trkpt>
      <trkpt lat="43.72876" lon="3.58122">
        <ele>282.77</ele>
        <time>2018-01-28T13:57:55Z</time>
      </trkpt>
      <trkpt lat="43.72873" lon="3.58164">
        <ele>282.77</ele>
        <time>2018-01-28T13:58:15Z</time>
      </trkpt>
      <trkpt lat="43.7287" lon="3.58202">
        <ele>284.69</ele>
        <time>2018-01-28T13:58:34Z</time>
      </trkpt>
      <trkpt lat="43.72871" lon="3.58232">
        <ele>286.61</ele>
        <time>2018-01-28T13:58:50Z</time>
      </trkpt>
      <trkpt lat="43.72882" lon="3.5826">
        <ele>286.61</ele>
        <time>2018-01-28T13:59:08Z</time>
      </trkpt>
      <trkpt lat="43.72888" lon="3.58284">
        <ele>286.61</ele>
        <time>2018-01-28T13:59:23Z</time>
      </trkpt>
      <trkpt lat="43.72888" lon="3.58288">
        <ele>285.65</ele>
        <time>2018-01-28T13:59:38Z</time>
      </trkpt>
      <trkpt lat="43.72887" lon="3.58291">
        <ele>287.57</ele>
        <time>2018-01-28T13:59:51Z</time>
      </trkpt>
      <trkpt lat="43.7289" lon="3.58287">
        <ele>285.65</ele>
        <time>2018-01-28T14:00:16Z</time>
      </trkpt>
      <trkpt lat="43.72888" lon="3.58287">
        <ele>287.09</ele>
        <time>2018-01-28T14:00:33Z</time>
      </trkpt>
      <trkpt lat="43.72887" lon="3.58286">
        <ele>287.09</ele>
        <time>2018-01-28T14:00:47Z</time>
      </trkpt>
      <trkpt lat="43.7288" lon="3.58281">
        <ele>287.57</ele>
        <time>2018-01-28T14:00:53Z</time>
      </trkpt>
      <trkpt lat="43.72869" lon="3.58271">
        <ele>289.01</ele>
        <time>2018-01-28T14:01:03Z</time>
      </trkpt>
      <trkpt lat="43.72845" lon="3.58261">
        <ele>288.53</ele>
        <time>2018-01-28T14:01:21Z</time>
      </trkpt>
      <trkpt lat="43.72821" lon="3.58258">
        <ele>285.65</ele>
        <time>2018-01-28T14:01:38Z</time>
      </trkpt>
      <trkpt lat="43.72797" lon="3.58254">
        <ele>279.88</ele>
        <time>2018-01-28T14:01:55Z</time>
      </trkpt>
      <trkpt lat="43.72773" lon="3.58248">
        <ele>276.04</ele>
        <time>2018-01-28T14:02:13Z</time>
      </trkpt>
      <trkpt lat="43.72749" lon="3.58241">
        <ele>277.48</ele>
        <time>2018-01-28T14:02:30Z</time>
      </trkpt>
      <trkpt lat="43.72728" lon="3.5824">
        <ele>282.28</ele>
        <time>2018-01-28T14:02:45Z</time>
      </trkpt>
      <trkpt lat="43.72708" lon="3.58235">
        <ele>281.32</ele>
        <time>2018-01-28T14:03:02Z</time>
      </trkpt>
      <trkpt lat="43.72693" lon="3.58235">
        <ele>280.36</ele>
        <time>2018-01-28T14:03:17Z</time>
      </trkpt>
      <trkpt lat="43.72692" lon="3.58234">
        <ele>280.84</ele>
        <time>2018-01-28T14:03:19Z</time>
      </trkpt>
      <trkpt lat="43.72674" lon="3.58224">
        <ele>280.84</ele>
        <time>2018-01-28T14:03:35Z</time>
      </trkpt>
      <trkpt lat="43.72661" lon="3.58219">
        <ele>281.8</ele>
        <time>2018-01-28T14:03:46Z</time>
      </trkpt>
      <trkpt lat="43.72646" lon="3.58234">
        <ele>281.8</ele>
        <time>2018-01-28T14:04:01Z</time>
      </trkpt>
      <trkpt lat="43.72627" lon="3.58249">
        <ele>284.69</ele>
        <time>2018-01-28T14:04:17Z</time>
      </trkpt>
      <trkpt lat="43.72606" lon="3.58253">
        <ele>283.73</ele>
        <time>2018-01-28T14:04:33Z</time>
      </trkpt>
      <trkpt lat="43.72586" lon="3.58259">
        <ele>282.28</ele>
        <time>2018-01-28T14:04:49Z</time>
      </trkpt>
      <trkpt lat="43.72565" lon="3.58278">
        <ele>283.25</ele>
        <time>2018-01-28T14:05:06Z</time>
      </trkpt>
      <trkpt lat="43.72546" lon="3.58292">
        <ele>285.17</ele>
        <time>2018-01-28T14:05:23Z</time>
      </trkpt>
      <trkpt lat="43.72526" lon="3.58312">
        <ele>284.69</ele>
        <time>2018-01-28T14:05:40Z</time>
      </trkpt>
      <trkpt lat="43.72509" lon="3.58331">
        <ele>286.61</ele>
        <time>2018-01-28T14:05:56Z</time>
      </trkpt>
      <trkpt lat="43.72497" lon="3.58361">
        <ele>289.01</ele>
        <time>2018-01-28T14:06:14Z</time>
      </trkpt>
      <trkpt lat="43.72487" lon="3.58387">
        <ele>289.01</ele>
        <time>2018-01-28T14:06:29Z</time>
      </trkpt>
      <trkpt lat="43.72474" lon="3.58407">
        <ele>292.86</ele>
        <time>2018-01-28T14:06:45Z</time>
      </trkpt>
      <trkpt lat="43.72456" lon="3.58424">
        <ele>293.34</ele>
        <time>2018-01-28T14:07:01Z</time>
      </trkpt>
      <trkpt lat="43.72453" lon="3.58428">
        <ele>293.34</ele>
        <time>2018-01-28T14:07:17Z</time>
      </trkpt>
      <trkpt lat="43.72454" lon="3.58432">
        <ele>292.38</ele>
        <time>2018-01-28T14:07:39Z</time>
      </trkpt>
      <trkpt lat="43.72453" lon="3.58436">
        <ele>292.86</ele>
        <time>2018-01-28T14:07:42Z</time>
      </trkpt>
      <trkpt lat="43.72453" lon="3.58444">
        <ele>293.34</ele>
        <time>2018-01-28T14:07:47Z</time>
      </trkpt>
      <trkpt lat="43.72452" lon="3.58466">
        <ele>294.3</ele>
        <time>2018-01-28T14:08:02Z</time>
      </trkpt>
      <trkpt lat="43.72452" lon="3.58463">
        <ele>294.3</ele>
        <time>2018-01-28T14:08:05Z</time>
      </trkpt>
      <trkpt lat="43.72452" lon="3.58455">
        <ele>294.3</ele>
        <time>2018-01-28T14:08:10Z</time>
      </trkpt>
      <trkpt lat="43.72453" lon="3.58434">
        <ele>294.3</ele>
        <time>2018-01-28T14:08:24Z</time>
      </trkpt>
      <trkpt lat="43.72453" lon="3.58432">
        <ele>294.3</ele>
        <time>2018-01-28T14:08:26Z</time>
      </trkpt>
      <trkpt lat="43.72435" lon="3.5844">
        <ele>296.7</ele>
        <time>2018-01-28T14:08:42Z</time>
      </trkpt>
      <trkpt lat="43.72416" lon="3.58444">
        <ele>296.22</ele>
        <time>2018-01-28T14:08:56Z</time>
      </trkpt>
      <trkpt lat="43.72395" lon="3.58458">
        <ele>294.78</ele>
        <time>2018-01-28T14:09:13Z</time>
      </trkpt>
      <trkpt lat="43.72375" lon="3.58479">
        <ele>291.42</ele>
        <time>2018-01-28T14:09:31Z</time>
      </trkpt>
      <trkpt lat="43.72355" lon="3.58493">
        <ele>288.53</ele>
        <time>2018-01-28T14:09:47Z</time>
      </trkpt>
      <trkpt lat="43.7234" lon="3.58505">
        <ele>287.09</ele>
        <time>2018-01-28T14:10:03Z</time>
      </trkpt>
      <trkpt lat="43.72333" lon="3.58506">
        <ele>287.09</ele>
        <time>2018-01-28T14:10:15Z</time>
      </trkpt>
      <trkpt lat="43.72334" lon="3.58506">
        <ele>289.97</ele>
        <time>2018-01-28T14:10:48Z</time>
      </trkpt>
      <trkpt lat="43.72334" lon="3.58504">
        <ele>289.97</ele>
        <time>2018-01-28T14:11:01Z</time>
      </trkpt>
      <trkpt lat="43.72329" lon="3.58496">
        <ele>288.05</ele>
        <time>2018-01-28T14:11:09Z</time>
      </trkpt>
      <trkpt lat="43.72315" lon="3.58494">
        <ele>284.69</ele>
        <time>2018-01-28T14:11:24Z</time>
      </trkpt>
      <trkpt lat="43.72313" lon="3.58497">
        <ele>284.69</ele>
        <time>2018-01-28T14:11:27Z</time>
      </trkpt>
      <trkpt lat="43.72311" lon="3.58498">
        <ele>285.17</ele>
        <time>2018-01-28T14:11:33Z</time>
      </trkpt>
      <trkpt lat="43.72314" lon="3.58496">
        <ele>285.17</ele>
        <time>2018-01-28T14:11:37Z</time>
      </trkpt>
      <trkpt lat="43.72317" lon="3.58497">
        <ele>285.17</ele>
        <time>2018-01-28T14:11:40Z</time>
      </trkpt>
      <trkpt lat="43.72322" lon="3.58498">
        <ele>285.65</ele>
        <time>2018-01-28T14:11:45Z</time>
      </trkpt>
      <trkpt lat="43.72331" lon="3.585">
        <ele>285.17</ele>
        <time>2018-01-28T14:11:53Z</time>
      </trkpt>
      <trkpt lat="43.72333" lon="3.58504">
        <ele>285.65</ele>
        <time>2018-01-28T14:11:56Z</time>
      </trkpt>
      <trkpt lat="43.7233" lon="3.58514">
        <ele>286.13</ele>
        <time>2018-01-28T14:12:03Z</time>
      </trkpt>
      <trkpt lat="43.72311" lon="3.58529">
        <ele>283.25</ele>
        <time>2018-01-28T14:12:20Z</time>
      </trkpt>
      <trkpt lat="43.72297" lon="3.58551">
        <ele>281.32</ele>
        <time>2018-01-28T14:12:38Z</time>
      </trkpt>
      <trkpt lat="43.72295" lon="3.58581">
        <ele>283.25</ele>
        <time>2018-01-28T14:12:54Z</time>
      </trkpt>
      <trkpt lat="43.72281" lon="3.58601">
        <ele>281.32</ele>
        <time>2018-01-28T14:13:11Z</time>
      </trkpt>
      <trkpt lat="43.7228" lon="3.58601">
        <ele>281.8</ele>
        <time>2018-01-28T14:13:28Z</time>
      </trkpt>
      <trkpt lat="43.7228" lon="3.58602">
        <ele>281.8</ele>
        <time>2018-01-28T14:13:51Z</time>
      </trkpt>
      <trkpt lat="43.72282" lon="3.58601">
        <ele>280.36</ele>
        <time>2018-01-28T14:14:19Z</time>
      </trkpt>
      <trkpt lat="43.7228" lon="3.58602">
        <ele>282.77</ele>
        <time>2018-01-28T14:14:53Z</time>
      </trkpt>
      <trkpt lat="43.72275" lon="3.58605">
        <ele>283.73</ele>
        <time>2018-01-28T14:15:08Z</time>
      </trkpt>
      <trkpt lat="43.72258" lon="3.58622">
        <ele>281.8</ele>
        <time>2018-01-28T14:15:25Z</time>
      </trkpt>
      <trkpt lat="43.72244" lon="3.58652">
        <ele>280.84</ele>
        <time>2018-01-28T14:15:44Z</time>
      </trkpt>
      <trkpt lat="43.7223" lon="3.58676">
        <ele>276.52</ele>
        <time>2018-01-28T14:16:01Z</time>
      </trkpt>
      <trkpt lat="43.72226" lon="3.58701">
        <ele>274.59</ele>
        <time>2018-01-28T14:16:16Z</time>
      </trkpt>
      <trkpt lat="43.72222" lon="3.58724">
        <ele>272.19</ele>
        <time>2018-01-28T14:16:29Z</time>
      </trkpt>
      <trkpt lat="43.72219" lon="3.58756">
        <ele>269.31</ele>
        <time>2018-01-28T14:16:47Z</time>
      </trkpt>
      <trkpt lat="43.72212" lon="3.58782">
        <ele>266.9</ele>
        <time>2018-01-28T14:17:02Z</time>
      </trkpt>
      <trkpt lat="43.72207" lon="3.58812">
        <ele>265.46</ele>
        <time>2018-01-28T14:17:19Z</time>
      </trkpt>
      <trkpt lat="43.72196" lon="3.58838">
        <ele>262.1</ele>
        <time>2018-01-28T14:17:34Z</time>
      </trkpt>
      <trkpt lat="43.72192" lon="3.5885">
        <ele>260.65</ele>
        <time>2018-01-28T14:17:41Z</time>
      </trkpt>
      <trkpt lat="43.72187" lon="3.58863">
        <ele>258.25</ele>
        <time>2018-01-28T14:17:50Z</time>
      </trkpt>
      <trkpt lat="43.72176" lon="3.58865">
        <ele>253.93</ele>
        <time>2018-01-28T14:18:01Z</time>
      </trkpt>
      <trkpt lat="43.72173" lon="3.58871">
        <ele>251.52</ele>
        <time>2018-01-28T14:18:06Z</time>
      </trkpt>
      <trkpt lat="43.72162" lon="3.58891">
        <ele>245.27</ele>
        <time>2018-01-28T14:18:24Z</time>
      </trkpt>
      <trkpt lat="43.72159" lon="3.58899">
        <ele>243.83</ele>
        <time>2018-01-28T14:18:30Z</time>
      </trkpt>
      <trkpt lat="43.7216" lon="3.58903">
        <ele>243.35</ele>
        <time>2018-01-28T14:18:32Z</time>
      </trkpt>
      <trkpt lat="43.72151" lon="3.5893">
        <ele>240.47</ele>
        <time>2018-01-28T14:18:49Z</time>
      </trkpt>
      <trkpt lat="43.72143" lon="3.58952">
        <ele>237.1</ele>
        <time>2018-01-28T14:19:04Z</time>
      </trkpt>
      <trkpt lat="43.72131" lon="3.58973">
        <ele>232.3</ele>
        <time>2018-01-28T14:19:22Z</time>
      </trkpt>
      <trkpt lat="43.72124" lon="3.58982">
        <ele>228.93</ele>
        <time>2018-01-28T14:19:32Z</time>
      </trkpt>
      <trkpt lat="43.72115" lon="3.58995">
        <ele>226.05</ele>
        <time>2018-01-28T14:19:44Z</time>
      </trkpt>
      <trkpt lat="43.72105" lon="3.58993">
        <ele>219.8</ele>
        <time>2018-01-28T14:20:01Z</time>
      </trkpt>
      <trkpt lat="43.72106" lon="3.58989">
        <ele>217.88</ele>
        <time>2018-01-28T14:20:19Z</time>
      </trkpt>
      <trkpt lat="43.72104" lon="3.58988">
        <ele>215.95</ele>
        <time>2018-01-28T14:20:48Z</time>
      </trkpt>
      <trkpt lat="43.72104" lon="3.58988">
        <ele>215.47</ele>
        <time>2018-01-28T14:21:02Z</time>
      </trkpt>
      <trkpt lat="43.72103" lon="3.58998">
        <ele>214.03</ele>
        <time>2018-01-28T14:21:10Z</time>
      </trkpt>
      <trkpt lat="43.72087" lon="3.59014">
        <ele>212.11</ele>
        <time>2018-01-28T14:21:26Z</time>
      </trkpt>
      <trkpt lat="43.72069" lon="3.59038">
        <ele>210.67</ele>
        <time>2018-01-28T14:21:42Z</time>
      </trkpt>
      <trkpt lat="43.72052" lon="3.59059">
        <ele>208.74</ele>
        <time>2018-01-28T14:21:57Z</time>
      </trkpt>
      <trkpt lat="43.72033" lon="3.59077">
        <ele>208.74</ele>
        <time>2018-01-28T14:22:12Z</time>
      </trkpt>
      <trkpt lat="43.72012" lon="3.59097">
        <ele>207.78</ele>
        <time>2018-01-28T14:22:26Z</time>
      </trkpt>
      <trkpt lat="43.71993" lon="3.59111">
        <ele>207.3</ele>
        <time>2018-01-28T14:22:38Z</time>
      </trkpt>
      <trkpt lat="43.71971" lon="3.59129">
        <ele>207.3</ele>
        <time>2018-01-28T14:22:55Z</time>
      </trkpt>
      <trkpt lat="43.71948" lon="3.59146">
        <ele>205.86</ele>
        <time>2018-01-28T14:23:14Z</time>
      </trkpt>
      <trkpt lat="43.71931" lon="3.59163">
        <ele>203.46</ele>
        <time>2018-01-28T14:23:28Z</time>
      </trkpt>
      <trkpt lat="43.7191" lon="3.59178">
        <ele>196.25</ele>
        <time>2018-01-28T14:23:44Z</time>
      </trkpt>
      <trkpt lat="43.71901" lon="3.59185">
        <ele>192.88</ele>
        <time>2018-01-28T14:23:53Z</time>
      </trkpt>
      <trkpt lat="43.719" lon="3.59186">
        <ele>192.88</ele>
        <time>2018-01-28T14:23:54Z</time>
      </trkpt>
      <trkpt lat="43.71899" lon="3.59187">
        <ele>192.4</ele>
        <time>2018-01-28T14:23:55Z</time>
      </trkpt>
      <trkpt lat="43.71881" lon="3.59199">
        <ele>188.56</ele>
        <time>2018-01-28T14:24:09Z</time>
      </trkpt>
      <trkpt lat="43.7186" lon="3.59215">
        <ele>187.11</ele>
        <time>2018-01-28T14:24:25Z</time>
      </trkpt>
      <trkpt lat="43.71842" lon="3.59232">
        <ele>186.15</ele>
        <time>2018-01-28T14:24:40Z</time>
      </trkpt>
      <trkpt lat="43.71824" lon="3.5925">
        <ele>186.15</ele>
        <time>2018-01-28T14:24:56Z</time>
      </trkpt>
      <trkpt lat="43.71804" lon="3.59263">
        <ele>183.75</ele>
        <time>2018-01-28T14:25:14Z</time>
      </trkpt>
      <trkpt lat="43.71781" lon="3.59269">
        <ele>179.9</ele>
        <time>2018-01-28T14:25:32Z</time>
      </trkpt>
      <trkpt lat="43.7176" lon="3.59277">
        <ele>174.62</ele>
        <time>2018-01-28T14:25:48Z</time>
      </trkpt>
      <trkpt lat="43.71746" lon="3.59275">
        <ele>171.73</ele>
        <time>2018-01-28T14:25:59Z</time>
      </trkpt>
      <trkpt lat="43.71744" lon="3.59276">
        <ele>171.25</ele>
        <time>2018-01-28T14:26:00Z</time>
      </trkpt>
      <trkpt lat="43.71743" lon="3.59276">
        <ele>171.25</ele>
        <time>2018-01-28T14:26:01Z</time>
      </trkpt>
      <trkpt lat="43.71742" lon="3.59276">
        <ele>171.25</ele>
        <time>2018-01-28T14:26:02Z</time>
      </trkpt>
      <trkpt lat="43.71741" lon="3.59276">
        <ele>170.77</ele>
        <time>2018-01-28T14:26:03Z</time>
      </trkpt>
      <trkpt lat="43.71739" lon="3.59276">
        <ele>170.77</ele>
        <time>2018-01-28T14:26:04Z</time>
      </trkpt>
      <trkpt lat="43.71738" lon="3.59276">
        <ele>170.77</ele>
        <time>2018-01-28T14:26:05Z</time>
      </trkpt>
      <trkpt lat="43.71713" lon="3.59277">
        <ele>169.33</ele>
        <time>2018-01-28T14:26:23Z</time>
      </trkpt>
      <trkpt lat="43.71708" lon="3.59275">
        <ele>167.89</ele>
        <time>2018-01-28T14:26:27Z</time>
      </trkpt>
      <trkpt lat="43.71707" lon="3.59276">
        <ele>167.41</ele>
        <time>2018-01-28T14:26:28Z</time>
      </trkpt>
      <trkpt lat="43.71705" lon="3.59276">
        <ele>167.41</ele>
        <time>2018-01-28T14:26:29Z</time>
      </trkpt>
      <trkpt lat="43.71704" lon="3.59275">
        <ele>166.93</ele>
        <time>2018-01-28T14:26:30Z</time>
      </trkpt>
      <trkpt lat="43.71703" lon="3.59275">
        <ele>166.93</ele>
        <time>2018-01-28T14:26:31Z</time>
      </trkpt>
      <trkpt lat="43.71701" lon="3.59274">
        <ele>166.45</ele>
        <time>2018-01-28T14:26:32Z</time>
      </trkpt>
      <trkpt lat="43.71676" lon="3.5927">
        <ele>164.04</ele>
        <time>2018-01-28T14:26:51Z</time>
      </trkpt>
      <trkpt lat="43.71652" lon="3.59276">
        <ele>160.68</ele>
        <time>2018-01-28T14:27:08Z</time>
      </trkpt>
      <trkpt lat="43.71629" lon="3.59278">
        <ele>158.75</ele>
        <time>2018-01-28T14:27:27Z</time>
      </trkpt>
      <trkpt lat="43.71604" lon="3.59282">
        <ele>154.43</ele>
        <time>2018-01-28T14:27:45Z</time>
      </trkpt>
      <trkpt lat="43.71585" lon="3.59287">
        <ele>154.43</ele>
        <time>2018-01-28T14:28:01Z</time>
      </trkpt>
      <trkpt lat="43.71576" lon="3.59289">
        <ele>156.35</ele>
        <time>2018-01-28T14:28:08Z</time>
      </trkpt>
      <trkpt lat="43.71574" lon="3.59289">
        <ele>155.87</ele>
        <time>2018-01-28T14:28:09Z</time>
      </trkpt>
      <trkpt lat="43.71573" lon="3.59289">
        <ele>156.35</ele>
        <time>2018-01-28T14:28:10Z</time>
      </trkpt>
      <trkpt lat="43.71568" lon="3.59289">
        <ele>155.39</ele>
        <time>2018-01-28T14:28:16Z</time>
      </trkpt>
      <trkpt lat="43.71567" lon="3.59289">
        <ele>155.39</ele>
        <time>2018-01-28T14:28:17Z</time>
      </trkpt>
      <trkpt lat="43.71565" lon="3.59289">
        <ele>155.39</ele>
        <time>2018-01-28T14:28:18Z</time>
      </trkpt>
      <trkpt lat="43.71564" lon="3.59289">
        <ele>154.91</ele>
        <time>2018-01-28T14:28:19Z</time>
      </trkpt>
      <trkpt lat="43.71554" lon="3.59281">
        <ele>154.43</ele>
        <time>2018-01-28T14:28:30Z</time>
      </trkpt>
      <trkpt lat="43.71538" lon="3.59264">
        <ele>150.58</ele>
        <time>2018-01-28T14:28:45Z</time>
      </trkpt>
      <trkpt lat="43.71531" lon="3.59259">
        <ele>149.14</ele>
        <time>2018-01-28T14:28:52Z</time>
      </trkpt>
      <trkpt lat="43.7153" lon="3.59259">
        <ele>149.14</ele>
        <time>2018-01-28T14:28:53Z</time>
      </trkpt>
      <trkpt lat="43.71528" lon="3.59259">
        <ele>148.66</ele>
        <time>2018-01-28T14:28:54Z</time>
      </trkpt>
      <trkpt lat="43.71527" lon="3.59259">
        <ele>149.14</ele>
        <time>2018-01-28T14:28:55Z</time>
      </trkpt>
      <trkpt lat="43.71526" lon="3.5926">
        <ele>148.66</ele>
        <time>2018-01-28T14:28:56Z</time>
      </trkpt>
      <trkpt lat="43.71525" lon="3.59261">
        <ele>148.66</ele>
        <time>2018-01-28T14:28:57Z</time>
      </trkpt>
      <trkpt lat="43.71516" lon="3.59267">
        <ele>148.66</ele>
        <time>2018-01-28T14:29:06Z</time>
      </trkpt>
      <trkpt lat="43.71515" lon="3.59267">
        <ele>148.66</ele>
        <time>2018-01-28T14:29:07Z</time>
      </trkpt>
      <trkpt lat="43.71508" lon="3.59264">
        <ele>148.18</ele>
        <time>2018-01-28T14:29:13Z</time>
      </trkpt>
      <trkpt lat="43.71506" lon="3.59266">
        <ele>148.18</ele>
        <time>2018-01-28T14:29:16Z</time>
      </trkpt>
      <trkpt lat="43.71505" lon="3.59268">
        <ele>148.18</ele>
        <time>2018-01-28T14:29:17Z</time>
      </trkpt>
      <trkpt lat="43.71505" lon="3.5927">
        <ele>148.18</ele>
        <time>2018-01-28T14:29:18Z</time>
      </trkpt>
      <trkpt lat="43.71505" lon="3.59271">
        <ele>148.66</ele>
        <time>2018-01-28T14:29:19Z</time>
      </trkpt>
      <trkpt lat="43.71504" lon="3.59273">
        <ele>148.66</ele>
        <time>2018-01-28T14:29:20Z</time>
      </trkpt>
      <trkpt lat="43.71504" lon="3.59274">
        <ele>149.14</ele>
        <time>2018-01-28T14:29:21Z</time>
      </trkpt>
      <trkpt lat="43.71502" lon="3.59276">
        <ele>149.62</ele>
        <time>2018-01-28T14:29:28Z</time>
      </trkpt>
      <trkpt lat="43.71503" lon="3.59275">
        <ele>149.62</ele>
        <time>2018-01-28T14:29:29Z</time>
      </trkpt>
      <trkpt lat="43.71505" lon="3.59271">
        <ele>149.62</ele>
        <time>2018-01-28T14:29:32Z</time>
      </trkpt>
      <trkpt lat="43.71502" lon="3.5926">
        <ele>149.14</ele>
        <time>2018-01-28T14:29:39Z</time>
      </trkpt>
      <trkpt lat="43.71482" lon="3.59255">
        <ele>146.26</ele>
        <time>2018-01-28T14:29:58Z</time>
      </trkpt>
      <trkpt lat="43.7146" lon="3.5925">
        <ele>145.3</ele>
        <time>2018-01-28T14:30:16Z</time>
      </trkpt>
      <trkpt lat="43.71448" lon="3.59252">
        <ele>145.3</ele>
        <time>2018-01-28T14:30:30Z</time>
      </trkpt>
      <trkpt lat="43.71449" lon="3.59259">
        <ele>145.78</ele>
        <time>2018-01-28T14:30:42Z</time>
      </trkpt>
      <trkpt lat="43.7145" lon="3.59261">
        <ele>145.78</ele>
        <time>2018-01-28T14:30:57Z</time>
      </trkpt>
      <trkpt lat="43.7145" lon="3.59263">
        <ele>143.85</ele>
        <time>2018-01-28T14:31:26Z</time>
      </trkpt>
      <trkpt lat="43.71449" lon="3.59262">
        <ele>148.18</ele>
        <time>2018-01-28T14:31:59Z</time>
      </trkpt>
      <trkpt lat="43.71449" lon="3.59259">
        <ele>147.7</ele>
        <time>2018-01-28T14:32:24Z</time>
      </trkpt>
      <trkpt lat="43.7145" lon="3.59259">
        <ele>147.7</ele>
        <time>2018-01-28T14:32:42Z</time>
      </trkpt>
      <trkpt lat="43.71448" lon="3.59258">
        <ele>146.74</ele>
        <time>2018-01-28T14:33:04Z</time>
      </trkpt>
      <trkpt lat="43.71449" lon="3.59259">
        <ele>145.78</ele>
        <time>2018-01-28T14:33:27Z</time>
      </trkpt>
      <trkpt lat="43.71447" lon="3.59256">
        <ele>143.37</ele>
        <time>2018-01-28T14:33:45Z</time>
      </trkpt>
      <trkpt lat="43.71445" lon="3.59253">
        <ele>144.82</ele>
        <time>2018-01-28T14:34:12Z</time>
      </trkpt>
      <trkpt lat="43.71448" lon="3.59248">
        <ele>145.3</ele>
        <time>2018-01-28T14:34:29Z</time>
      </trkpt>
      <trkpt lat="43.71453" lon="3.59237">
        <ele>139.53</ele>
        <time>2018-01-28T14:34:40Z</time>
      </trkpt>
      <trkpt lat="43.71456" lon="3.5923">
        <ele>141.93</ele>
        <time>2018-01-28T14:34:53Z</time>
      </trkpt>
      <trkpt lat="43.71456" lon="3.5923">
        <ele>143.37</ele>
        <time>2018-01-28T14:35:00Z</time>
      </trkpt>
      <trkpt lat="43.71465" lon="3.5923">
        <ele>146.26</ele>
        <time>2018-01-28T14:35:10Z</time>
      </trkpt>
      <trkpt lat="43.71472" lon="3.59232">
        <ele>146.74</ele>
        <time>2018-01-28T14:35:24Z</time>
      </trkpt>
      <trkpt lat="43.71474" lon="3.59232">
        <ele>145.3</ele>
        <time>2018-01-28T14:35:39Z</time>
      </trkpt>
      <trkpt lat="43.71488" lon="3.59243">
        <ele>144.82</ele>
        <time>2018-01-28T14:35:54Z</time>
      </trkpt>
      <trkpt lat="43.71509" lon="3.59256">
        <ele>144.82</ele>
        <time>2018-01-28T14:36:11Z</time>
      </trkpt>
      <trkpt lat="43.71526" lon="3.59266">
        <ele>148.18</ele>
        <time>2018-01-28T14:36:27Z</time>
      </trkpt>
      <trkpt lat="43.71541" lon="3.59285">
        <ele>149.62</ele>
        <time>2018-01-28T14:36:44Z</time>
      </trkpt>
      <trkpt lat="43.71545" lon="3.59298">
        <ele>151.54</ele>
        <time>2018-01-28T14:36:56Z</time>
      </trkpt>
      <trkpt lat="43.71546" lon="3.593">
        <ele>153.95</ele>
        <time>2018-01-28T14:37:18Z</time>
      </trkpt>
      <trkpt lat="43.71561" lon="3.59314">
        <ele>154.43</ele>
        <time>2018-01-28T14:37:33Z</time>
      </trkpt>
      <trkpt lat="43.71577" lon="3.59325">
        <ele>154.91</ele>
        <time>2018-01-28T14:37:47Z</time>
      </trkpt>
      <trkpt lat="43.71584" lon="3.59328">
        <ele>154.43</ele>
        <time>2018-01-28T14:37:51Z</time>
      </trkpt>
      <trkpt lat="43.71589" lon="3.5933">
        <ele>153.95</ele>
        <time>2018-01-28T14:37:55Z</time>
      </trkpt>
      <trkpt lat="43.71608" lon="3.59338">
        <ele>150.58</ele>
        <time>2018-01-28T14:38:09Z</time>
      </trkpt>
      <trkpt lat="43.71628" lon="3.59349">
        <ele>150.58</ele>
        <time>2018-01-28T14:38:25Z</time>
      </trkpt>
      <trkpt lat="43.71636" lon="3.59356">
        <ele>151.06</ele>
        <time>2018-01-28T14:38:32Z</time>
      </trkpt>
      <trkpt lat="43.7165" lon="3.59372">
        <ele>149.14</ele>
        <time>2018-01-28T14:38:46Z</time>
      </trkpt>
      <trkpt lat="43.71664" lon="3.59385">
        <ele>147.22</ele>
        <time>2018-01-28T14:38:59Z</time>
      </trkpt>
      <trkpt lat="43.71679" lon="3.594">
        <ele>144.34</ele>
        <time>2018-01-28T14:39:14Z</time>
      </trkpt>
      <trkpt lat="43.71691" lon="3.59413">
        <ele>141.93</ele>
        <time>2018-01-28T14:39:25Z</time>
      </trkpt>
      <trkpt lat="43.71694" lon="3.59416">
        <ele>141.93</ele>
        <time>2018-01-28T14:39:27Z</time>
      </trkpt>
      <trkpt lat="43.71704" lon="3.59426">
        <ele>140.01</ele>
        <time>2018-01-28T14:39:37Z</time>
      </trkpt>
      <trkpt lat="43.71709" lon="3.59431">
        <ele>138.09</ele>
        <time>2018-01-28T14:39:43Z</time>
      </trkpt>
      <trkpt lat="43.71725" lon="3.59442">
        <ele>135.2</ele>
        <time>2018-01-28T14:39:57Z</time>
      </trkpt>
      <trkpt lat="43.71741" lon="3.59446">
        <ele>131.84</ele>
        <time>2018-01-28T14:40:10Z</time>
      </trkpt>
      <trkpt lat="43.71749" lon="3.59453">
        <ele>129.43</ele>
        <time>2018-01-28T14:40:17Z</time>
      </trkpt>
      <trkpt lat="43.71766" lon="3.59468">
        <ele>127.99</ele>
        <time>2018-01-28T14:40:32Z</time>
      </trkpt>
      <trkpt lat="43.71772" lon="3.59472">
        <ele>127.03</ele>
        <time>2018-01-28T14:40:37Z</time>
      </trkpt>
      <trkpt lat="43.7179" lon="3.59483">
        <ele>123.19</ele>
        <time>2018-01-28T14:40:52Z</time>
      </trkpt>
      <trkpt lat="43.71804" lon="3.59495">
        <ele>120.78</ele>
        <time>2018-01-28T14:41:04Z</time>
      </trkpt>
      <trkpt lat="43.71818" lon="3.59517">
        <ele>122.71</ele>
        <time>2018-01-28T14:41:17Z</time>
      </trkpt>
      <trkpt lat="43.71832" lon="3.59534">
        <ele>120.78</ele>
        <time>2018-01-28T14:41:31Z</time>
      </trkpt>
      <trkpt lat="43.71855" lon="3.59552">
        <ele>118.38</ele>
        <time>2018-01-28T14:41:50Z</time>
      </trkpt>
      <trkpt lat="43.71871" lon="3.59563">
        <ele>115.5</ele>
        <time>2018-01-28T14:42:04Z</time>
      </trkpt>
      <trkpt lat="43.71875" lon="3.5957">
        <ele>115.01</ele>
        <time>2018-01-28T14:42:18Z</time>
      </trkpt>
      <trkpt lat="43.7188" lon="3.59573">
        <ele>115.5</ele>
        <time>2018-01-28T14:42:31Z</time>
      </trkpt>
      <trkpt lat="43.71877" lon="3.59581">
        <ele>122.71</ele>
        <time>2018-01-28T14:42:47Z</time>
      </trkpt>
      <trkpt lat="43.71875" lon="3.59584">
        <ele>127.99</ele>
        <time>2018-01-28T14:43:00Z</time>
      </trkpt>
      <trkpt lat="43.71874" lon="3.59584">
        <ele>127.99</ele>
        <time>2018-01-28T14:43:04Z</time>
      </trkpt>
      <trkpt lat="43.71862" lon="3.59592">
        <ele>130.4</ele>
        <time>2018-01-28T14:43:17Z</time>
      </trkpt>
      <trkpt lat="43.71851" lon="3.59613">
        <ele>133.28</ele>
        <time>2018-01-28T14:43:34Z</time>
      </trkpt>
      <trkpt lat="43.71844" lon="3.5963">
        <ele>135.2</ele>
        <time>2018-01-28T14:43:49Z</time>
      </trkpt>
      <trkpt lat="43.71841" lon="3.59644">
        <ele>137.61</ele>
        <time>2018-01-28T14:44:02Z</time>
      </trkpt>
      <trkpt lat="43.7184" lon="3.59663">
        <ele>142.89</ele>
        <time>2018-01-28T14:44:18Z</time>
      </trkpt>
      <trkpt lat="43.71844" lon="3.59679">
        <ele>143.85</ele>
        <time>2018-01-28T14:44:35Z</time>
      </trkpt>
      <trkpt lat="43.71854" lon="3.59687">
        <ele>142.89</ele>
        <time>2018-01-28T14:44:52Z</time>
      </trkpt>
      <trkpt lat="43.71863" lon="3.59693">
        <ele>140.97</ele>
        <time>2018-01-28T14:45:05Z</time>
      </trkpt>
      <trkpt lat="43.71874" lon="3.59697">
        <ele>140.97</ele>
        <time>2018-01-28T14:45:18Z</time>
      </trkpt>
      <trkpt lat="43.71885" lon="3.59704">
        <ele>140.01</ele>
        <time>2018-01-28T14:45:32Z</time>
      </trkpt>
      <trkpt lat="43.71897" lon="3.59714">
        <ele>144.34</ele>
        <time>2018-01-28T14:45:47Z</time>
      </trkpt>
      <trkpt lat="43.71906" lon="3.59736">
        <ele>152.99</ele>
        <time>2018-01-28T14:46:06Z</time>
      </trkpt>
      <trkpt lat="43.71909" lon="3.59751">
        <ele>155.87</ele>
        <time>2018-01-28T14:46:21Z</time>
      </trkpt>
      <trkpt lat="43.71912" lon="3.59774">
        <ele>161.16</ele>
        <time>2018-01-28T14:46:38Z</time>
      </trkpt>
      <trkpt lat="43.71913" lon="3.59789">
        <ele>163.56</ele>
        <time>2018-01-28T14:46:53Z</time>
      </trkpt>
      <trkpt lat="43.71905" lon="3.59807">
        <ele>167.89</ele>
        <time>2018-01-28T14:47:10Z</time>
      </trkpt>
      <trkpt lat="43.71897" lon="3.59827">
        <ele>170.77</ele>
        <time>2018-01-28T14:47:26Z</time>
      </trkpt>
      <trkpt lat="43.71894" lon="3.59841">
        <ele>169.81</ele>
        <time>2018-01-28T14:47:40Z</time>
      </trkpt>
      <trkpt lat="43.71897" lon="3.59861">
        <ele>170.77</ele>
        <time>2018-01-28T14:47:57Z</time>
      </trkpt>
      <trkpt lat="43.71904" lon="3.59874">
        <ele>172.69</ele>
        <time>2018-01-28T14:48:12Z</time>
      </trkpt>
      <trkpt lat="43.71912" lon="3.59881">
        <ele>179.42</ele>
        <time>2018-01-28T14:48:28Z</time>
      </trkpt>
      <trkpt lat="43.71914" lon="3.59876">
        <ele>184.23</ele>
        <time>2018-01-28T14:48:54Z</time>
      </trkpt>
      <trkpt lat="43.71921" lon="3.59879">
        <ele>187.11</ele>
        <time>2018-01-28T14:49:16Z</time>
      </trkpt>
      <trkpt lat="43.71937" lon="3.59891">
        <ele>186.15</ele>
        <time>2018-01-28T14:49:30Z</time>
      </trkpt>
      <trkpt lat="43.71939" lon="3.59892">
        <ele>186.15</ele>
        <time>2018-01-28T14:49:32Z</time>
      </trkpt>
      <trkpt lat="43.71946" lon="3.59895">
        <ele>186.63</ele>
        <time>2018-01-28T14:49:38Z</time>
      </trkpt>
      <trkpt lat="43.71953" lon="3.59906">
        <ele>184.71</ele>
        <time>2018-01-28T14:49:54Z</time>
      </trkpt>
      <trkpt lat="43.71954" lon="3.59909">
        <ele>189.04</ele>
        <time>2018-01-28T14:50:11Z</time>
      </trkpt>
      <trkpt lat="43.71956" lon="3.59909">
        <ele>190.48</ele>
        <time>2018-01-28T14:50:42Z</time>
      </trkpt>
      <trkpt lat="43.71953" lon="3.59907">
        <ele>192.88</ele>
        <time>2018-01-28T14:51:12Z</time>
      </trkpt>
      <trkpt lat="43.71955" lon="3.5991">
        <ele>192.88</ele>
        <time>2018-01-28T14:51:49Z</time>
      </trkpt>
      <trkpt lat="43.71954" lon="3.5991">
        <ele>192.88</ele>
        <time>2018-01-28T14:52:16Z</time>
      </trkpt>
      <trkpt lat="43.71954" lon="3.59909">
        <ele>193.36</ele>
        <time>2018-01-28T14:52:42Z</time>
      </trkpt>
      <trkpt lat="43.71954" lon="3.59909">
        <ele>193.84</ele>
        <time>2018-01-28T14:53:14Z</time>
      </trkpt>
      <trkpt lat="43.71953" lon="3.59909">
        <ele>194.32</ele>
        <time>2018-01-28T14:53:43Z</time>
      </trkpt>
      <trkpt lat="43.71954" lon="3.59908">
        <ele>192.4</ele>
        <time>2018-01-28T14:54:00Z</time>
      </trkpt>
      <trkpt lat="43.71956" lon="3.59909">
        <ele>190.48</ele>
        <time>2018-01-28T14:54:24Z</time>
      </trkpt>
      <trkpt lat="43.71958" lon="3.59911">
        <ele>189.52</ele>
        <time>2018-01-28T14:54:50Z</time>
      </trkpt>
      <trkpt lat="43.71957" lon="3.59914">
        <ele>192.4</ele>
        <time>2018-01-28T14:55:11Z</time>
      </trkpt>
      <trkpt lat="43.71954" lon="3.59906">
        <ele>193.84</ele>
        <time>2018-01-28T14:55:34Z</time>
      </trkpt>
      <trkpt lat="43.71955" lon="3.59907">
        <ele>192.4</ele>
        <time>2018-01-28T14:55:52Z</time>
      </trkpt>
      <trkpt lat="43.71956" lon="3.59912">
        <ele>192.4</ele>
        <time>2018-01-28T14:56:01Z</time>
      </trkpt>
      <trkpt lat="43.71956" lon="3.59934">
        <ele>190.96</ele>
        <time>2018-01-28T14:56:16Z</time>
      </trkpt>
      <trkpt lat="43.71956" lon="3.59958">
        <ele>187.59</ele>
        <time>2018-01-28T14:56:32Z</time>
      </trkpt>
      <trkpt lat="43.71957" lon="3.59981">
        <ele>189.52</ele>
        <time>2018-01-28T14:56:47Z</time>
      </trkpt>
      <trkpt lat="43.71957" lon="3.60001">
        <ele>189.04</ele>
        <time>2018-01-28T14:57:01Z</time>
      </trkpt>
      <trkpt lat="43.71956" lon="3.60023">
        <ele>194.8</ele>
        <time>2018-01-28T14:57:15Z</time>
      </trkpt>
      <trkpt lat="43.71953" lon="3.60029">
        <ele>195.77</ele>
        <time>2018-01-28T14:57:20Z</time>
      </trkpt>
      <trkpt lat="43.71942" lon="3.60041">
        <ele>200.57</ele>
        <time>2018-01-28T14:57:34Z</time>
      </trkpt>
      <trkpt lat="43.7194" lon="3.60045">
        <ele>200.57</ele>
        <time>2018-01-28T14:57:37Z</time>
      </trkpt>
      <trkpt lat="43.71936" lon="3.60051">
        <ele>200.57</ele>
        <time>2018-01-28T14:57:43Z</time>
      </trkpt>
      <trkpt lat="43.71932" lon="3.60058">
        <ele>201.05</ele>
        <time>2018-01-28T14:57:49Z</time>
      </trkpt>
      <trkpt lat="43.71928" lon="3.60065">
        <ele>202.98</ele>
        <time>2018-01-28T14:57:54Z</time>
      </trkpt>
      <trkpt lat="43.71916" lon="3.6009">
        <ele>203.94</ele>
        <time>2018-01-28T14:58:10Z</time>
      </trkpt>
      <trkpt lat="43.7191" lon="3.60111">
        <ele>203.46</ele>
        <time>2018-01-28T14:58:23Z</time>
      </trkpt>
      <trkpt lat="43.71907" lon="3.60116">
        <ele>203.94</ele>
        <time>2018-01-28T14:58:38Z</time>
      </trkpt>
      <trkpt lat="43.7191" lon="3.60116">
        <ele>206.82</ele>
        <time>2018-01-28T14:59:05Z</time>
      </trkpt>
      <trkpt lat="43.71931" lon="3.60117">
        <ele>206.34</ele>
        <time>2018-01-28T14:59:23Z</time>
      </trkpt>
      <trkpt lat="43.7194" lon="3.60119">
        <ele>207.3</ele>
        <time>2018-01-28T14:59:38Z</time>
      </trkpt>
      <trkpt lat="43.7194" lon="3.60117">
        <ele>207.3</ele>
        <time>2018-01-28T15:00:08Z</time>
      </trkpt>
      <trkpt lat="43.71941" lon="3.60116">
        <ele>208.26</ele>
        <time>2018-01-28T15:00:41Z</time>
      </trkpt>
      <trkpt lat="43.7194" lon="3.60117">
        <ele>207.78</ele>
        <time>2018-01-28T15:00:45Z</time>
      </trkpt>
      <trkpt lat="43.71935" lon="3.60119">
        <ele>207.78</ele>
        <time>2018-01-28T15:01:01Z</time>
      </trkpt>
      <trkpt lat="43.71928" lon="3.60118">
        <ele>208.26</ele>
        <time>2018-01-28T15:01:17Z</time>
      </trkpt>
      <trkpt lat="43.71904" lon="3.60121">
        <ele>206.82</ele>
        <time>2018-01-28T15:01:34Z</time>
      </trkpt>
      <trkpt lat="43.71887" lon="3.60131">
        <ele>207.3</ele>
        <time>2018-01-28T15:01:48Z</time>
      </trkpt>
      <trkpt lat="43.71883" lon="3.60137">
        <ele>206.82</ele>
        <time>2018-01-28T15:01:52Z</time>
      </trkpt>
      <trkpt lat="43.71868" lon="3.60158">
        <ele>202.01</ele>
        <time>2018-01-28T15:02:09Z</time>
      </trkpt>
      <trkpt lat="43.71855" lon="3.60183">
        <ele>198.17</ele>
        <time>2018-01-28T15:02:24Z</time>
      </trkpt>
      <trkpt lat="43.71852" lon="3.60187">
        <ele>197.21</ele>
        <time>2018-01-28T15:02:27Z</time>
      </trkpt>
      <trkpt lat="43.71839" lon="3.60205">
        <ele>195.28</ele>
        <time>2018-01-28T15:02:40Z</time>
      </trkpt>
      <trkpt lat="43.71821" lon="3.6022">
        <ele>191.44</ele>
        <time>2018-01-28T15:02:55Z</time>
      </trkpt>
      <trkpt lat="43.71816" lon="3.60227">
        <ele>189.52</ele>
        <time>2018-01-28T15:03:00Z</time>
      </trkpt>
      <trkpt lat="43.71814" lon="3.60233">
        <ele>187.59</ele>
        <time>2018-01-28T15:03:04Z</time>
      </trkpt>
      <trkpt lat="43.71805" lon="3.60248">
        <ele>182.31</ele>
        <time>2018-01-28T15:03:17Z</time>
      </trkpt>
      <trkpt lat="43.71795" lon="3.60265">
        <ele>179.9</ele>
        <time>2018-01-28T15:03:28Z</time>
      </trkpt>
      <trkpt lat="43.71789" lon="3.60289">
        <ele>175.58</ele>
        <time>2018-01-28T15:03:40Z</time>
      </trkpt>
      <trkpt lat="43.71784" lon="3.60323">
        <ele>173.66</ele>
        <time>2018-01-28T15:03:57Z</time>
      </trkpt>
      <trkpt lat="43.7178" lon="3.60336">
        <ele>173.66</ele>
        <time>2018-01-28T15:04:03Z</time>
      </trkpt>
      <trkpt lat="43.71768" lon="3.60352">
        <ele>171.73</ele>
        <time>2018-01-28T15:04:15Z</time>
      </trkpt>
      <trkpt lat="43.71762" lon="3.60358">
        <ele>175.58</ele>
        <time>2018-01-28T15:04:31Z</time>
      </trkpt>
      <trkpt lat="43.7176" lon="3.60356">
        <ele>178.94</ele>
        <time>2018-01-28T15:04:59Z</time>
      </trkpt>
      <trkpt lat="43.7176" lon="3.60358">
        <ele>180.38</ele>
        <time>2018-01-28T15:05:20Z</time>
      </trkpt>
      <trkpt lat="43.71759" lon="3.60361">
        <ele>179.42</ele>
        <time>2018-01-28T15:05:22Z</time>
      </trkpt>
      <trkpt lat="43.71747" lon="3.60373">
        <ele>175.58</ele>
        <time>2018-01-28T15:05:34Z</time>
      </trkpt>
      <trkpt lat="43.71742" lon="3.60377">
        <ele>173.66</ele>
        <time>2018-01-28T15:05:39Z</time>
      </trkpt>
      <trkpt lat="43.71731" lon="3.6039">
        <ele>172.21</ele>
        <time>2018-01-28T15:05:48Z</time>
      </trkpt>
      <trkpt lat="43.7171" lon="3.60412">
        <ele>170.77</ele>
        <time>2018-01-28T15:06:05Z</time>
      </trkpt>
      <trkpt lat="43.71691" lon="3.60435">
        <ele>172.21</ele>
        <time>2018-01-28T15:06:22Z</time>
      </trkpt>
      <trkpt lat="43.71672" lon="3.6046">
        <ele>171.73</ele>
        <time>2018-01-28T15:06:40Z</time>
      </trkpt>
      <trkpt lat="43.71657" lon="3.6048">
        <ele>166.45</ele>
        <time>2018-01-28T15:06:55Z</time>
      </trkpt>
      <trkpt lat="43.71637" lon="3.60482">
        <ele>163.08</ele>
        <time>2018-01-28T15:07:12Z</time>
      </trkpt>
      <trkpt lat="43.71633" lon="3.60492">
        <ele>163.56</ele>
        <time>2018-01-28T15:07:28Z</time>
      </trkpt>
      <trkpt lat="43.71634" lon="3.60493">
        <ele>163.56</ele>
        <time>2018-01-28T15:07:29Z</time>
      </trkpt>
      <trkpt lat="43.71634" lon="3.60497">
        <ele>164.52</ele>
        <time>2018-01-28T15:07:43Z</time>
      </trkpt>
      <trkpt lat="43.71638" lon="3.60514">
        <ele>165</ele>
        <time>2018-01-28T15:07:57Z</time>
      </trkpt>
      <trkpt lat="43.71638" lon="3.60517">
        <ele>165</ele>
        <time>2018-01-28T15:07:59Z</time>
      </trkpt>
      <trkpt lat="43.71633" lon="3.60547">
        <ele>166.45</ele>
        <time>2018-01-28T15:08:15Z</time>
      </trkpt>
      <trkpt lat="43.71632" lon="3.60574">
        <ele>168.37</ele>
        <time>2018-01-28T15:08:30Z</time>
      </trkpt>
      <trkpt lat="43.71637" lon="3.60602">
        <ele>171.25</ele>
        <time>2018-01-28T15:08:47Z</time>
      </trkpt>
      <trkpt lat="43.71639" lon="3.60618">
        <ele>172.21</ele>
        <time>2018-01-28T15:08:56Z</time>
      </trkpt>
      <trkpt lat="43.71645" lon="3.60645">
        <ele>174.14</ele>
        <time>2018-01-28T15:09:11Z</time>
      </trkpt>
      <trkpt lat="43.71646" lon="3.60652">
        <ele>175.1</ele>
        <time>2018-01-28T15:09:15Z</time>
      </trkpt>
      <trkpt lat="43.71653" lon="3.60681">
        <ele>180.87</ele>
        <time>2018-01-28T15:09:33Z</time>
      </trkpt>
      <trkpt lat="43.71655" lon="3.60689">
        <ele>181.83</ele>
        <time>2018-01-28T15:09:38Z</time>
      </trkpt>
      <trkpt lat="43.71666" lon="3.60715">
        <ele>184.23</ele>
        <time>2018-01-28T15:09:56Z</time>
      </trkpt>
      <trkpt lat="43.71673" lon="3.60742">
        <ele>183.75</ele>
        <time>2018-01-28T15:10:12Z</time>
      </trkpt>
      <trkpt lat="43.71674" lon="3.60749">
        <ele>183.75</ele>
        <time>2018-01-28T15:10:16Z</time>
      </trkpt>
      <trkpt lat="43.71682" lon="3.60777">
        <ele>185.67</ele>
        <time>2018-01-28T15:10:32Z</time>
      </trkpt>
      <trkpt lat="43.7169" lon="3.60809">
        <ele>187.59</ele>
        <time>2018-01-28T15:10:50Z</time>
      </trkpt>
      <trkpt lat="43.71695" lon="3.60836">
        <ele>189.04</ele>
        <time>2018-01-28T15:11:04Z</time>
      </trkpt>
      <trkpt lat="43.71694" lon="3.60869">
        <ele>188.56</ele>
        <time>2018-01-28T15:11:21Z</time>
      </trkpt>
      <trkpt lat="43.717" lon="3.60901">
        <ele>189.04</ele>
        <time>2018-01-28T15:11:39Z</time>
      </trkpt>
      <trkpt lat="43.71702" lon="3.60907">
        <ele>189.04</ele>
        <time>2018-01-28T15:11:43Z</time>
      </trkpt>
      <trkpt lat="43.71707" lon="3.6094">
        <ele>187.59</ele>
        <time>2018-01-28T15:12:03Z</time>
      </trkpt>
      <trkpt lat="43.71713" lon="3.60967">
        <ele>187.11</ele>
        <time>2018-01-28T15:12:18Z</time>
      </trkpt>
      <trkpt lat="43.71718" lon="3.60992">
        <ele>185.67</ele>
        <time>2018-01-28T15:12:31Z</time>
      </trkpt>
      <trkpt lat="43.7172" lon="3.61003">
        <ele>185.19</ele>
        <time>2018-01-28T15:12:37Z</time>
      </trkpt>
      <trkpt lat="43.71723" lon="3.61023">
        <ele>181.83</ele>
        <time>2018-01-28T15:12:48Z</time>
      </trkpt>
      <trkpt lat="43.71724" lon="3.61053">
        <ele>177.98</ele>
        <time>2018-01-28T15:13:04Z</time>
      </trkpt>
      <trkpt lat="43.71718" lon="3.61078">
        <ele>179.9</ele>
        <time>2018-01-28T15:13:18Z</time>
      </trkpt>
      <trkpt lat="43.71711" lon="3.61107">
        <ele>179.42</ele>
        <time>2018-01-28T15:13:33Z</time>
      </trkpt>
      <trkpt lat="43.71703" lon="3.61132">
        <ele>178.94</ele>
        <time>2018-01-28T15:13:46Z</time>
      </trkpt>
      <trkpt lat="43.71694" lon="3.61156">
        <ele>178.46</ele>
        <time>2018-01-28T15:14:00Z</time>
      </trkpt>
      <trkpt lat="43.71682" lon="3.61179">
        <ele>181.35</ele>
        <time>2018-01-28T15:14:13Z</time>
      </trkpt>
      <trkpt lat="43.71668" lon="3.61208">
        <ele>180.87</ele>
        <time>2018-01-28T15:14:31Z</time>
      </trkpt>
      <trkpt lat="43.71649" lon="3.61243">
        <ele>180.87</ele>
        <time>2018-01-28T15:14:53Z</time>
      </trkpt>
      <trkpt lat="43.71633" lon="3.61268">
        <ele>180.87</ele>
        <time>2018-01-28T15:15:11Z</time>
      </trkpt>
      <trkpt lat="43.71616" lon="3.61292">
        <ele>181.83</ele>
        <time>2018-01-28T15:15:30Z</time>
      </trkpt>
      <trkpt lat="43.71601" lon="3.61315">
        <ele>181.83</ele>
        <time>2018-01-28T15:15:47Z</time>
      </trkpt>
      <trkpt lat="43.71583" lon="3.61336">
        <ele>179.9</ele>
        <time>2018-01-28T15:16:03Z</time>
      </trkpt>
      <trkpt lat="43.71561" lon="3.61352">
        <ele>179.42</ele>
        <time>2018-01-28T15:16:19Z</time>
      </trkpt>
      <trkpt lat="43.7155" lon="3.61364">
        <ele>179.9</ele>
        <time>2018-01-28T15:16:29Z</time>
      </trkpt>
      <trkpt lat="43.71552" lon="3.61388">
        <ele>177.98</ele>
        <time>2018-01-28T15:16:43Z</time>
      </trkpt>
      <trkpt lat="43.71558" lon="3.61397">
        <ele>178.94</ele>
        <time>2018-01-28T15:16:50Z</time>
      </trkpt>
      <trkpt lat="43.71568" lon="3.6142">
        <ele>182.79</ele>
        <time>2018-01-28T15:17:06Z</time>
      </trkpt>
      <trkpt lat="43.7158" lon="3.6144">
        <ele>182.79</ele>
        <time>2018-01-28T15:17:21Z</time>
      </trkpt>
      <trkpt lat="43.71579" lon="3.61441">
        <ele>181.83</ele>
        <time>2018-01-28T15:17:24Z</time>
      </trkpt>
      <trkpt lat="43.71576" lon="3.61442">
        <ele>182.31</ele>
        <time>2018-01-28T15:17:29Z</time>
      </trkpt>
      <trkpt lat="43.71576" lon="3.61448">
        <ele>182.79</ele>
        <time>2018-01-28T15:17:33Z</time>
      </trkpt>
      <trkpt lat="43.71576" lon="3.61452">
        <ele>182.79</ele>
        <time>2018-01-28T15:17:35Z</time>
      </trkpt>
      <trkpt lat="43.71571" lon="3.61463">
        <ele>181.83</ele>
        <time>2018-01-28T15:17:43Z</time>
      </trkpt>
      <trkpt lat="43.7157" lon="3.6147">
        <ele>181.83</ele>
        <time>2018-01-28T15:17:48Z</time>
      </trkpt>
      <trkpt lat="43.71568" lon="3.61474">
        <ele>181.35</ele>
        <time>2018-01-28T15:17:51Z</time>
      </trkpt>
      <trkpt lat="43.7157" lon="3.61477">
        <ele>180.38</ele>
        <time>2018-01-28T15:17:53Z</time>
      </trkpt>
      <trkpt lat="43.71566" lon="3.61491">
        <ele>178.46</ele>
        <time>2018-01-28T15:18:02Z</time>
      </trkpt>
      <trkpt lat="43.71562" lon="3.61501">
        <ele>177.5</ele>
        <time>2018-01-28T15:18:08Z</time>
      </trkpt>
      <trkpt lat="43.71559" lon="3.61507">
        <ele>177.02</ele>
        <time>2018-01-28T15:18:12Z</time>
      </trkpt>
      <trkpt lat="43.71557" lon="3.61515">
        <ele>175.58</ele>
        <time>2018-01-28T15:18:17Z</time>
      </trkpt>
      <trkpt lat="43.71557" lon="3.61522">
        <ele>173.66</ele>
        <time>2018-01-28T15:18:21Z</time>
      </trkpt>
      <trkpt lat="43.71557" lon="3.6153">
        <ele>172.69</ele>
        <time>2018-01-28T15:18:28Z</time>
      </trkpt>
      <trkpt lat="43.71561" lon="3.61534">
        <ele>170.77</ele>
        <time>2018-01-28T15:18:32Z</time>
      </trkpt>
      <trkpt lat="43.71573" lon="3.61555">
        <ele>166.45</ele>
        <time>2018-01-28T15:18:47Z</time>
      </trkpt>
      <trkpt lat="43.71575" lon="3.61561">
        <ele>167.41</ele>
        <time>2018-01-28T15:18:51Z</time>
      </trkpt>
      <trkpt lat="43.71573" lon="3.61567">
        <ele>167.89</ele>
        <time>2018-01-28T15:18:56Z</time>
      </trkpt>
      <trkpt lat="43.71557" lon="3.61586">
        <ele>170.77</ele>
        <time>2018-01-28T15:19:13Z</time>
      </trkpt>
      <trkpt lat="43.71549" lon="3.6159">
        <ele>173.66</ele>
        <time>2018-01-28T15:19:27Z</time>
      </trkpt>
    </trkseg>
  </trk>
</gpx>